GFSCGP_sfc_rhum_000.txt.gz
RH
86 92 91 80 46 48 47 49 48 39 32 36 38 38 32 32 30 34 39 41 44 43 48 50 54 60 62 64 58 55 50 53 73 91 94 94 84 90 94 87 79 78 76 72
98 91 76 60 53 44 45 47 47 38 35 36 38 33 34 27 33 41 40 44 46 49 49 50 54 60 60 62 64 58 54 54 67 78 83 85 90 94 92 91 89 85 84 79
81 72 65 50 48 47 50 50 47 46 40 39 48 45 34 35 39 42 44 44 46 48 50 54 58 64 65 63 60 54 56 60 61 72 81 86 87 90 90 92 93 90 88 84
76 55 59 56 46 42 51 39 39 44 49 51 47 56 42 40 41 45 49 46 46 48 53 57 60 62 67 64 60 56 54 53 50 63 67 73 80 81 85 88 88 83 83 88
68 51 55 46 44 40 41 40 44 46 52 60 51 51 44 40 43 44 48 47 46 51 56 60 61 60 63 64 64 61 56 53 55 55 58 66 65 78 81 78 70 69 72 73
52 39 43 42 38 38 40 40 48 55 55 64 50 48 46 45 38 45 52 48 44 51 59 60 61 59 60 62 63 63 58 58 57 56 56 57 59 60 60 64 66 66 69 74
60 34 30 34 36 36 41 52 67 67 70 64 52 50 40 34 40 34 45 48 47 52 58 60 61 62 61 61 60 56 59 60 59 59 59 61 62 64 65 65 66 65 61 64
69 48 32 28 37 40 45 49 66 70 75 61 45 47 34 36 39 40 43 47 48 53 58 58 60 62 60 58 60 59 60 61 62 62 62 64 66 69 68 67 68 68 67 66
50 57 42 38 31 36 42 54 49 58 70 62 56 46 36 46 51 49 52 48 49 53 57 58 59 59 58 60 61 61 62 65 66 68 68 68 70 70 71 72 70 70 63 53
54 60 51 42 37 36 44 39 52 60 65 66 56 52 45 52 54 53 54 52 51 51 57 59 59 58 61 62 65 67 69 70 71 71 72 69 74 71 70 66 66 59 56 55
57 58 72 49 50 50 44 45 42 50 56 60 62 50 41 38 45 49 51 51 51 54 58 59 59 62 64 68 72 74 74 67 65 69 70 72 76 72 69 62 60 56 55 53
69 67 77 68 54 48 49 44 43 50 52 59 57 48 36 45 36 40 47 49 56 56 58 60 63 69 74 76 77 74 69 64 62 65 67 66 69 61 56 52 49 49 50 48
58 74 84 77 67 62 61 50 46 51 57 62 58 51 38 49 43 51 53 54 52 59 62 56 63 77 82 78 76 72 65 62 60 62 63 61 64 53 47 47 45 44 45 46
59 60 64 63 61 60 66 62 52 49 62 54 59 52 47 42 43 47 50 51 59 62 53 57 76 88 83 75 70 63 58 56 58 59 58 63 52 49 47 46 43 42 42 43
49 53 55 52 47 47 52 54 59 60 58 49 49 47 42 39 38 38 42 57 63 56 53 66 90 90 81 72 64 57 53 50 52 51 54 52 49 44 44 44 42 40 41 39
52 54 44 41 38 41 41 39 40 46 53 55 54 43 36 38 47 70 72 62 60 52 60 85 84 77 76 74 59 51 50 49 48 48 49 42 36 35 38 37 38 37 38 36
49 44 42 40 50 49 52 50 47 43 41 36 39 35 41 44 51 62 68 60 55 56 82 83 78 76 71 59 52 53 50 47 42 47 35 32 32 33 34 33 34 36 35 36
55 58 60 59 62 69 57 50 44 44 46 46 44 46 54 62 62 63 64 65 57 74 81 79 74 68 62 53 51 48 44 39 35 38 32 32 33 34 33 34 34 34 33 34
56 61 72 74 78 62 58 54 52 54 63 60 60 62 65 60 67 65 72 69 76 84 81 76 68 61 54 47 44 37 34 32 31 33 34 34 35 35 35 36 36 34 34 35
61 63 64 94 86 75 59 54 52 52 62 65 66 64 70 72 78 69 81 81 82 74 68 65 56 50 45 41 33 30 32 32 32 34 36 36 38 38 38 38 38 36 38 36
75 77 78 87 87 76 59 54 54 67 60 74 71 69 70 76 72 76 80 77 73 68 58 54 53 48 40 32 30 32 35 34 34 38 39 40 40 40 39 39 40 42 44 42
79 91 89 89 89 85 62 66 70 64 75 68 65 66 68 76 81 80 78 75 69 66 57 50 50 36 28 29 33 36 37 35 38 41 42 42 43 40 38 49 50 49 47 48
76 76 84 77 76 64 68 62 63 60 60 65 71 62 63 72 77 76 79 76 69 58 45 37 36 33 29 35 37 39 38 40 42 46 46 45 44 43 43 52 52 53 49 51
78 73 76 69 73 74 64 68 66 64 63 61 64 67 67 65 68 75 80 81 66 50 39 35 32 30 35 38 38 40 41 43 47 50 49 48 48 48 48 47 49 53 53 55
74 80 82 84 75 70 73 68 68 67 68 76 78 71 65 70 81 89 92 90 58 44 38 35 35 40 43 43 43 43 44 48 52 53 51 48 48 51 51 50 51 51 52 57
89 81 86 86 74 72 75 76 74 77 78 72 71 73 87 90 90 93 88 60 48 38 38 41 44 47 46 47 48 47 48 52 56 51 49 52 52 55 54 53 53 56 60 62

GFSCGP_sfc_rhum_003.txt.gz
RH
86 94 89 82 71 58 56 52 53 46 36 41 44 41 34 36 33 36 43 47 49 49 54 55 58 60 58 56 61 63 60 64 83 94 95 96 96 95 96 95 86 80 80 78
97 92 68 69 56 50 49 56 56 42 41 42 44 40 36 31 34 40 44 49 51 53 56 57 61 65 63 61 60 58 60 66 77 91 93 93 94 94 95 95 93 91 90 88
80 71 70 66 74 59 54 57 58 48 44 44 47 48 44 37 44 42 46 48 50 53 58 61 63 67 67 65 64 57 57 55 63 78 88 89 86 88 85 87 89 85 84 89
80 64 79 72 69 62 76 45 49 47 53 58 56 62 46 39 46 47 53 52 51 57 61 61 61 66 68 67 65 61 58 54 51 59 61 75 81 80 83 87 79 71 71 72
81 71 77 84 66 47 63 42 45 50 53 64 56 58 48 44 45 46 48 50 55 59 60 61 63 62 65 66 67 64 58 56 59 58 62 65 67 71 73 70 64 65 63 68
56 56 61 61 52 41 43 44 51 63 59 69 55 51 50 46 36 49 52 49 53 60 64 64 64 61 62 64 65 66 59 61 61 60 62 66 68 67 65 68 66 68 66 68
51 52 39 37 36 44 45 54 72 72 73 70 60 61 39 38 36 36 45 48 53 60 63 63 64 63 63 66 65 59 64 66 67 65 66 70 72 73 72 72 71 68 64 62
70 67 35 32 39 45 50 52 68 71 78 65 55 56 38 42 41 38 42 46 51 59 64 64 65 65 65 64 66 68 70 70 69 71 72 71 71 73 72 72 71 68 68 64
65 59 43 37 34 36 44 56 53 63 75 73 60 50 40 51 55 50 49 50 53 58 63 63 64 66 65 69 72 73 71 71 71 72 72 75 70 68 70 69 68 66 60 49
50 57 53 43 37 36 43 41 56 66 73 72 62 58 48 55 59 57 54 51 52 58 63 63 65 67 70 74 77 73 69 68 69 69 72 70 72 67 66 63 59 55 52 51
54 53 73 48 52 48 42 44 50 55 62 64 67 52 42 40 53 52 52 49 52 57 63 65 69 70 75 77 74 70 64 62 63 65 66 69 66 61 56 48 47 46 48 46
73 62 70 66 65 51 53 43 44 56 58 63 63 51 42 44 48 51 51 54 57 58 62 67 72 78 79 78 70 64 60 60 62 61 60 61 53 44 43 45 42 40 40 40
61 76 86 78 71 71 68 53 47 54 59 63 60 49 39 47 40 46 49 51 54 61 68 70 81 83 81 77 68 60 56 55 56 55 57 50 45 45 44 43 40 37 38 39
59 67 66 62 68 67 70 60 53 51 63 58 58 54 47 45 44 50 53 59 61 67 58 68 88 87 80 69 59 54 50 50 50 49 49 42 41 43 42 42 40 39 38 37
46 54 56 56 52 59 62 64 57 53 52 49 50 52 46 46 41 40 40 54 63 64 59 78 92 89 78 67 58 53 50 48 45 47 42 43 42 40 40 40 38 37 37 35
52 60 49 47 46 42 45 47 62 62 60 57 57 50 42 43 50 59 67 66 68 61 60 84 87 78 73 68 56 51 50 47 41 44 39 38 38 38 39 37 37 37 37 36
45 46 42 46 56 54 49 47 44 42 42 38 36 34 45 55 61 69 72 64 65 58 76 90 80 76 70 56 53 53 48 36 32 39 36 38 38 39 40 38 38 39 38 38
49 51 54 50 60 63 48 53 45 45 54 42 53 54 56 63 64 61 66 66 64 65 85 81 76 71 58 54 49 39 32 31 34 36 37 39 41 40 40 40 40 41 39 39
50 55 68 68 66 60 64 54 53 56 68 61 61 62 64 62 66 69 70 72 74 86 82 78 71 64 53 45 33 28 31 34 35 37 40 40 42 42 42 43 43 42 42 44
58 59 61 92 83 70 56 54 51 48 80 71 67 73 78 75 82 75 84 87 84 78 70 68 61 53 42 31 29 31 33 35 37 39 41 43 45 45 45 46 45 43 46 45
66 70 73 81 80 70 57 56 55 67 57 74 67 69 74 72 72 74 85 84 79 75 68 61 54 45 38 28 31 33 32 36 39 42 44 46 48 49 47 47 47 49 51 49
70 81 81 87 86 76 65 64 68 68 77 66 65 65 67 72 79 88 86 83 78 71 65 56 49 36 27 29 30 32 37 39 43 46 49 51 52 47 42 57 57 56 54 55
79 71 75 73 74 69 76 66 68 63 64 66 74 70 63 70 79 82 86 84 80 66 52 45 41 33 28 31 34 40 41 44 47 51 54 54 53 52 50 59 57 58 55 56
79 76 76 75 80 79 69 71 68 68 67 70 73 74 72 74 74 80 85 86 74 58 50 40 31 28 31 39 41 44 46 48 53 57 58 55 58 53 53 54 55 57 56 59
77 81 83 83 84 80 75 77 74 72 77 77 78 77 77 78 81 86 90 91 74 49 39 33 33 38 42 45 46 48 48 52 53 56 56 56 56 59 58 56 55 53 54 60
90 82 84 80 73 72 76 75 77 77 79 80 83 80 85 87 86 92 93 78 52 47 37 38 42 44 46 50 51 50 50 54 58 55 52 56 57 62 60 59 56 56 60 62

GFSCGP_sfc_rhum_006.txt.gz
RH
87 92 96 85 70 73 64 61 66 50 41 47 46 47 38 36 36 37 45 51 58 56 62 62 63 64 60 61 60 63 64 79 92 96 96 95 95 96 96 96 94 92 89 86
96 93 71 74 71 66 52 51 60 52 46 46 46 44 39 40 34 37 44 53 58 60 62 62 64 67 66 65 61 56 57 62 82 94 95 95 96 97 95 91 81 80 86 87
82 78 63 69 70 63 58 59 71 64 50 50 52 50 48 40 46 46 49 53 60 58 61 66 67 70 70 69 68 60 61 57 59 68 80 78 79 79 79 78 68 70 68 60
86 76 73 70 83 72 90 55 50 52 58 65 52 66 54 42 47 50 57 59 61 64 69 64 63 67 69 68 66 65 62 62 58 65 62 70 73 76 79 80 72 67 68 66
86 92 90 79 70 72 80 50 50 52 62 68 68 62 52 50 49 51 56 57 63 66 67 67 66 64 67 68 71 70 64 64 66 65 69 69 72 76 75 74 68 70 64 68
74 68 77 80 69 60 53 50 49 55 60 74 59 53 57 49 45 54 57 54 60 67 70 69 68 66 68 71 72 73 67 70 70 68 70 73 74 70 65 68 66 66 64 67
65 81 57 60 56 47 53 51 78 70 77 75 68 67 51 44 40 41 47 51 60 68 71 70 68 70 70 72 73 68 70 74 74 70 68 71 75 76 73 73 68 63 58 59
83 93 55 42 66 68 61 60 72 76 79 70 64 64 43 49 53 44 44 48 60 69 70 70 70 71 72 74 76 75 74 73 74 72 73 70 69 69 65 66 66 62 62 61
84 80 45 38 39 54 56 58 56 67 78 80 68 52 42 52 54 58 51 53 62 68 69 70 72 72 77 79 78 73 70 70 71 72 72 70 64 63 63 65 61 56 55 41
58 58 49 43 32 35 47 44 60 68 76 79 71 61 53 43 58 62 57 56 62 67 69 72 72 76 82 81 75 68 67 68 68 67 67 60 60 55 54 52 51 49 46 45
51 56 61 44 49 44 45 51 57 59 68 68 71 53 47 44 48 56 57 55 62 66 68 73 74 81 83 76 70 66 64 63 62 62 59 52 47 47 46 46 47 44 45 44
58 64 64 54 66 49 48 45 49 64 66 70 67 55 45 50 50 56 56 56 58 62 68 75 78 85 79 71 64 60 58 58 57 57 50 46 44 44 44 44 44 42 41 39
61 73 87 75 72 73 66 54 49 56 61 68 63 54 42 50 53 56 55 54 55 61 73 80 88 85 80 69 59 54 53 53 52 49 44 40 41 42 42 41 39 38 38 38
59 68 65 71 67 64 75 61 56 52 66 65 61 55 59 51 48 51 59 61 59 68 71 84 90 86 74 61 56 53 51 48 46 41 38 39 40 40 40 42 41 41 40 41
52 60 64 57 64 63 61 60 57 54 52 55 55 52 53 49 48 48 52 56 65 71 69 84 88 85 73 62 57 52 50 42 42 36 38 40 41 41 42 44 44 42 43 39
52 60 51 50 49 47 57 62 61 59 58 57 58 56 48 58 66 69 73 65 67 70 66 88 89 80 73 64 57 51 47 35 35 37 39 41 42 43 45 45 43 42 43 41
48 48 52 58 56 54 46 45 69 62 59 56 61 49 48 65 60 67 67 64 64 68 69 93 84 78 66 59 54 49 38 31 32 36 38 41 44 46 46 44 44 44 43 45
45 48 51 55 68 54 45 66 44 50 56 50 57 57 59 63 64 66 66 75 69 70 86 88 80 70 60 57 48 39 30 27 35 37 39 43 46 47 48 48 48 48 46 47
48 55 70 62 64 55 66 58 61 56 71 65 63 63 65 63 71 71 73 79 78 78 89 81 74 65 57 46 34 28 28 34 36 39 42 44 47 50 50 49 50 48 49 49
59 61 56 92 81 66 57 58 52 54 71 64 63 68 72 73 74 71 76 86 88 84 77 73 65 56 42 33 30 32 34 35 37 42 45 46 50 52 52 53 51 50 52 49
67 73 68 79 79 70 57 56 53 65 64 73 67 64 67 70 66 72 88 88 83 78 71 64 56 48 38 31 29 34 36 36 41 46 48 50 52 54 54 54 55 54 56 55
62 77 83 89 85 74 65 63 62 66 72 65 64 64 67 66 74 85 88 86 78 74 69 58 50 39 31 30 35 36 34 41 46 50 52 53 55 51 46 60 61 64 61 60
70 65 70 72 74 69 75 69 72 65 66 68 68 63 62 70 79 84 87 89 82 71 62 52 46 38 34 38 39 40 41 48 51 54 55 56 54 53 53 61 61 60 60 60
81 76 75 73 78 73 68 67 65 64 65 66 74 74 72 75 76 80 86 90 86 67 56 46 38 31 31 36 41 45 48 51 55 58 58 57 60 57 60 61 60 64 60 61
75 79 82 84 87 78 73 75 67 69 72 73 76 77 77 79 80 84 88 90 80 64 48 39 33 34 39 45 47 49 49 54 54 56 56 58 58 64 63 61 65 59 58 62
88 80 81 78 75 75 76 73 74 75 77 83 82 84 84 86 84 90 92 93 75 56 42 39 37 42 44 49 52 52 53 55 60 57 53 57 58 66 62 63 62 58 60 60

GFSCGP_sfc_rhum_009.txt.gz
RH
81 95 96 79 70 62 54 52 52 54 40 40 42 42 35 32 34 35 35 45 47 49 51 52 52 50 46 48 48 52 63 73 72 74 73 74 76 68 62 56 53 52 54 55
82 94 70 68 71 60 56 56 56 51 43 40 45 42 35 36 35 31 36 46 48 50 50 53 52 52 52 51 49 48 51 57 72 77 80 78 63 58 55 53 52 49 44 45
79 77 61 69 79 74 64 64 61 60 50 44 47 46 41 34 33 41 43 47 48 49 52 54 54 55 55 55 57 53 53 54 56 56 53 52 54 55 54 53 50 51 47 45
84 71 71 76 76 70 82 54 55 54 61 68 43 55 47 37 35 45 49 51 52 55 55 56 55 56 56 60 63 58 58 56 56 55 56 57 58 55 57 53 50 46 47 48
90 95 77 83 74 68 76 62 62 57 56 51 50 50 43 39 38 45 50 54 56 57 57 59 59 61 60 63 66 62 59 60 60 57 57 54 55 55 52 49 46 46 44 47
88 76 72 67 66 65 50 58 63 55 51 63 52 47 47 39 34 45 48 51 57 58 60 60 61 61 61 66 67 66 60 60 58 57 56 56 55 48 47 49 44 42 39 42
90 86 84 85 64 58 54 74 97 95 72 67 56 55 42 39 35 38 43 48 56 59 60 60 60 60 63 66 65 61 60 61 56 54 52 51 51 48 45 42 38 35 33 38
96 99 69 79 73 72 77 74 80 75 71 60 58 58 37 36 42 42 42 45 58 61 61 60 62 64 66 67 64 61 59 60 55 51 47 43 43 40 37 37 34 32 32 34
82 83 60 52 53 61 78 86 53 63 65 66 60 49 39 42 46 48 49 53 61 62 63 63 62 64 66 64 62 59 57 56 55 48 39 36 33 34 35 34 31 32 30 25
72 62 51 37 42 38 59 49 77 62 68 70 63 54 48 39 41 53 53 53 61 63 64 64 62 68 67 61 59 57 52 52 48 41 33 31 30 30 30 29 30 31 29 30
52 57 64 41 45 49 55 74 59 56 62 62 58 47 40 39 39 49 51 53 58 62 63 63 66 70 66 58 55 52 48 48 44 36 30 28 29 28 27 27 28 29 29 30
50 58 64 54 58 46 45 51 50 60 62 61 56 51 38 45 47 50 50 52 56 59 63 64 71 70 60 54 50 48 45 44 41 33 27 27 28 28 26 26 28 28 28 28
56 69 78 64 60 65 52 45 47 53 55 62 57 50 40 48 54 54 51 50 52 58 68 69 76 68 59 51 46 43 41 41 34 28 26 26 28 27 27 29 29 28 29 29
58 66 71 71 64 62 69 56 53 46 57 58 54 44 40 47 50 52 52 52 52 56 68 74 78 71 58 49 44 42 38 36 31 27 28 28 29 30 31 31 31 32 31 31
52 61 60 56 61 57 58 58 52 50 44 47 47 49 40 42 45 46 42 46 56 64 71 77 80 70 56 49 46 43 35 29 28 27 28 32 33 33 33 34 35 34 34 33
58 62 53 53 55 56 64 62 50 48 54 52 49 50 41 44 47 52 54 55 60 67 69 78 78 67 57 51 47 44 33 26 28 28 31 34 34 35 37 37 36 36 36 34
64 52 56 58 52 46 54 50 63 55 57 43 52 41 46 58 57 56 58 57 60 65 66 80 77 67 57 51 47 39 26 25 27 29 31 34 36 38 39 38 37 38 38 38
59 56 57 55 54 61 50 57 56 54 50 49 49 47 50 60 57 54 58 56 58 63 67 84 74 64 54 49 42 30 26 26 28 31 32 36 39 39 39 39 38 39 38 38
51 52 65 64 59 52 62 58 57 54 59 55 62 64 63 58 58 60 65 68 69 64 78 77 65 55 51 41 32 26 26 28 29 32 35 37 39 40 39 39 40 39 40 40
56 53 55 90 71 52 48 57 51 54 60 65 63 67 64 63 62 61 71 74 79 80 74 69 57 49 38 29 26 26 26 27 29 35 38 40 41 41 40 41 41 41 43 42
65 67 61 74 70 62 53 56 52 63 54 69 66 69 70 64 61 69 77 79 77 72 65 56 51 43 33 28 26 27 28 28 34 39 41 42 41 42 40 41 43 45 46 47
59 71 72 83 78 61 59 58 58 62 70 64 63 62 62 64 73 78 80 81 75 70 66 55 44 35 30 28 27 30 29 34 39 43 44 42 41 41 40 48 50 49 50 51
63 57 66 66 67 72 73 69 71 64 65 66 64 65 62 65 72 84 85 85 77 71 63 52 43 34 32 33 32 30 33 40 43 45 43 43 42 42 44 50 50 50 49 53
81 76 78 70 78 76 72 69 65 63 64 65 65 65 64 67 70 74 85 89 82 69 57 48 41 33 31 32 33 37 40 43 46 44 44 43 43 46 45 49 52 54 55 55
70 73 82 88 86 74 72 72 70 73 72 72 71 70 69 70 75 79 84 89 84 67 56 44 38 34 33 36 39 41 42 46 44 44 44 44 46 51 53 53 53 52 51 56
87 77 78 76 75 74 72 72 72 74 79 78 77 80 85 85 81 86 88 88 78 62 47 43 36 34 36 42 43 44 46 47 49 46 42 46 50 55 54 55 56 59 62 61

GFSCGP_sfc_rhum_012.txt.gz
RH
66 92 94 81 66 43 34 38 44 37 32 35 36 34 27 24 24 23 22 24 28 30 34 35 35 32 33 34 38 45 51 50 46 49 52 51 49 44 40 37 34 33 32 32
67 95 69 73 56 44 43 47 47 33 34 35 36 38 31 25 23 22 22 25 29 33 32 35 35 34 33 34 34 39 49 55 54 56 51 44 42 40 38 39 37 34 32 32
74 68 54 87 68 52 50 48 38 40 42 40 37 36 30 24 24 26 22 26 28 31 32 34 35 36 36 39 40 40 44 46 42 40 39 40 41 40 39 38 36 35 33 31
58 52 68 89 68 51 66 42 45 51 61 55 39 45 32 23 26 28 28 31 31 33 33 36 37 39 41 47 48 45 43 43 42 40 40 39 39 41 38 35 34 31 32 30
74 55 81 79 78 46 49 46 48 53 59 57 47 44 29 28 25 28 30 32 34 35 36 39 41 45 46 50 50 46 43 41 40 39 37 36 37 36 34 31 30 29 27 27
48 66 64 64 59 50 49 49 52 48 52 59 39 39 30 24 22 25 30 34 36 37 38 40 44 44 48 52 50 46 42 41 40 38 36 38 37 32 31 29 25 22 20 22
71 91 79 59 81 63 50 63 97 90 86 56 38 40 27 24 24 24 31 34 35 38 40 43 45 45 47 51 51 44 41 41 37 36 34 33 33 30 27 23 21 20 18 20
98 99 96 62 63 80 70 51 50 61 55 44 43 42 26 26 27 25 24 31 36 40 38 41 43 46 49 49 46 42 40 39 34 32 29 26 25 24 20 21 19 17 17 18
97 98 79 64 58 55 83 87 40 44 44 41 34 32 26 28 30 30 29 35 41 41 41 42 45 45 46 44 43 42 42 39 33 28 24 22 20 21 20 19 18 19 18 16
65 95 67 61 66 58 67 48 66 48 56 52 37 38 28 26 26 33 32 37 40 42 42 43 43 46 43 42 43 40 36 34 29 24 21 20 18 17 17 17 18 19 17 18
50 52 72 51 81 74 62 76 67 45 42 40 37 31 24 26 26 28 30 33 39 43 42 43 43 46 44 42 41 37 36 32 27 22 19 18 17 17 16 16 17 17 17 18
45 37 72 61 44 42 46 51 50 56 53 40 37 30 24 27 30 30 30 34 37 40 42 42 46 47 44 41 38 35 33 29 25 21 17 18 18 17 16 16 17 16 17 17
38 41 56 76 56 42 57 46 46 37 37 41 42 33 27 31 34 35 32 35 38 41 45 44 49 47 42 39 36 32 31 27 22 19 17 17 18 17 17 18 18 18 18 19
50 43 38 47 44 39 50 46 46 47 50 41 36 30 27 32 34 36 34 33 35 41 46 46 50 46 41 37 33 30 29 26 22 19 18 20 19 20 20 21 21 21 21 21
45 46 42 42 41 38 40 45 41 45 42 42 34 35 27 23 31 31 32 32 34 39 47 49 51 47 42 37 34 31 28 24 19 18 20 23 22 23 23 23 23 23 24 23
47 51 39 42 47 41 41 38 40 42 40 35 32 33 24 24 28 31 30 33 37 39 44 49 52 49 44 38 36 35 27 21 19 19 22 24 23 24 25 25 24 25 26 25
47 45 44 47 40 42 50 40 39 36 32 31 36 30 28 34 32 31 35 38 39 40 44 50 53 51 44 39 36 33 22 18 18 20 21 23 24 24 25 25 24 26 26 25
50 49 48 45 45 67 36 38 32 35 31 30 30 31 30 30 35 39 38 38 42 46 47 52 54 52 43 38 34 24 20 19 20 21 21 23 25 25 25 24 24 24 24 25
60 71 74 57 48 36 34 43 40 43 39 34 34 33 39 41 41 48 48 48 47 46 46 53 53 47 41 37 29 23 20 19 20 21 22 23 24 25 23 24 25 24 25 27
50 70 80 68 64 53 35 41 34 34 36 37 35 40 45 43 43 43 51 53 58 59 59 57 48 41 37 30 23 22 20 19 18 22 24 25 26 26 24 26 27 27 27 26
66 55 66 62 89 41 36 40 40 39 40 46 40 43 46 43 44 54 56 60 56 57 55 47 41 38 32 24 22 22 21 19 22 25 26 26 25 25 25 27 28 30 29 28
50 59 55 59 83 67 45 45 42 48 51 48 48 47 50 53 56 57 59 61 58 57 52 43 41 34 26 23 22 22 20 22 25 27 27 26 24 25 28 36 36 33 29 29
46 44 41 42 43 58 54 51 52 45 49 48 48 48 49 54 54 58 63 61 57 54 49 42 38 33 27 25 22 21 22 26 27 28 26 25 25 26 29 33 35 33 29 31
56 56 48 54 59 57 55 53 48 44 49 48 48 49 48 53 56 59 60 64 59 56 51 44 39 35 30 25 26 23 26 28 29 27 25 25 26 31 30 29 30 33 33 36
49 54 56 65 64 57 54 50 51 54 53 54 53 51 52 53 56 56 60 64 64 58 50 43 40 36 31 26 25 26 29 30 28 26 25 27 28 31 32 30 32 36 38 46
53 50 49 46 48 46 48 51 53 54 57 54 57 62 65 58 60 62 63 64 65 58 49 43 38 33 27 26 27 29 30 31 31 29 28 30 34 34 31 32 35 43 51 56

GFSCGP_sfc_rhum_015.txt.gz
RH
50 85 88 69 74 54 42 46 43 34 28 31 35 32 27 22 21 21 19 16 20 24 28 30 30 28 31 35 40 42 42 43 43 47 49 47 46 42 38 35 32 31 30 30
65 93 56 46 61 76 72 47 37 32 30 33 32 32 26 23 24 22 18 18 21 26 28 30 29 28 29 32 39 44 47 48 47 43 44 43 41 38 38 38 34 30 28 29
71 66 55 46 70 82 62 52 35 37 33 32 35 40 35 27 24 21 19 18 21 26 28 30 30 32 33 35 40 42 41 42 44 43 42 42 41 40 37 34 33 32 28 25
67 50 77 54 74 79 89 42 35 38 45 52 36 40 25 22 24 23 20 20 24 26 26 29 32 36 39 44 44 40 40 39 37 36 36 37 37 38 34 32 31 28 28 25
86 71 83 69 80 70 78 38 38 45 48 59 52 49 30 23 24 23 21 23 26 28 29 32 36 40 43 46 47 42 39 38 37 34 33 34 34 33 31 28 27 24 23 23
63 44 59 62 68 69 69 42 48 47 49 61 41 40 29 25 22 19 22 25 29 29 31 34 39 42 47 48 46 43 38 36 34 34 32 34 34 30 30 28 24 22 20 21
78 81 68 65 94 90 90 72 92 83 88 48 31 36 28 21 20 19 24 28 29 31 34 38 41 43 47 48 45 38 36 36 32 32 31 31 32 29 27 24 22 20 19 20
92 96 94 65 89 86 88 63 50 57 54 40 34 42 27 22 21 19 23 27 30 33 34 38 40 43 46 45 40 37 35 33 30 29 27 26 26 24 22 21 20 18 18 18
92 90 64 74 83 68 83 68 38 42 34 34 37 30 24 22 25 24 23 29 34 34 36 37 39 42 44 42 39 38 35 32 29 27 24 22 20 22 21 20 19 19 17 14
89 99 89 91 76 85 67 46 54 41 50 46 33 30 28 26 24 25 25 31 34 35 36 37 39 40 39 39 39 37 32 30 27 24 22 21 19 18 18 18 18 18 16 16
88 99 94 86 86 84 85 79 52 37 36 39 36 31 21 22 22 25 25 29 34 36 36 38 38 39 39 40 39 35 32 29 26 24 21 20 19 18 16 16 16 16 16 16
80 91 99 78 50 48 54 69 45 47 48 36 36 31 20 22 26 25 24 28 32 35 36 36 38 41 40 40 37 35 32 28 26 22 20 20 19 18 17 16 16 15 16 15
59 58 98 94 64 62 70 51 44 41 36 39 37 32 21 25 28 26 26 28 33 36 37 36 40 42 40 38 36 33 30 28 24 21 20 20 20 19 18 17 17 16 17 17
56 47 45 49 43 61 78 64 44 44 47 39 35 29 25 27 29 30 28 30 33 36 38 38 42 41 38 37 34 31 29 27 23 21 20 22 21 20 19 19 19 19 19 20
50 48 36 32 32 40 48 50 50 49 43 41 33 31 24 22 25 27 28 30 33 36 39 40 43 41 38 36 33 30 29 26 21 20 21 23 21 21 21 22 22 21 22 23
47 52 39 43 39 35 38 37 40 42 41 38 33 32 22 20 20 24 26 29 32 35 38 39 43 42 40 37 34 32 30 25 21 20 21 22 20 21 22 23 23 23 25 24
57 54 45 45 38 42 49 37 35 36 34 33 38 31 24 26 26 27 27 29 30 31 34 40 43 44 42 37 35 34 27 22 21 20 20 20 21 21 22 22 22 25 25 24
53 53 46 50 42 68 33 31 29 32 31 30 30 28 26 26 25 26 27 30 31 34 37 40 42 46 42 36 34 30 24 22 21 20 19 20 20 21 22 22 23 23 23 25
46 57 61 59 56 45 33 33 34 35 36 28 27 26 27 33 39 44 39 34 37 38 39 43 44 44 41 38 32 27 25 22 20 19 19 19 20 21 21 23 23 24 26 27
64 52 69 71 64 57 35 35 29 29 41 25 27 28 33 40 44 44 46 45 48 48 49 51 48 42 40 35 28 28 24 21 18 19 20 20 21 22 22 24 26 27 27 26
83 93 96 91 71 54 33 34 31 40 43 36 30 30 38 41 41 47 46 49 49 51 51 46 44 42 35 29 27 26 22 19 20 21 21 22 22 22 22 26 28 31 29 28
69 82 89 76 84 84 37 41 39 46 42 36 35 37 43 50 48 48 51 55 54 54 50 43 41 36 29 27 26 24 21 21 22 23 23 23 22 21 26 38 39 35 30 29
59 45 44 43 52 50 42 45 43 40 42 42 43 44 46 49 52 54 57 54 54 51 47 41 39 34 30 26 24 22 22 22 23 23 23 22 22 24 27 36 37 34 28 28
42 44 39 40 47 48 44 46 44 39 42 42 42 44 43 50 52 55 55 56 54 50 47 42 39 37 33 27 25 21 23 24 24 24 23 23 26 29 28 28 30 31 30 33
42 46 45 47 56 53 50 46 46 46 45 46 45 44 48 50 51 51 54 55 54 54 49 45 43 40 35 28 23 23 25 24 26 24 24 26 27 30 32 29 29 29 31 38
46 41 45 39 42 40 44 44 46 49 51 51 54 57 53 50 56 53 55 57 58 56 50 48 44 42 32 25 23 24 26 27 27 27 28 30 32 33 31 30 32 38 43 46

GFSCGP_sfc_rhum_018.txt.gz
RH
54 77 88 80 72 67 59 58 67 50 39 46 43 39 37 32 31 34 32 28 31 35 39 40 43 46 52 57 58 61 62 61 64 72 65 58 64 58 54 50 42 40 40 43
66 84 58 52 56 66 69 73 69 54 40 40 41 42 36 32 30 29 30 29 30 40 42 42 42 46 51 61 64 67 67 60 57 60 58 60 59 57 54 51 44 38 36 36
73 62 53 50 55 64 61 83 74 78 49 37 46 48 40 32 29 28 30 29 31 38 42 44 47 49 54 61 61 58 60 60 59 54 50 50 57 58 56 54 51 43 34 32
59 48 48 60 60 56 72 55 68 66 85 80 45 70 44 35 35 32 35 30 36 37 40 41 46 55 62 65 62 58 56 57 57 56 59 58 58 56 54 51 46 42 34 31
77 63 63 72 74 68 72 62 75 77 88 78 64 66 50 34 38 36 32 30 37 37 39 46 54 57 60 65 64 58 53 51 50 49 49 53 53 52 49 45 38 33 34 31
60 54 60 59 64 67 63 70 90 88 80 92 63 66 53 39 33 31 30 34 37 38 43 50 57 60 67 67 64 57 51 50 48 48 47 49 48 45 45 38 38 35 36 37
73 93 68 67 83 68 73 85 100 100 99 81 45 56 48 30 27 26 29 37 38 41 46 54 62 67 66 65 59 52 50 48 45 45 44 43 41 38 35 35 34 31 32 34
87 82 86 71 84 85 80 98 99 96 92 64 42 58 46 29 26 29 31 36 40 43 49 54 60 65 67 60 54 49 46 44 41 39 36 35 35 38 34 31 32 29 29 28
97 95 70 55 68 81 88 99 82 72 41 55 55 46 34 31 33 33 36 38 43 44 50 53 59 62 63 58 53 49 45 42 38 36 33 30 29 30 31 28 28 29 26 19
87 99 81 76 74 82 96 75 93 71 62 70 58 51 46 39 39 33 39 43 45 45 49 51 55 59 58 55 54 47 42 39 36 33 30 27 26 25 25 26 24 24 22 23
90 99 96 96 91 91 95 96 86 59 54 64 63 52 35 34 34 35 37 40 44 46 47 51 54 55 56 55 53 46 40 37 35 32 30 28 26 25 24 23 22 21 22 23
87 98 99 96 79 67 80 76 70 63 67 63 56 50 30 34 33 34 34 38 42 44 47 50 53 54 57 57 52 46 41 38 35 30 28 28 27 26 24 23 22 22 23 24
90 98 100 99 95 90 90 75 70 68 59 65 55 52 33 40 37 36 37 42 43 47 50 52 55 55 57 55 50 47 41 37 31 29 29 29 29 27 26 25 24 24 25 27
81 78 98 98 73 81 84 81 72 68 74 63 55 44 41 42 40 38 39 43 46 46 47 50 56 56 56 52 48 44 40 35 30 29 30 31 29 28 28 28 28 28 28 30
81 93 92 89 62 62 66 68 64 60 56 68 48 41 34 39 42 41 41 44 46 47 48 51 58 56 56 52 47 43 40 34 29 29 33 32 29 28 28 30 31 31 33 33
68 82 62 49 49 56 66 61 61 57 52 51 51 51 32 32 36 40 42 43 45 46 49 51 55 55 54 52 46 42 40 32 29 30 32 29 27 28 30 31 32 33 36 35
66 68 64 58 49 50 62 54 52 52 50 49 57 45 41 34 34 39 40 42 45 47 50 53 57 57 55 50 43 43 36 30 29 28 27 26 27 28 30 30 31 34 35 35
70 75 71 63 61 78 50 42 37 40 41 42 40 40 38 38 45 47 43 41 43 45 49 55 60 61 55 49 46 39 32 30 30 28 25 26 27 27 29 31 33 34 35 37
56 67 88 77 75 54 51 43 47 47 45 38 40 38 46 52 56 60 55 52 55 54 56 61 64 56 51 50 35 32 31 29 28 26 23 24 26 29 30 33 34 36 39 41
63 72 86 93 83 80 53 45 36 41 59 45 42 39 52 53 68 71 61 61 65 66 67 63 56 50 47 37 35 33 31 28 25 25 26 27 29 30 32 34 36 39 44 40
86 90 93 89 93 75 46 44 38 58 59 50 43 46 52 68 66 61 61 66 66 66 60 55 54 52 44 38 37 32 27 26 27 27 27 28 29 31 31 37 41 45 47 43
87 96 96 96 99 92 46 48 54 59 54 49 54 57 65 64 60 62 65 66 63 63 60 55 48 40 36 36 32 29 29 29 29 30 30 32 32 29 30 48 54 51 47 45
77 70 73 81 81 56 54 56 56 50 53 59 63 61 58 62 65 66 68 66 63 58 55 46 40 40 37 35 31 30 32 29 30 31 32 32 31 33 37 46 50 51 44 43
63 54 58 52 62 62 57 57 58 54 58 59 58 59 59 66 66 68 65 64 59 57 56 48 45 43 40 33 29 32 31 31 31 32 33 33 37 40 41 42 45 48 44 44
56 56 59 63 67 62 58 58 58 57 56 57 58 59 62 64 68 68 68 68 66 63 59 53 51 48 42 35 31 33 32 32 35 35 36 39 41 44 47 44 45 43 44 47
55 52 58 58 50 52 61 58 55 58 62 63 63 68 68 68 70 71 75 73 70 68 62 63 59 51 41 33 32 34 35 36 38 41 44 47 50 53 51 49 44 44 45 47

GFSCGP_sfc_rhum_021.txt.gz
RH
66 87 91 84 79 69 76 80 82 68 54 60 58 57 50 43 36 44 38 36 43 46 48 46 49 58 66 69 70 72 72 74 67 60 58 54 64 52 47 41 38 37 40 38
80 88 66 63 69 79 78 88 87 67 58 62 58 58 46 41 40 39 39 40 48 53 51 50 53 65 73 78 78 76 70 68 64 61 64 65 59 59 54 50 37 34 34 36
84 68 55 60 67 76 80 88 81 74 62 61 70 68 53 42 36 35 37 36 42 47 50 54 61 70 71 70 71 68 66 60 56 52 50 53 62 62 60 55 49 37 32 33
78 60 59 70 73 65 81 58 60 61 75 87 75 88 65 47 41 39 37 43 44 49 48 51 61 70 71 73 68 66 65 60 58 56 58 61 60 60 59 57 49 41 32 32
83 67 68 68 65 61 69 59 65 63 78 85 85 96 72 48 42 37 35 47 46 47 47 56 64 65 70 68 65 62 58 58 58 57 56 56 58 58 55 47 42 38 35 32
74 59 62 59 52 58 66 73 71 80 82 97 84 95 71 55 40 36 36 46 46 48 53 63 66 67 72 68 62 59 52 54 52 53 54 52 50 45 42 38 39 39 40 39
92 81 76 75 87 78 83 89 94 94 96 90 66 85 74 44 36 37 37 45 45 51 62 69 70 69 72 66 61 54 51 52 48 45 43 42 38 36 36 37 35 33 33 34
97 93 83 74 77 80 90 81 84 92 80 70 77 97 63 39 35 32 38 42 47 59 64 69 70 71 70 61 57 52 48 47 42 40 40 39 36 40 36 33 33 31 30 30
97 93 72 61 60 61 87 96 61 94 96 84 89 55 38 40 43 44 46 47 53 61 65 70 70 68 69 63 55 50 47 44 40 37 35 32 32 32 32 29 30 32 28 21
86 95 61 68 78 70 74 60 91 99 98 98 75 59 52 46 47 47 49 50 55 60 63 67 68 67 65 59 55 49 44 42 38 34 30 28 28 29 28 27 25 24 25 24
78 99 85 76 96 82 94 98 76 83 86 86 80 63 44 39 39 47 49 49 54 58 60 65 66 62 62 57 50 48 43 39 36 33 30 29 29 27 26 25 24 24 24 25
84 99 98 85 84 63 64 84 72 87 92 76 63 55 40 40 39 42 47 49 53 54 59 63 63 62 59 56 49 43 43 39 36 32 31 31 29 26 26 26 25 26 26 27
90 98 96 99 95 81 87 82 86 94 89 71 64 55 44 44 42 41 50 51 54 56 61 63 62 60 58 54 47 45 43 38 34 32 33 32 30 28 28 28 28 27 29 30
79 96 98 97 92 85 89 85 89 97 92 71 67 55 56 46 42 47 50 50 54 55 58 62 61 61 60 54 51 46 41 35 34 34 34 33 31 30 30 30 31 32 32 33
88 100 97 93 88 84 76 79 81 84 74 72 53 48 49 46 44 47 51 53 55 56 59 60 61 62 60 55 52 42 38 34 34 36 36 34 32 30 31 33 33 33 35 35
85 98 90 76 70 78 82 77 66 69 58 62 58 62 41 50 48 51 55 52 53 55 56 60 58 59 58 53 48 39 37 35 35 37 36 33 31 29 33 32 33 34 38 38
77 86 90 73 73 73 88 70 70 65 59 52 61 51 44 47 44 47 56 50 53 55 58 61 57 57 56 49 42 39 34 34 33 33 32 30 30 29 31 31 32 36 37 40
72 81 77 70 64 77 48 50 57 59 55 56 54 46 45 50 64 64 59 53 54 54 56 59 58 59 53 47 42 34 33 33 34 32 29 30 29 29 31 32 35 37 39 42
67 80 84 84 82 61 52 45 51 52 53 50 53 49 54 59 61 66 66 62 61 62 63 70 64 57 48 44 34 33 33 34 32 30 28 27 27 30 32 34 37 38 43 49
66 70 85 96 86 82 55 47 44 48 62 57 52 54 55 56 62 76 75 72 73 68 63 58 54 46 39 34 30 30 32 32 30 28 28 28 30 32 34 36 37 43 49 49
85 87 94 92 97 82 55 46 46 60 56 58 56 54 59 63 65 73 74 72 66 61 57 52 46 41 38 36 31 33 30 29 30 30 29 30 31 33 34 38 46 51 53 52
88 94 96 95 98 91 52 49 52 57 61 70 72 70 75 74 73 74 71 70 65 64 57 48 45 42 42 35 30 30 31 32 32 32 32 33 34 31 33 49 53 52 54 53
85 77 88 80 74 60 62 61 60 58 62 73 72 70 69 73 74 71 72 68 64 59 49 42 40 42 41 34 30 32 33 32 33 33 33 34 34 36 43 47 51 54 52 50
79 63 72 66 63 67 64 63 60 62 67 68 66 67 66 73 70 71 68 64 59 52 47 44 41 40 38 34 33 34 34 34 34 35 34 36 43 47 46 48 51 53 52 55
64 59 63 67 75 69 66 65 66 66 65 68 68 67 69 69 70 66 65 65 64 62 52 48 44 42 39 36 36 36 36 35 37 36 40 47 49 52 55 54 52 53 54 55
61 58 63 64 56 53 61 65 61 62 68 66 68 75 76 69 72 72 73 69 66 64 61 61 54 50 42 38 39 39 39 39 41 44 48 53 57 60 59 57 55 50 49 51

GFSCGP_sfc_rhum_024.txt.gz
RH
74 89 87 76 86 82 76 83 89 82 62 73 69 62 52 49 52 53 51 49 42 46 52 50 53 64 74 76 77 81 84 67 57 57 56 62 60 42 39 36 37 39 39 40
82 89 70 67 72 85 86 89 85 72 57 63 69 73 61 51 46 46 44 45 42 56 56 56 67 81 80 86 88 86 84 75 66 60 63 59 56 49 46 42 36 36 36 36
89 67 59 68 76 84 88 92 80 77 67 57 58 62 62 54 51 44 41 40 45 49 55 62 82 85 86 86 83 76 73 68 61 54 50 51 49 55 55 49 43 36 34 37
74 65 65 73 77 75 91 70 73 75 77 92 76 82 64 61 54 49 43 46 47 50 55 65 79 81 82 82 78 72 65 60 56 52 49 46 50 54 62 56 45 37 33 35
92 81 77 77 72 61 78 59 65 75 83 82 74 87 73 59 59 52 44 40 44 51 53 68 73 72 75 74 75 72 68 65 68 64 56 57 60 62 58 50 42 35 35 34
75 62 63 64 55 60 68 72 74 82 89 94 66 79 72 69 60 48 43 45 46 52 57 71 75 70 72 68 66 65 62 64 62 58 58 56 52 48 46 46 46 42 39 39
98 96 74 69 69 65 66 82 94 100 97 83 53 74 62 60 55 43 39 48 53 52 67 75 73 69 65 62 62 57 56 58 54 51 48 45 42 37 36 38 39 34 33 35
98 97 96 76 69 78 80 80 93 93 97 66 71 83 65 51 40 37 41 42 53 61 67 71 69 66 62 58 58 53 50 49 45 42 41 38 38 41 39 35 34 33 32 32
96 94 69 65 64 62 88 96 64 82 81 97 89 84 60 56 46 48 48 54 59 66 72 72 70 64 60 58 54 50 46 44 40 38 37 37 36 35 34 32 32 32 29 23
80 97 77 70 71 70 71 67 93 95 98 86 79 93 63 52 50 59 57 59 65 71 75 74 67 64 60 55 55 49 42 39 37 34 32 32 32 30 29 28 26 26 26 27
80 91 92 85 98 77 94 98 84 70 79 96 84 79 44 39 43 58 60 60 68 74 76 74 69 64 61 55 49 47 42 37 34 32 31 31 31 28 27 26 26 26 27 28
68 97 95 77 60 70 93 83 80 80 73 96 98 71 44 44 46 49 56 58 65 69 73 74 69 66 59 52 49 45 42 37 34 32 32 32 30 28 28 28 28 28 29 30
91 99 98 86 86 82 98 77 90 66 76 74 98 73 47 51 52 54 58 63 65 71 75 74 70 64 58 53 48 44 41 37 36 34 34 33 31 30 30 30 30 30 31 33
86 97 93 94 98 86 87 81 70 86 96 74 89 73 55 50 50 62 63 64 66 70 71 72 68 64 58 50 45 44 41 35 36 36 35 34 32 31 32 33 33 33 34 35
92 100 99 94 89 95 83 76 80 99 83 97 73 64 64 45 47 58 59 63 66 70 72 70 68 65 60 53 48 42 37 36 36 36 37 36 34 33 34 34 34 35 38 38
88 100 100 98 89 94 96 88 80 93 90 96 92 60 39 50 55 68 65 62 64 67 68 66 65 65 59 53 46 38 37 38 37 39 39 37 34 33 35 34 36 36 38 38
92 99 99 99 84 88 99 89 95 91 87 90 75 50 52 52 48 66 67 57 60 63 65 65 65 62 56 52 40 38 36 38 38 39 36 34 33 32 34 33 34 36 38 42
78 82 90 92 89 84 49 55 63 70 60 57 55 49 50 52 69 68 69 61 60 60 63 63 62 63 57 47 40 36 35 36 38 37 33 33 33 31 33 34 36 37 39 44
66 82 92 98 94 66 50 48 61 70 66 58 60 56 62 65 63 69 78 70 69 64 64 62 62 59 50 42 35 33 36 37 36 33 32 29 29 31 34 35 37 38 44 50
73 72 88 97 92 80 57 49 48 51 68 61 56 61 63 61 62 69 88 81 79 76 71 65 56 49 42 36 32 33 36 35 33 32 31 31 33 33 34 37 38 44 51 54
90 92 93 92 98 83 64 53 53 65 55 64 65 60 61 59 69 81 74 71 66 62 56 50 46 42 38 34 32 35 34 33 32 33 33 33 33 34 35 40 49 53 55 55
87 91 95 95 98 89 60 48 56 52 77 78 80 80 85 84 79 76 72 69 63 58 51 45 43 41 37 35 32 32 33 35 35 35 35 35 36 32 38 50 54 54 56 56
93 82 93 82 81 66 71 69 70 63 70 77 82 79 77 78 78 74 73 66 58 53 49 44 43 40 39 35 31 34 37 37 36 36 36 36 37 44 47 50 55 56 57 59
86 77 85 78 73 77 66 67 67 67 73 76 74 73 70 77 74 74 69 62 54 51 48 44 41 39 39 36 35 36 38 37 36 36 38 44 48 54 54 55 52 58 63 66
82 70 68 72 76 73 71 74 72 75 74 75 75 71 72 70 72 68 68 64 57 52 48 43 40 40 41 39 39 39 38 38 38 40 45 49 53 59 59 56 58 63 64 63
65 67 70 75 57 55 60 70 69 70 75 74 73 76 74 67 69 67 67 64 56 55 52 49 48 42 42 41 42 42 42 41 42 44 49 56 63 64 61 62 65 57 53 53

GFSCGP_sfc_rhum_027.txt.gz
RH
77 90 90 82 88 88 91 91 90 84 66 75 77 73 66 60 56 53 62 56 49 50 45 50 54 61 76 76 74 69 84 67 59 58 57 57 49 42 38 36 33 34 40 42
88 90 77 68 72 80 91 96 86 77 65 68 71 70 56 51 50 56 52 53 49 51 54 53 59 79 83 84 88 92 77 70 64 60 61 57 52 44 36 36 33 37 38 38
90 71 61 70 78 85 87 88 69 71 61 65 74 66 46 39 43 50 52 46 45 48 52 59 72 86 90 91 94 91 80 72 64 55 48 44 38 37 37 35 41 39 37 39
87 71 71 74 79 80 89 74 76 80 88 89 79 83 56 52 47 46 49 50 49 52 50 54 84 90 92 92 92 82 72 64 55 51 47 43 43 44 51 48 42 39 36 36
91 95 83 79 73 67 74 64 78 80 88 92 78 96 72 54 50 49 63 53 53 52 54 66 81 84 88 89 87 79 69 65 63 57 50 51 56 53 54 44 38 35 36 35
79 72 76 76 61 63 66 70 74 81 92 98 70 81 60 42 44 59 57 55 53 50 54 69 86 82 84 83 81 76 70 72 66 61 58 52 51 47 44 47 45 41 40 40
98 95 85 72 76 64 69 90 98 98 97 86 60 72 58 43 54 59 53 51 52 57 67 84 82 80 77 76 75 72 67 68 63 59 56 52 47 42 43 44 43 37 35 37
98 99 95 87 73 79 86 88 95 91 92 87 51 74 51 40 33 30 29 39 52 61 72 76 77 75 72 69 68 66 63 59 54 50 48 43 41 43 42 39 38 34 34 34
98 96 87 84 67 74 98 98 73 87 71 88 84 71 60 38 57 59 52 53 62 66 74 77 74 69 66 63 62 59 56 51 46 42 40 40 39 38 36 33 33 35 32 26
83 96 79 80 68 76 83 68 95 99 97 93 63 72 74 58 41 31 45 57 63 69 75 76 70 65 61 59 56 51 46 44 40 38 35 35 34 32 32 31 29 29 28 29
72 88 88 89 94 88 93 96 90 78 86 93 78 51 32 44 38 40 60 69 72 76 78 75 67 63 59 56 50 47 41 38 36 34 34 32 32 30 28 28 28 28 29 30
73 93 97 75 71 59 64 72 78 83 90 78 74 66 50 55 50 52 68 74 81 80 76 71 68 63 56 54 49 44 39 35 34 33 32 33 32 29 29 29 29 30 30 33
80 99 97 95 85 81 100 94 84 72 73 83 86 55 54 42 62 62 75 76 84 83 80 74 68 61 57 53 48 42 38 35 35 33 33 33 32 31 31 31 32 32 34 36
76 99 96 90 85 98 98 93 93 96 96 77 70 51 37 33 51 70 73 80 85 83 78 74 69 63 58 51 46 42 40 35 36 35 35 34 34 33 34 35 35 36 37 39
90 100 98 92 80 79 98 97 90 98 79 87 58 55 45 46 64 67 70 77 82 82 81 75 70 66 59 52 47 40 38 38 36 36 38 38 36 36 38 37 37 38 40 39
93 100 100 96 84 94 95 95 86 80 76 78 76 75 46 62 58 68 71 72 77 80 78 74 68 63 56 50 44 38 39 40 37 40 42 40 38 37 38 37 37 38 39 41
97 99 100 93 95 94 99 93 95 82 72 80 97 78 64 55 54 65 69 66 72 75 76 73 69 61 55 48 40 39 38 40 40 41 40 38 37 36 37 35 36 37 40 46
96 99 99 99 99 98 86 85 81 91 85 83 83 77 70 53 66 67 67 65 69 71 72 70 68 63 56 46 40 38 39 40 42 41 38 37 36 35 35 35 36 39 43 46
78 82 97 99 98 72 52 69 93 96 92 82 86 75 61 68 64 70 76 71 75 70 68 69 66 61 49 42 37 37 40 42 40 38 36 33 32 34 35 37 39 40 47 53
81 82 92 94 100 86 64 56 50 66 71 59 71 64 66 63 54 59 87 83 81 76 71 71 60 52 45 40 35 36 39 38 37 35 34 34 36 35 36 38 42 48 54 54
96 95 96 92 95 85 68 62 55 64 58 66 65 62 67 59 76 86 76 73 74 71 65 57 52 48 41 36 34 38 37 37 36 36 35 36 37 37 39 47 52 54 57 56
91 90 87 95 97 85 62 51 56 54 78 82 82 78 89 85 79 75 70 67 64 62 55 48 45 42 38 36 34 37 37 38 37 38 39 38 39 38 45 52 56 55 58 61
91 82 90 86 82 68 75 73 75 68 72 83 88 86 78 80 78 71 67 60 57 53 50 44 41 40 39 37 32 36 40 40 40 39 39 41 47 48 50 53 56 58 64 68
88 83 89 82 76 78 75 75 72 73 80 85 83 81 74 79 73 66 60 56 54 50 46 41 39 38 40 38 38 37 41 40 38 40 46 50 56 58 58 56 53 63 71 74
85 82 81 80 71 74 75 73 74 78 76 76 76 74 74 71 70 64 61 57 53 49 46 42 40 40 43 40 42 42 41 39 39 46 47 56 59 63 61 58 63 70 68 68
70 77 77 78 61 56 61 71 75 75 76 74 73 74 72 67 68 63 61 55 52 51 47 45 46 44 45 43 45 45 42 41 44 47 51 64 66 67 64 67 67 56 54 55

GFSCGP_sfc_rhum_030.txt.gz
RH
78 90 94 88 81 68 78 94 89 75 67 78 76 70 59 52 61 66 62 57 62 58 47 48 47 56 64 70 73 88 92 77 65 63 61 58 56 46 41 37 35 34 35 41
90 94 78 71 77 86 85 87 77 71 66 73 73 68 57 53 53 53 59 57 58 57 56 51 55 68 77 76 80 90 84 74 68 64 63 60 50 44 37 37 34 33 34 40
92 76 66 74 83 87 90 93 86 79 64 64 72 68 46 36 39 41 40 42 48 55 55 55 60 73 87 88 91 90 83 77 68 57 48 42 38 34 36 34 36 36 38 40
94 74 73 81 84 83 90 76 76 80 89 93 83 85 59 50 43 43 40 45 54 54 58 54 60 83 90 91 95 91 80 71 59 52 49 44 44 38 38 36 35 34 38 39
88 93 93 90 77 75 80 71 80 84 96 98 89 94 73 54 50 46 53 60 55 51 54 54 63 67 90 95 96 89 76 68 64 55 48 50 49 41 37 34 32 37 38 37
76 77 77 80 67 63 67 75 78 92 96 96 70 83 61 46 39 36 51 52 53 56 62 56 68 91 94 96 92 80 71 73 65 59 53 46 39 34 35 36 39 42 43 43
92 92 77 72 84 71 82 99 98 98 98 89 67 80 57 41 38 44 45 54 61 62 65 85 92 92 94 94 88 79 71 73 64 51 48 41 36 37 35 39 39 38 38 40
97 92 87 79 74 82 82 89 96 93 87 88 62 78 51 42 36 32 32 39 53 62 76 84 86 87 89 89 82 76 72 69 57 51 50 45 40 43 43 41 38 37 37 36
99 94 89 84 76 66 98 98 74 97 96 95 84 71 54 48 46 50 53 40 37 55 81 86 88 86 86 83 78 73 67 61 54 49 44 43 41 40 39 35 36 37 35 29
83 96 82 83 85 76 82 80 97 99 97 94 79 72 57 47 31 31 39 34 56 69 85 88 88 84 79 75 70 62 55 51 45 42 39 37 36 34 34 33 33 31 31 32
77 92 90 88 97 85 96 97 99 90 96 94 74 53 36 30 28 44 52 40 52 77 83 87 82 74 68 63 60 53 47 42 39 37 34 33 33 30 29 29 31 31 33 34
72 96 97 77 64 62 69 78 79 86 89 88 86 56 36 51 58 60 63 66 82 82 89 81 73 67 62 58 52 47 41 38 36 34 32 32 30 30 30 31 32 32 35 37
78 98 98 90 85 69 99 86 72 70 66 84 90 56 33 33 37 64 79 91 93 90 84 76 68 64 59 53 47 42 38 36 35 32 32 32 33 32 33 34 35 35 37 39
71 95 89 86 74 99 99 88 96 98 97 80 88 60 46 41 40 52 83 92 95 91 83 75 67 62 56 48 43 39 37 34 34 33 33 34 35 35 36 38 38 39 39 40
83 100 97 91 80 90 99 98 96 99 89 97 65 62 49 41 50 71 79 94 95 88 81 73 68 62 55 48 42 38 37 36 34 34 37 40 39 40 41 41 41 41 40 40
90 99 100 97 86 97 97 94 97 96 92 96 78 77 60 63 69 68 88 92 93 88 76 70 64 58 53 46 41 37 38 38 36 38 42 42 42 41 43 41 41 40 41 43
97 100 100 90 90 98 99 97 95 94 92 87 97 69 56 76 78 66 84 81 84 81 76 70 63 56 51 45 38 39 39 40 40 41 41 41 41 40 41 38 37 39 41 47
96 99 100 98 99 98 89 90 87 90 80 70 68 64 69 72 68 70 71 74 81 79 74 71 63 58 51 43 41 41 39 42 43 43 40 41 41 39 38 36 37 39 45 51
83 96 99 99 96 89 69 90 90 96 87 77 72 70 67 77 73 78 78 74 77 75 72 70 62 55 46 42 40 40 43 44 42 40 40 37 37 37 36 36 39 47 52 55
78 81 98 99 98 96 61 61 73 78 70 78 76 74 79 79 87 73 82 80 76 74 74 71 60 50 44 41 38 40 43 41 40 39 37 36 37 35 37 42 49 53 58 55
97 98 99 92 94 83 66 65 60 65 63 64 78 80 82 82 79 86 78 80 80 76 70 60 54 49 43 39 37 41 40 40 40 37 38 38 38 40 46 53 56 57 57 58
89 95 90 88 96 82 64 60 66 58 75 79 81 77 77 81 76 74 73 74 71 70 61 52 48 44 40 38 36 39 40 42 39 40 40 41 45 43 48 56 57 55 63 67
93 84 86 86 86 67 77 75 74 71 75 84 86 88 79 80 77 70 67 62 59 55 52 47 44 43 42 40 35 38 44 40 40 41 43 49 51 52 53 53 56 61 70 74
88 85 90 84 76 77 75 76 80 79 88 89 84 81 76 75 68 66 62 59 54 51 48 44 42 41 42 39 38 40 40 39 39 45 52 59 63 59 60 56 54 68 75 77
86 85 83 84 77 76 72 80 85 85 80 79 77 72 69 65 65 61 59 55 50 48 45 42 41 42 43 40 41 41 40 39 44 50 55 61 62 64 63 61 66 71 75 74
80 79 82 79 67 63 68 78 78 80 80 76 74 74 71 62 62 57 56 51 48 47 45 45 43 43 44 42 44 45 43 45 49 52 60 70 65 70 66 70 70 57 56 55

GFSCGP_sfc_rhum_033.txt.gz
RH
73 85 92 81 79 70 78 86 78 66 58 69 64 64 56 48 48 49 46 44 44 49 42 40 41 38 40 45 53 58 76 82 73 68 65 64 70 61 46 42 37 37 37 36
86 90 72 71 80 83 78 83 69 56 53 65 66 66 51 48 46 43 41 41 43 39 44 46 43 43 45 47 56 69 78 74 68 65 64 62 71 55 46 40 36 35 37 36
89 70 66 72 79 83 84 88 81 78 63 58 62 60 38 32 34 36 38 38 37 39 43 43 45 46 53 59 65 71 75 70 66 58 54 50 52 48 48 37 38 38 34 35
91 74 73 83 84 78 89 73 72 76 82 85 69 67 38 34 34 32 34 37 37 37 37 40 45 48 56 63 76 74 73 67 59 54 53 52 61 58 52 38 36 35 32 34
82 89 93 83 74 75 75 68 74 77 88 86 76 84 49 46 46 40 34 34 39 39 40 44 46 48 54 73 81 76 71 63 57 53 52 55 66 53 38 33 32 32 33 31
77 72 76 78 71 67 64 76 78 83 88 96 66 80 56 42 36 34 32 30 40 44 43 45 50 52 68 83 85 78 70 63 56 54 50 49 57 34 34 33 33 30 31 30
85 84 74 70 80 73 73 100 96 97 98 84 58 80 58 39 35 36 33 33 31 41 50 56 62 72 81 87 85 75 68 65 56 52 47 40 36 30 30 30 32 31 28 28
96 89 87 76 76 82 86 88 93 93 81 71 62 78 50 41 34 30 30 31 36 46 52 59 64 73 77 86 81 70 67 63 54 49 41 35 32 34 33 31 30 26 26 26
96 85 82 82 77 68 97 98 73 90 80 95 70 55 43 40 43 40 39 42 42 37 44 60 71 75 80 84 77 70 65 59 52 46 39 38 36 36 34 30 28 28 26 25
83 97 77 81 80 77 87 72 96 99 96 88 72 71 53 43 32 25 31 51 49 41 47 62 73 78 80 80 74 66 58 54 47 42 38 36 33 30 29 27 27 26 25 26
73 88 84 90 94 80 91 96 99 89 88 83 66 48 36 32 29 32 55 58 62 56 48 66 79 81 80 72 66 58 51 46 41 37 34 31 29 27 24 24 25 25 26 28
77 87 97 85 67 66 64 72 76 96 82 91 87 63 32 36 42 54 45 66 78 76 75 84 79 73 70 65 57 52 44 39 36 32 29 28 27 25 24 24 25 25 28 29
78 96 97 81 82 72 89 73 71 89 86 94 90 54 32 36 39 40 56 68 84 86 80 74 71 69 64 57 49 42 37 34 31 28 27 26 26 25 25 26 27 28 30 31
68 88 88 82 65 87 99 89 82 98 97 79 88 62 42 40 43 41 50 69 87 84 77 73 68 62 56 48 41 36 34 31 30 28 27 29 28 28 27 29 30 31 31 32
81 100 88 84 75 76 97 96 97 99 89 96 67 87 64 51 47 53 64 71 92 87 77 70 65 57 48 43 37 33 32 30 28 29 31 32 31 32 32 33 34 33 34 35
82 100 100 96 84 82 100 94 97 97 93 97 89 88 54 49 63 66 69 75 89 88 75 67 59 51 46 40 36 34 33 31 30 33 35 35 34 34 36 35 34 36 38 37
97 100 100 91 74 89 99 98 97 97 95 84 97 68 57 56 58 71 66 81 86 88 72 64 56 49 42 37 34 33 32 33 34 35 35 35 34 34 36 33 34 37 37 38
91 100 100 97 97 98 90 87 85 90 94 87 80 73 60 58 64 72 70 75 86 78 69 61 53 48 41 36 34 34 34 36 37 36 35 34 34 34 33 32 34 35 36 38
78 90 99 99 96 75 61 66 82 96 86 76 85 70 59 78 77 71 74 76 78 73 64 58 50 45 39 36 34 36 38 38 36 35 34 32 31 31 31 34 35 37 39 40
84 81 98 95 99 97 70 64 69 74 70 78 75 71 78 78 86 76 81 80 80 72 64 58 48 41 38 37 35 37 38 35 35 34 33 32 31 30 33 37 40 42 41 39
97 95 97 97 99 82 65 67 72 62 66 73 83 77 79 87 83 80 79 82 76 69 61 51 45 42 39 36 35 38 36 36 35 34 33 32 33 35 39 42 42 42 42 43
87 93 98 94 91 90 71 64 65 62 70 73 73 78 88 84 76 75 75 76 71 67 58 49 45 42 38 36 35 37 39 36 34 34 35 38 41 38 43 46 45 45 47 48
94 86 79 77 80 68 76 69 73 77 78 81 83 82 77 77 74 69 67 63 60 56 52 45 43 42 39 36 34 38 38 35 34 35 43 43 43 43 43 44 47 47 52 54
87 86 91 82 71 75 69 73 80 83 88 88 83 79 73 73 68 65 60 57 54 50 47 43 41 40 40 36 36 35 35 34 36 45 49 47 46 48 47 45 45 53 56 58
85 88 85 85 77 75 74 79 82 82 80 76 71 69 68 66 66 60 57 54 50 48 45 42 41 42 40 36 36 35 36 37 41 46 48 50 50 50 49 49 52 56 58 59
86 81 82 77 67 65 66 77 77 78 79 72 68 68 64 61 60 54 52 49 47 46 43 43 42 40 39 37 37 39 42 40 45 52 54 52 51 53 52 55 54 56 53 55

GFSCGP_sfc_rhum_036.txt.gz
RH
58 68 68 51 49 43 51 52 52 44 40 43 44 42 36 32 31 31 29 28 26 26 24 25 26 26 27 26 26 26 30 36 43 50 55 59 64 74 64 56 48 46 40 36
67 75 47 47 50 57 56 58 55 44 39 42 41 39 31 28 28 26 25 22 20 19 19 20 24 25 27 27 27 29 34 40 48 52 53 54 62 75 69 53 42 38 38 34
62 53 51 58 59 65 61 60 53 52 43 40 41 40 27 20 19 21 22 22 21 20 18 17 18 24 26 28 30 34 39 49 52 52 54 58 55 54 52 43 41 36 32 34
62 47 56 61 61 56 60 44 52 52 58 60 49 49 32 25 23 21 19 19 21 22 21 21 20 21 23 28 36 39 46 53 55 58 56 56 59 67 62 46 45 47 43 42
65 67 72 65 58 52 59 50 52 54 59 62 57 84 35 29 30 25 21 19 18 20 21 21 24 24 24 32 42 48 50 55 56 55 53 55 57 52 49 44 37 38 33 29
51 54 56 52 51 51 53 60 61 59 73 91 50 65 39 24 22 22 19 18 17 18 20 22 23 25 27 34 51 54 55 56 55 55 53 56 59 55 46 34 40 42 36 26
65 62 56 56 64 59 63 89 81 87 94 69 33 40 41 23 24 23 20 18 19 18 19 22 29 32 36 39 56 58 55 56 54 54 53 54 53 54 43 33 36 27 28 25
82 77 63 65 67 62 78 76 75 73 44 39 42 53 29 21 21 20 20 21 22 21 22 23 28 36 39 45 54 57 55 55 53 52 51 49 47 35 33 33 31 28 25 23
84 79 58 59 56 56 82 97 59 82 66 76 46 29 23 20 22 22 22 21 26 27 24 27 25 33 40 47 54 55 54 53 52 50 42 36 33 33 34 32 33 27 22 20
66 92 56 64 64 63 66 52 88 95 81 64 38 34 32 25 24 22 21 24 28 30 28 30 29 32 40 46 54 54 51 51 48 43 37 34 34 35 33 32 28 24 19 20
63 72 68 74 84 68 82 93 94 63 61 71 49 32 20 22 20 20 19 27 29 36 37 39 34 37 47 52 58 55 51 49 45 40 36 32 31 31 34 26 24 20 20 20
55 72 85 62 42 43 43 54 59 89 71 79 73 57 26 22 20 28 28 25 30 41 50 52 47 50 58 61 58 54 48 44 41 37 32 30 28 26 23 22 20 18 20 20
57 86 86 53 70 56 78 57 52 67 76 95 93 57 34 27 27 26 26 26 29 46 56 59 58 57 57 58 54 49 43 39 35 31 28 27 26 24 21 20 20 19 20 21
59 66 70 60 60 68 100 78 75 96 98 74 77 58 39 41 37 30 30 29 38 53 62 59 59 57 55 54 50 42 36 32 30 28 27 27 24 22 21 21 21 21 21 22
64 98 72 66 58 63 82 88 94 100 93 95 61 63 60 48 52 40 36 43 51 62 65 62 59 56 55 49 40 35 32 29 27 29 29 28 24 23 23 24 23 23 24 25
70 96 100 98 69 75 100 91 97 97 96 98 90 85 47 41 40 40 37 42 58 71 66 60 56 54 50 41 36 34 31 29 29 34 34 29 26 26 27 26 25 28 29 28
78 98 100 94 76 78 96 97 95 95 92 85 97 62 43 47 50 51 63 66 64 71 67 58 53 51 43 37 34 33 30 30 31 33 28 27 26 26 27 25 26 30 30 29
83 99 100 98 92 95 69 64 73 85 78 82 62 53 53 63 62 62 65 68 64 72 63 54 51 45 39 34 31 30 29 31 30 29 27 26 26 26 25 24 27 28 28 29
60 79 99 99 92 68 53 52 61 92 93 79 78 68 66 62 62 69 71 69 71 63 54 48 46 42 35 30 28 28 28 29 29 28 27 25 24 24 24 27 28 28 29 29
72 81 98 100 97 80 50 49 56 71 95 92 90 81 78 74 66 66 71 79 70 55 49 45 38 34 30 28 27 29 29 29 30 28 26 23 22 22 24 29 31 31 28 28
97 97 96 97 98 66 44 51 56 54 63 63 83 80 77 80 71 71 68 68 76 57 47 39 35 33 31 28 28 31 30 30 28 25 23 23 23 26 29 31 30 31 29 29
72 81 96 97 89 82 52 48 56 52 54 55 58 72 90 73 71 72 72 70 59 53 46 40 39 36 32 30 29 30 31 28 27 26 26 29 30 30 34 39 37 34 32 30
70 58 60 60 54 49 53 54 52 58 60 61 65 65 78 75 77 69 64 58 55 52 46 38 36 34 30 29 30 32 31 29 28 31 33 31 32 33 35 37 39 33 32 30
61 60 63 64 49 52 49 52 60 62 66 67 66 62 60 64 61 60 56 53 49 45 42 37 35 34 33 31 32 31 30 29 30 30 32 32 33 34 34 32 34 34 32 33
53 64 64 63 51 48 54 58 61 65 61 59 56 56 59 59 59 55 54 51 47 44 40 36 35 35 33 30 30 29 29 28 30 33 35 35 35 34 34 34 35 34 36 44
58 54 57 52 49 50 50 61 62 63 63 58 58 60 55 54 54 50 49 45 43 41 39 38 36 34 31 28 29 29 28 29 30 33 33 35 34 35 33 33 32 48 50 53

GFSCGP_sfc_rhum_039.txt.gz
RH
49 55 56 42 39 36 34 41 38 31 29 36 36 33 28 24 24 26 25 25 23 22 20 20 21 21 20 19 21 22 23 24 27 33 40 46 50 83 85 76 61 57 49 44
66 71 41 36 38 42 46 47 43 35 31 35 35 34 27 24 23 22 21 22 22 20 18 18 19 21 22 22 23 23 23 25 29 35 42 46 70 87 85 71 60 54 47 40
60 45 41 43 48 53 50 49 43 42 35 32 34 35 25 19 19 19 19 19 18 18 17 15 15 17 22 23 24 25 25 28 34 39 44 52 66 66 64 62 67 56 47 37
49 38 46 47 52 46 54 36 39 43 50 50 39 48 30 21 19 18 17 17 17 18 17 17 16 15 16 22 30 30 29 32 40 46 51 59 67 68 66 69 65 56 42 37
58 54 52 55 48 40 48 45 47 48 54 58 50 61 35 19 22 22 19 18 16 16 16 16 17 20 20 22 33 35 33 36 45 50 52 60 58 59 56 59 54 50 46 42
46 42 47 46 43 42 47 50 56 57 66 87 45 44 33 20 14 14 15 16 16 15 15 16 17 18 21 27 34 42 39 43 48 54 54 56 58 57 55 54 53 54 47 41
60 53 46 44 55 50 53 74 79 86 90 67 26 32 30 20 18 17 18 16 16 15 16 16 16 19 23 29 33 42 45 48 52 55 52 52 58 54 55 50 56 53 40 39
77 77 52 54 61 57 60 67 72 66 38 35 28 42 26 16 15 16 17 17 16 18 16 21 22 22 28 31 33 41 46 49 50 52 52 52 54 52 55 49 45 34 37 33
71 72 46 51 48 49 65 89 53 72 55 64 38 25 20 18 17 16 16 17 20 17 20 22 22 24 22 31 34 44 48 48 50 52 52 54 50 50 48 44 32 31 28 26
63 82 48 51 50 51 55 46 81 93 85 63 33 28 26 21 19 17 17 17 18 22 22 25 27 30 22 29 36 43 44 48 49 51 50 50 42 41 36 32 33 34 26 24
56 64 64 59 72 61 68 78 68 54 60 65 50 34 22 28 27 23 18 16 20 22 27 30 34 35 27 30 41 44 46 49 50 47 41 39 36 34 31 34 32 29 29 24
52 68 82 54 39 37 42 57 58 87 60 63 78 60 28 29 26 26 26 24 21 22 24 38 43 40 36 41 48 49 49 48 47 40 37 37 33 32 31 29 28 30 25 24
52 79 82 63 57 42 60 49 47 57 80 97 94 57 30 28 30 34 35 30 22 24 27 43 46 47 47 52 53 50 48 45 41 38 34 33 33 32 30 31 31 26 21 21
54 61 68 60 67 57 93 60 58 96 98 71 70 56 43 39 42 53 40 36 33 29 38 49 52 48 49 53 51 48 44 40 39 34 31 30 29 27 26 25 25 24 22 23
56 82 61 55 50 54 67 71 73 99 96 99 79 80 61 52 45 50 51 44 38 35 44 54 56 51 51 51 48 41 39 37 33 31 29 29 27 26 27 26 25 24 24 24
68 88 98 92 62 61 87 66 74 96 96 98 95 94 58 43 41 44 43 40 36 47 59 57 55 53 55 46 42 38 34 30 30 30 33 31 30 28 30 28 27 29 31 27
73 96 96 85 61 62 88 89 91 89 80 88 94 60 44 48 51 64 70 71 64 61 67 60 56 54 44 39 36 33 30 33 34 36 34 31 31 32 30 28 30 33 30 29
72 88 96 98 73 92 56 46 53 70 81 82 67 60 58 64 67 76 73 74 66 65 64 56 52 46 39 36 32 32 36 39 36 34 32 31 32 30 28 29 29 28 28 30
55 71 99 92 75 56 46 47 54 70 90 84 91 80 70 64 71 88 84 76 71 61 53 48 42 38 37 36 38 36 36 37 38 36 37 33 27 26 26 29 28 28 30 29
53 59 98 78 94 71 42 40 47 69 74 79 89 80 78 73 81 95 95 78 57 51 50 48 42 39 44 52 43 50 54 51 49 36 26 24 24 25 27 31 33 30 28 28
90 99 98 96 95 62 38 42 46 59 58 54 84 86 76 73 70 73 89 85 71 63 69 63 62 62 63 59 53 44 36 30 26 25 24 24 26 29 31 32 31 31 29 29
69 83 97 98 99 87 43 43 56 52 49 48 66 82 76 70 74 74 69 76 64 47 40 35 34 32 29 27 28 30 31 28 26 27 28 30 30 29 36 45 42 36 32 31
63 48 83 75 61 39 39 47 44 51 54 55 59 87 87 88 74 75 82 73 65 50 44 40 38 37 34 33 34 34 30 28 30 32 32 32 34 36 40 44 45 37 31 29
49 46 56 57 46 42 40 41 50 53 57 57 59 58 64 66 63 59 56 56 51 46 40 35 33 33 34 31 31 31 32 32 31 32 32 33 34 33 33 34 38 36 30 29
48 53 50 52 44 41 47 52 53 56 53 53 52 53 56 58 59 56 52 49 44 41 38 35 34 35 34 32 31 31 31 29 31 32 35 36 35 33 34 33 33 31 32 42
45 48 46 45 46 47 49 52 56 56 56 54 55 57 54 54 55 51 49 44 42 40 38 38 37 36 32 31 31 31 30 32 32 33 33 34 34 34 33 31 29 50 46 46

GFSCGP_sfc_rhum_042.txt.gz
RH
61 76 84 71 62 56 46 47 48 41 32 40 44 40 35 31 30 30 30 30 30 29 28 27 27 29 29 26 28 29 36 34 32 45 56 61 63 82 77 81 69 77 67 66
67 75 49 42 40 46 47 53 55 44 35 38 42 42 35 30 28 27 27 28 28 28 27 24 26 30 30 30 30 30 34 37 34 35 51 62 95 92 92 90 82 74 76 67
68 52 42 49 49 53 57 60 57 51 42 40 43 46 38 28 27 25 24 23 23 24 24 24 23 24 30 28 30 31 33 36 39 46 67 82 80 81 82 82 83 72 70 68
62 46 42 52 53 51 64 45 44 47 58 72 50 77 44 32 29 25 26 27 26 25 23 21 21 22 24 24 28 31 35 37 44 51 65 79 84 91 90 85 82 73 69 64
67 55 57 57 49 44 53 49 52 55 65 72 64 80 54 32 30 26 26 26 25 25 25 25 25 23 25 27 40 35 34 42 47 47 62 80 83 82 82 70 62 69 66 56
52 43 51 51 43 43 48 54 61 65 76 95 67 66 64 33 28 23 23 26 22 22 25 24 24 26 30 34 37 48 50 48 60 65 72 76 76 76 77 67 69 69 62 58
65 59 48 48 57 51 53 70 97 98 95 92 38 58 46 25 22 22 23 26 24 24 24 27 26 28 32 32 42 43 57 55 68 74 79 71 72 69 73 68 70 57 55 50
80 80 57 52 61 63 61 72 96 89 83 76 45 60 40 25 21 22 22 23 23 24 25 28 34 33 37 38 42 43 61 64 73 75 74 70 63 66 65 61 58 56 47 49
72 77 49 53 50 56 70 89 66 83 73 91 59 35 26 21 21 21 24 23 26 26 26 33 34 37 42 41 45 45 64 66 75 74 72 70 63 62 60 60 56 56 49 37
68 84 55 53 48 51 57 52 87 96 98 88 55 47 38 35 38 34 30 27 25 28 31 33 43 47 47 43 46 48 62 68 72 71 69 64 64 60 55 51 47 36 31 29
56 75 71 64 78 76 71 76 69 68 78 94 83 55 40 40 44 40 36 29 30 31 33 36 51 51 54 47 51 58 66 64 70 70 61 52 45 44 43 39 33 29 33 29
51 75 90 73 50 52 55 64 67 85 79 81 94 70 33 37 36 38 38 32 32 30 32 37 57 58 59 53 61 64 60 60 54 50 46 48 41 35 35 36 34 30 31 34
57 83 95 70 68 52 70 57 57 65 80 92 94 68 35 38 36 36 47 43 38 35 38 54 61 63 63 61 68 64 59 50 45 45 43 41 39 41 42 32 34 30 29 27
58 69 84 93 79 78 88 69 59 80 98 80 78 66 52 52 58 58 56 49 50 42 45 54 68 69 64 70 74 57 52 44 45 42 40 39 40 39 31 30 30 29 27 28
63 89 73 69 59 61 70 72 69 100 96 99 85 88 77 78 72 62 48 55 56 52 47 59 71 72 62 68 57 49 47 43 39 40 39 37 33 30 30 31 30 34 32 30
64 98 97 92 66 70 82 71 72 74 77 92 96 95 64 55 50 65 82 69 68 63 69 67 67 71 62 50 47 47 46 45 37 34 36 32 30 30 31 31 32 35 34 33
77 95 97 86 74 79 90 77 76 87 84 84 99 77 60 63 66 82 89 86 83 75 75 69 64 49 44 42 40 38 37 36 36 36 36 36 38 39 40 41 44 48 36 38
79 94 97 95 91 97 69 64 61 67 64 84 83 76 79 76 89 91 90 92 86 70 65 60 53 44 40 37 35 34 36 37 37 40 37 35 36 37 36 38 36 37 35 37
64 87 98 97 89 64 54 58 64 70 81 78 86 80 81 73 93 91 86 65 62 59 54 48 41 39 35 36 38 38 38 38 42 41 45 43 37 37 40 44 37 38 37 38
62 68 97 97 98 88 56 56 59 76 93 76 88 86 89 75 93 97 90 62 56 46 41 42 39 41 42 41 42 50 53 58 67 65 70 71 75 77 55 40 39 38 36 33
97 99 99 97 96 77 51 54 60 84 85 74 84 88 79 92 93 96 85 86 78 68 58 58 66 79 78 79 78 81 80 87 81 81 79 60 42 39 36 39 39 37 35 36
88 96 97 87 95 94 55 56 76 72 69 66 84 89 85 84 77 87 85 84 92 91 90 86 87 91 92 91 86 92 96 88 64 40 37 37 37 36 44 52 49 42 42 42
72 65 84 81 78 56 52 62 64 65 71 75 80 93 88 88 88 81 79 70 49 42 42 46 54 54 43 38 33 33 33 34 35 36 40 41 43 46 53 58 55 47 41 40
65 60 74 74 60 56 59 59 62 65 67 67 70 88 77 84 79 78 77 79 75 70 62 52 48 44 40 33 33 34 35 34 35 38 41 44 46 45 44 46 51 46 46 48
69 69 69 68 59 60 64 66 65 62 59 61 62 69 70 69 68 61 57 53 48 46 42 38 38 38 37 35 35 33 34 34 40 44 47 47 46 47 48 47 49 48 63 58
65 68 70 66 60 62 68 67 63 62 63 62 66 67 65 62 61 56 54 48 45 43 41 40 38 37 35 34 36 37 38 40 42 47 51 52 53 51 48 45 47 47 42 42

GFSCGP_sfc_rhum_045.txt.gz
RH
90 92 98 90 83 72 66 64 63 51 41 47 50 53 47 40 41 37 35 40 34 33 32 34 33 32 31 31 34 38 45 58 58 67 72 69 73 76 73 70 60 78 74 68
70 78 66 64 66 71 70 64 66 53 42 46 47 45 38 36 34 33 32 36 34 30 34 33 32 34 36 34 36 35 44 42 48 54 62 80 92 96 92 86 76 77 75 72
82 60 51 58 61 56 68 78 71 66 52 50 54 54 46 39 35 31 29 28 28 31 32 32 33 32 33 37 38 36 37 45 42 45 82 92 94 96 96 93 86 82 74 71
67 55 50 62 63 58 75 54 56 57 68 80 61 89 68 42 34 32 36 34 29 29 29 30 29 31 31 31 38 38 38 41 46 62 71 85 88 93 97 95 90 85 77 77
75 63 61 62 60 52 64 55 58 63 77 83 80 86 70 52 37 32 30 32 34 31 28 27 27 25 26 28 31 40 39 42 48 49 60 72 88 96 96 93 84 85 81 67
60 52 56 61 49 51 52 59 65 73 83 97 78 76 64 44 32 32 29 28 27 28 27 28 29 31 32 34 36 44 46 46 49 53 74 73 93 94 90 88 88 86 82 73
71 68 56 53 64 58 63 76 96 92 96 94 61 77 65 38 30 26 26 25 27 25 27 26 28 32 39 40 37 42 47 51 59 70 83 85 86 87 86 85 87 79 72 70
91 91 67 58 67 72 71 75 94 94 93 86 59 80 51 33 28 28 25 26 26 26 28 27 34 40 47 48 48 46 46 55 74 90 85 80 81 88 86 84 82 78 66 62
88 83 54 52 55 61 77 89 68 84 87 96 75 50 35 30 40 36 32 31 34 29 29 33 48 53 55 55 54 54 51 68 89 87 82 77 83 85 84 83 78 72 57 52
73 84 64 58 52 57 63 62 88 94 97 95 78 63 44 42 43 41 42 40 36 34 38 44 55 54 55 58 62 60 56 73 91 89 77 73 81 79 75 71 66 55 43 36
60 76 79 65 77 78 77 84 69 76 90 97 96 72 42 44 48 44 45 43 41 33 31 38 60 61 61 62 65 60 66 85 92 79 76 76 75 69 64 62 51 40 34 35
57 79 92 83 62 60 66 72 70 94 81 92 94 76 37 40 44 40 43 46 46 42 40 59 64 64 64 67 69 71 85 89 72 64 61 58 58 54 50 48 38 32 33 33
58 86 97 76 74 63 81 69 66 72 87 93 95 71 41 43 41 45 62 64 56 48 44 59 70 70 69 74 85 86 67 57 58 52 46 44 42 40 39 36 33 33 34 34
57 77 84 90 84 82 89 73 69 80 98 83 82 64 51 48 56 64 69 63 58 53 51 55 73 69 66 85 77 62 56 48 49 46 43 46 44 39 37 34 34 34 33 36
68 89 82 80 74 74 79 80 78 86 80 98 68 72 65 63 72 70 74 72 81 74 71 59 73 75 80 71 62 53 49 50 50 51 46 47 43 43 37 34 36 37 41 47
73 90 97 94 72 75 87 77 77 78 78 90 88 93 63 62 65 65 86 84 77 77 77 74 72 74 65 53 48 42 52 49 44 49 44 42 39 36 37 37 37 38 40 39
77 89 98 95 76 85 94 82 76 75 82 87 97 76 71 76 78 93 93 86 87 83 74 78 59 55 50 42 42 48 38 39 40 38 35 35 36 42 49 51 51 61 67 70
86 83 97 98 90 96 70 60 64 72 76 79 78 75 75 80 92 90 74 70 66 79 65 50 45 43 38 38 38 37 38 38 40 42 42 44 50 56 55 58 64 66 62 58
75 88 96 100 97 71 65 67 67 75 77 84 87 79 79 75 93 95 70 55 52 46 43 40 38 40 41 40 39 41 41 46 55 55 64 68 66 71 73 78 84 89 88 64
77 81 95 99 100 93 72 59 64 72 89 78 88 86 85 78 93 97 84 63 49 44 43 45 43 43 43 48 52 58 64 69 69 72 80 74 75 80 84 78 58 46 39 36
95 98 98 97 97 84 60 54 73 86 77 79 85 90 82 93 95 93 82 81 69 66 70 62 71 72 70 70 70 82 87 93 90 88 92 91 88 90 84 67 46 40 40 38
95 96 99 98 98 92 55 65 79 72 79 76 88 86 85 88 86 83 85 90 88 82 81 80 86 96 96 92 86 93 97 95 96 92 90 84 70 51 48 52 49 43 42 42
85 80 89 78 76 56 67 72 73 72 74 83 84 86 85 85 81 69 73 64 82 89 95 93 97 99 99 97 90 95 98 92 72 52 48 48 46 48 56 58 56 48 42 44
65 62 77 85 68 70 68 74 72 70 74 72 85 88 86 90 81 74 67 63 58 61 54 52 49 52 45 35 35 42 41 41 41 42 44 48 50 50 50 50 52 52 53 55
74 67 71 76 65 71 75 78 72 67 65 67 74 82 87 82 85 80 74 66 60 54 44 41 39 40 40 36 36 36 37 37 40 46 51 52 52 53 54 52 55 65 66 59
73 73 79 78 61 67 74 76 67 67 70 67 70 74 73 65 63 59 56 52 44 44 41 41 40 39 37 37 39 39 40 41 45 50 55 57 56 54 51 50 48 48 47 45

GFSCGP_sfc_rhum_048.txt.gz
RH
86 93 95 90 75 65 59 76 73 57 46 50 52 55 48 43 47 46 40 41 40 38 33 38 37 36 35 34 35 43 62 64 71 85 89 91 91 88 85 70 61 78 76 74
92 91 74 77 76 80 83 72 75 58 50 51 53 51 41 37 37 36 34 32 32 35 34 36 37 38 38 36 37 36 48 55 64 69 76 84 89 94 89 89 73 75 76 76
83 63 56 63 71 75 70 78 76 69 57 55 59 44 42 40 38 34 30 31 31 32 31 30 37 37 37 39 39 39 40 52 63 62 86 98 98 98 99 97 95 83 81 86
70 58 58 67 67 60 76 59 58 62 68 81 64 76 70 50 44 38 36 40 38 35 34 32 33 36 35 34 36 39 42 44 53 63 86 80 80 93 96 90 96 96 87 89
75 68 63 66 65 55 66 57 60 68 81 84 81 85 64 53 44 34 32 29 33 38 37 35 35 33 32 33 36 38 41 46 48 60 68 83 81 84 98 98 96 96 95 90
65 54 59 59 53 53 55 60 72 81 86 95 80 82 66 47 39 36 30 28 26 29 34 33 33 33 34 36 39 40 41 42 50 58 70 76 94 97 98 98 97 95 93 92
69 68 58 55 66 62 63 78 96 94 97 88 71 87 70 49 39 36 34 33 31 31 30 28 31 34 40 45 45 43 44 44 48 60 74 74 92 93 94 94 94 93 87 83
89 89 66 59 67 73 76 76 91 84 96 90 67 80 52 45 38 32 31 38 38 37 34 30 34 43 50 55 54 52 52 51 51 60 88 90 88 90 92 90 90 87 83 82
89 81 59 59 58 61 78 88 71 88 88 97 79 61 35 42 45 43 44 44 46 43 40 39 46 54 54 55 53 56 58 58 60 72 95 96 94 94 93 94 88 86 84 70
74 90 63 60 55 61 64 65 91 95 89 90 76 74 49 39 46 49 49 48 48 47 43 42 47 57 56 57 59 66 65 62 64 93 95 93 95 94 92 90 91 81 76 54
68 80 83 65 79 82 80 88 80 81 85 95 96 66 49 45 50 56 53 53 56 60 52 46 43 60 65 65 66 71 73 70 96 93 92 94 94 93 91 90 83 70 53 46
64 81 96 87 68 64 70 75 74 92 79 95 95 79 44 50 48 46 38 54 64 63 61 50 57 64 68 69 74 87 86 94 94 88 89 90 88 86 86 78 68 52 52 48
64 83 93 82 75 73 86 74 72 75 89 96 94 76 45 47 40 38 50 62 75 68 62 59 60 69 68 71 89 88 84 83 78 74 77 81 80 81 76 69 50 45 40 36
61 81 80 89 78 83 88 82 77 83 99 92 88 66 50 48 47 54 60 59 84 70 68 78 68 59 70 87 79 74 73 81 69 75 75 71 62 48 43 39 37 36 36 42
66 88 88 84 78 80 80 80 79 90 76 94 67 70 61 59 58 64 73 78 83 79 72 78 79 82 87 76 73 69 74 77 74 70 66 54 44 40 40 40 41 44 47 51
74 93 97 96 76 81 89 79 79 79 74 76 70 77 55 53 66 83 84 80 74 74 80 82 68 69 65 61 60 59 66 67 66 63 59 56 48 40 44 47 57 59 62 64
74 87 98 91 80 89 94 84 77 80 80 71 87 69 64 71 84 90 83 69 70 64 75 61 48 43 45 50 55 60 59 52 56 55 55 47 47 50 54 58 63 70 77 80
83 89 96 97 88 95 66 62 63 71 68 76 79 70 71 80 89 82 65 61 59 50 48 47 47 48 46 46 48 56 68 68 70 69 66 64 67 72 76 79 85 87 86 90
73 80 99 94 96 75 64 67 70 77 80 82 82 77 79 74 90 95 74 49 49 49 43 45 45 45 43 42 44 50 54 62 69 73 74 74 80 82 84 93 98 97 96 93
75 75 90 98 98 86 62 62 67 72 89 79 82 80 90 80 96 97 84 58 55 48 47 48 46 49 50 52 53 59 67 71 77 84 91 89 92 99 99 99 98 97 82 67
96 97 97 92 97 81 60 60 78 87 76 80 86 89 80 92 94 90 77 77 72 73 75 70 70 75 73 68 68 79 89 96 98 99 99 97 94 98 98 97 82 73 58 43
83 92 95 93 97 95 57 72 84 72 81 80 87 89 90 90 84 85 87 83 81 82 81 87 94 98 96 89 90 96 98 100 98 98 96 98 99 91 84 72 58 45 43 44
93 83 92 85 78 58 63 73 78 75 78 82 88 89 86 88 78 70 77 90 88 89 96 96 99 100 100 97 92 97 100 96 95 94 98 90 67 54 53 54 54 50 48 49
72 67 81 76 67 62 61 76 77 74 79 73 85 90 86 84 70 68 66 65 76 85 87 87 91 80 84 76 85 92 88 85 69 52 53 54 55 55 51 52 54 54 51 56
74 71 74 79 72 77 78 76 76 71 70 71 90 89 90 83 80 65 62 62 58 56 50 44 42 43 43 43 44 45 45 46 49 54 57 57 53 52 54 56 62 61 64 57
81 75 83 80 60 68 70 76 71 69 70 72 83 87 86 82 81 75 64 58 49 45 43 43 42 42 40 40 42 44 47 48 50 52 56 56 54 54 53 54 58 52 47 43

GFSCGP_sfc_rhum_051.txt.gz
RH
96 94 96 81 78 71 71 78 79 66 52 54 56 58 47 42 47 49 48 45 43 41 35 38 39 39 39 39 40 42 59 76 78 92 98 98 98 96 91 88 83 79 76 80
92 92 80 86 83 77 75 77 76 64 55 57 58 58 45 40 39 38 36 34 33 33 38 38 38 41 41 38 39 41 46 70 77 79 83 88 92 94 89 91 85 81 82 83
80 67 81 82 90 90 88 81 77 72 60 60 64 55 48 39 41 38 37 36 35 34 32 30 37 37 39 42 40 39 42 50 73 76 85 98 97 99 99 99 94 86 86 89
66 56 73 72 78 68 78 60 62 65 70 81 66 77 62 47 48 44 41 39 38 39 37 37 36 39 40 38 39 40 40 45 55 78 93 89 90 92 94 89 90 94 90 92
76 65 69 74 69 59 69 59 64 70 82 83 81 86 58 50 40 36 33 33 33 32 37 38 38 37 37 38 40 41 40 43 48 67 84 90 87 92 95 92 93 97 98 94
66 56 58 59 61 57 59 62 72 85 83 92 80 79 57 46 44 36 40 38 39 36 36 33 33 36 38 39 38 38 37 37 46 59 79 90 88 96 99 100 98 99 98 97
72 70 59 57 67 62 65 77 93 88 94 84 77 85 63 49 44 43 42 43 47 48 45 42 35 35 42 40 44 44 45 42 46 56 71 86 89 95 94 97 97 98 97 96
92 93 68 61 68 74 79 74 89 75 91 90 72 82 50 50 43 37 43 49 52 52 54 51 43 50 57 58 55 54 52 52 52 53 64 84 91 95 94 95 96 94 90 90
89 84 64 61 61 62 81 88 72 88 89 95 79 61 34 47 50 53 51 51 55 60 60 60 50 49 54 57 57 57 58 58 57 59 70 88 94 95 96 95 96 97 94 89
70 90 65 63 57 63 69 66 87 94 74 81 70 76 51 45 52 51 52 53 56 68 70 68 59 50 54 62 65 66 67 68 67 70 84 93 97 96 96 97 97 95 88 80
69 82 86 63 77 82 81 90 84 84 82 90 91 57 53 48 54 55 53 48 65 62 69 69 64 58 59 70 71 70 80 81 78 87 95 98 99 98 97 97 94 88 78 77
70 85 91 80 71 67 72 76 77 89 82 96 96 79 52 60 50 50 43 47 53 66 74 72 71 63 70 74 73 86 92 95 95 95 97 98 98 97 97 95 88 76 74 68
65 84 94 87 73 74 86 79 73 78 88 98 93 73 49 54 44 46 55 59 63 78 73 67 73 78 73 74 85 83 74 74 82 93 95 96 96 94 87 79 66 59 52 46
62 79 79 89 75 86 93 86 79 83 98 91 89 74 51 48 52 51 62 80 78 75 72 70 76 84 86 86 75 74 80 78 83 85 83 85 83 78 68 63 59 52 40 40
66 87 90 84 76 82 82 80 86 88 79 91 77 77 56 49 49 56 79 75 69 66 62 64 88 92 83 74 80 87 90 86 72 68 64 65 52 48 44 43 45 47 50 54
72 96 96 95 76 87 94 82 82 82 78 80 72 73 49 48 59 79 80 70 68 65 59 69 60 63 67 70 66 68 74 73 68 63 60 52 50 53 58 60 64 65 69 68
76 90 98 91 81 89 92 85 79 79 79 67 81 63 62 72 79 87 80 66 63 56 49 46 48 55 63 70 74 71 63 69 72 73 62 65 73 69 71 72 77 82 85 87
82 89 92 98 86 97 64 68 67 68 62 68 65 58 65 77 85 81 71 56 54 53 45 45 48 49 54 60 73 79 83 86 86 80 85 87 80 81 82 85 88 90 90 94
67 83 98 94 91 78 72 74 76 80 78 76 80 78 69 78 89 94 77 50 51 54 55 52 47 46 46 49 54 64 72 80 83 90 92 85 84 84 88 94 99 100 100 100
70 75 92 99 96 92 64 64 76 73 86 78 82 79 85 81 96 96 79 67 61 62 56 62 61 61 61 58 58 65 74 83 89 91 92 89 89 95 98 100 100 100 100 98
99 98 94 91 98 85 60 61 78 85 76 80 84 83 82 87 89 88 76 76 75 75 78 82 87 90 86 80 84 95 96 97 99 97 98 96 98 98 100 99 96 94 88 52
90 92 93 88 97 93 59 82 84 70 81 80 84 88 86 88 84 84 85 80 84 87 85 85 96 98 92 88 92 98 98 100 98 99 98 99 98 96 95 92 70 50 45 48
90 77 86 84 79 57 59 67 69 74 77 81 86 89 84 87 81 82 88 85 85 89 93 92 98 100 100 93 96 97 99 98 97 96 98 97 82 64 57 55 55 54 54 56
76 70 86 82 70 67 61 67 71 69 70 74 76 89 86 83 73 72 75 86 86 87 91 87 89 91 93 91 92 96 95 85 72 62 61 60 60 56 56 55 52 50 53 58
78 70 76 83 71 70 76 77 71 70 69 71 90 90 88 79 72 68 65 67 73 68 75 58 52 59 68 68 67 63 57 53 57 60 60 58 53 55 61 62 62 62 62 56
84 83 89 80 65 72 72 78 76 74 72 72 91 93 90 73 68 66 64 59 56 50 48 49 47 48 45 48 51 52 52 54 55 54 55 56 56 61 62 68 72 54 54 51

GFSCGP_sfc_rhum_054.txt.gz
RH
91 93 96 85 79 73 74 82 83 75 56 60 64 64 51 44 49 49 48 46 42 40 40 43 41 42 44 44 44 44 46 79 91 97 96 95 93 94 94 96 92 90 85 83
98 96 81 69 68 73 76 84 87 72 58 60 61 61 47 39 45 44 40 39 40 40 36 38 41 43 44 39 43 45 46 50 77 90 92 89 89 89 92 95 94 90 89 87
91 91 88 84 88 84 83 84 81 77 63 63 65 57 49 40 42 40 39 42 41 41 38 35 39 39 42 45 43 43 44 49 71 80 91 98 98 99 98 99 97 94 91 90
72 78 90 88 88 88 97 62 63 65 72 85 68 78 59 49 42 41 39 38 38 38 39 40 40 41 41 41 44 43 44 47 55 89 92 93 90 95 95 94 94 94 91 91
86 83 80 88 83 86 70 60 65 70 80 82 78 79 50 51 40 42 45 48 49 48 46 46 37 37 39 41 45 45 43 44 49 59 93 96 93 92 96 97 96 95 94 92
66 55 56 64 62 55 61 66 73 83 80 90 78 75 49 47 51 47 46 50 53 57 59 53 48 42 47 50 48 46 42 40 44 53 78 91 94 96 98 99 99 99 98 97
72 68 58 58 69 60 62 74 90 81 92 80 81 82 57 50 46 52 51 53 55 65 65 64 57 53 53 57 59 57 55 50 46 50 62 86 94 96 95 95 96 98 99 98
94 94 66 63 68 73 80 74 86 67 84 85 74 86 52 51 42 46 55 56 57 64 71 69 65 59 58 55 59 60 58 57 57 58 58 68 87 96 96 96 97 97 96 95
89 88 66 61 63 65 81 90 72 90 89 96 78 60 32 51 56 53 50 50 52 61 72 74 72 64 60 58 60 65 68 67 66 66 69 73 83 91 95 97 96 97 96 97
74 93 71 65 63 65 69 67 84 93 73 71 55 67 45 61 60 48 51 52 52 60 74 74 74 70 63 62 67 73 71 76 81 83 84 83 90 92 95 98 99 98 97 95
70 81 85 66 78 82 80 92 83 81 80 83 69 42 52 50 62 55 52 52 55 67 76 79 77 75 70 72 75 76 88 92 93 95 95 96 98 98 98 98 98 96 93 90
70 83 84 80 72 70 73 77 78 87 84 96 95 71 50 53 56 54 52 56 70 80 81 83 83 80 84 84 82 91 82 84 90 96 97 99 96 96 98 98 95 83 81 75
64 83 95 88 74 72 86 80 73 77 85 98 93 62 50 58 53 53 62 87 84 73 74 76 82 91 92 90 84 84 86 89 90 94 96 97 92 92 89 85 75 70 64 57
61 78 76 86 75 86 94 86 77 81 93 90 91 75 52 47 56 54 67 75 69 64 66 68 83 85 85 82 90 92 90 86 84 85 84 86 86 81 73 68 65 60 50 49
68 90 93 85 74 81 83 80 88 86 83 88 76 81 58 52 55 54 77 73 72 69 53 57 57 74 75 78 83 83 85 83 76 65 61 60 57 59 54 54 53 54 58 59
73 98 91 95 79 88 95 85 84 86 82 82 72 75 49 47 52 76 84 71 64 63 49 47 49 61 63 79 75 67 73 75 67 68 63 61 64 69 68 70 68 68 70 70
75 91 96 91 82 86 91 86 81 84 81 69 86 62 52 62 73 86 82 69 61 56 47 52 56 58 63 74 75 78 74 68 72 72 74 74 74 78 78 76 82 84 87 86
78 86 90 97 87 97 62 67 68 69 62 68 64 57 53 69 84 80 75 61 54 55 57 52 52 50 54 66 74 78 83 85 88 87 86 87 86 88 87 89 92 91 91 94
64 82 96 91 81 80 74 83 77 77 77 72 66 66 68 79 90 92 74 52 54 61 54 55 55 53 58 60 65 70 74 78 87 97 98 93 93 93 93 98 100 100 100 100
72 75 87 98 86 96 64 69 72 74 85 78 81 80 74 81 97 94 77 68 67 66 63 67 67 69 71 75 77 82 92 96 96 97 94 92 90 97 98 100 100 100 100 99
98 99 89 93 89 86 64 58 76 91 79 80 81 79 82 86 87 87 79 78 81 79 84 82 85 88 86 85 88 95 97 99 99 97 98 97 97 99 100 100 100 98 92 74
85 98 94 93 96 95 62 76 81 68 80 81 81 82 84 88 84 85 87 87 89 93 90 88 96 96 92 91 95 99 99 100 99 98 98 99 99 99 99 91 72 47 46 53
89 75 83 82 77 58 58 70 64 74 75 80 83 87 87 86 86 85 95 93 89 86 90 86 98 99 100 97 96 97 100 99 99 98 99 95 64 54 52 54 57 56 58 62
80 72 89 87 68 66 62 63 68 71 72 74 74 87 89 84 78 80 85 94 94 87 86 87 91 95 97 96 97 97 93 87 74 65 64 60 57 57 56 48 47 51 56 62
84 74 79 86 72 67 74 72 77 73 70 72 84 89 90 84 74 74 79 92 90 94 90 65 75 85 90 86 85 71 55 59 62 65 60 56 58 62 67 66 68 66 63 60
86 79 82 84 74 75 74 76 78 77 74 71 82 94 91 78 71 68 70 71 66 68 58 57 62 60 58 57 57 58 58 58 58 55 54 61 65 69 73 77 76 57 57 54

GFSCGP_sfc_rhum_057.txt.gz
RH
82 93 91 85 72 62 64 73 73 66 50 52 59 59 50 43 44 43 40 38 35 34 32 36 37 36 36 35 37 36 38 54 77 88 92 91 96 94 94 91 82 78 77 77
97 94 72 71 66 66 68 76 76 63 52 52 56 56 46 41 43 41 39 39 38 35 30 30 32 35 36 35 36 38 39 38 55 73 76 78 78 85 88 89 90 82 81 78
96 81 75 72 76 76 77 77 74 68 56 54 59 55 45 36 36 36 36 36 35 36 37 34 32 34 37 36 40 38 39 42 45 64 81 90 89 92 91 94 94 90 84 82
92 87 84 89 82 75 93 69 61 59 65 71 60 67 52 41 40 45 45 46 47 48 45 45 39 35 36 40 47 44 44 44 44 57 75 85 80 84 83 82 86 89 87 86
96 96 92 94 92 77 90 59 62 63 70 65 63 66 45 39 39 41 43 46 50 53 54 51 48 43 43 52 53 45 41 42 46 48 69 84 83 82 84 87 88 89 92 87
70 67 70 70 84 76 68 61 69 72 71 79 62 65 40 39 40 38 40 46 49 55 60 57 54 50 50 54 57 58 49 40 39 43 52 81 84 84 91 91 93 93 93 91
81 68 58 56 65 57 60 74 89 76 87 74 72 74 51 41 39 41 45 46 46 54 61 62 59 56 56 57 58 52 53 50 50 48 45 52 72 87 91 88 89 89 94 96
93 92 65 60 66 70 68 69 87 64 66 63 68 74 43 43 36 41 45 46 50 50 60 65 64 62 61 60 57 55 56 56 55 55 52 50 58 71 81 87 86 86 89 89
87 91 60 62 61 62 72 85 64 87 81 84 63 55 34 45 44 46 45 51 54 51 61 67 64 62 63 59 59 61 61 62 67 70 69 64 62 66 72 76 86 88 87 90
73 95 68 65 60 63 66 64 82 90 82 61 44 48 32 48 48 40 45 49 54 62 70 70 68 68 65 64 65 65 68 71 71 77 81 80 81 80 79 80 84 89 88 87
67 80 83 66 78 78 76 86 78 72 70 67 48 31 42 40 44 48 48 49 59 76 75 71 70 71 73 72 72 71 67 68 71 79 82 87 92 90 90 90 90 89 86 87
68 81 92 75 70 66 68 74 68 80 79 87 84 50 40 43 46 48 48 54 78 74 69 63 64 74 70 70 71 72 71 74 77 80 83 87 87 88 90 90 88 82 83 79
62 82 95 86 76 69 82 75 68 71 80 98 83 42 44 50 49 47 52 76 68 60 57 63 66 65 66 72 76 77 73 70 70 76 80 80 83 85 81 80 75 71 71 66
58 76 73 82 72 82 94 83 72 80 93 83 86 58 46 42 50 51 64 72 62 61 54 54 54 59 62 68 71 69 68 65 61 58 63 66 71 72 67 66 62 55 52 53
65 87 91 79 72 78 79 82 80 85 80 86 64 73 52 51 54 51 76 69 65 61 51 50 53 62 66 67 66 67 68 63 63 61 63 65 66 69 68 70 72 70 73 74
73 95 95 91 78 85 94 82 84 80 77 77 70 72 47 46 45 67 78 72 64 59 48 49 52 60 68 74 71 72 70 72 65 71 72 70 72 74 79 85 80 79 79 79
76 95 93 90 82 82 94 84 81 82 80 70 88 63 51 59 61 82 80 70 59 55 53 51 53 56 68 75 76 83 80 76 79 82 82 77 78 80 80 81 85 89 91 89
77 82 90 93 85 94 57 67 68 70 65 71 67 61 53 56 80 78 74 61 54 55 59 51 50 51 56 68 73 75 79 82 90 95 94 95 92 92 91 93 94 95 93 95
62 79 95 92 78 72 76 79 74 74 77 65 64 58 56 74 88 92 68 54 55 54 54 57 57 58 61 62 68 75 84 94 95 98 99 98 99 98 99 100 100 100 100 100
70 72 84 96 88 90 60 66 70 70 82 69 71 71 70 82 88 90 76 64 66 65 67 69 69 70 76 76 76 84 94 94 95 94 97 96 97 99 98 100 100 100 100 99
94 96 89 96 93 74 61 53 68 92 76 73 78 76 72 88 88 85 80 82 82 84 85 79 83 84 84 84 86 96 98 99 99 99 100 99 100 100 100 100 99 96 79 69
81 91 84 88 88 88 61 80 81 69 72 76 76 77 78 84 81 80 80 87 88 90 86 86 88 91 91 91 96 99 99 100 100 98 98 99 98 96 86 67 51 44 45 47
92 79 83 75 73 55 61 67 61 66 68 72 76 76 83 85 84 85 87 90 83 84 83 84 96 99 99 96 91 99 100 99 97 93 79 55 48 45 45 45 47 46 46 47
84 70 84 84 72 67 59 61 62 69 72 68 72 78 88 85 81 83 84 91 89 85 84 82 82 96 96 96 96 96 96 82 61 53 50 48 45 43 40 38 40 42 45 44
84 76 69 85 75 70 65 70 67 71 70 68 72 81 86 87 80 80 82 88 86 85 84 83 88 91 96 96 91 68 60 56 53 53 49 49 48 52 55 53 49 44 46 46
90 87 90 86 76 82 72 69 69 72 73 69 72 90 91 84 78 76 81 84 87 91 63 74 80 82 79 75 64 58 56 54 49 45 47 54 57 63 63 63 64 59 58 58

GFSCGP_sfc_rhum_060.txt.gz
RH
73 94 87 61 45 38 39 45 42 42 42 42 43 43 38 33 31 30 26 23 22 24 22 23 22 22 22 22 23 23 24 25 31 46 85 90 92 88 87 79 70 59 58 56
82 93 65 49 48 48 44 42 43 54 45 42 43 44 35 32 32 31 29 26 25 24 22 22 21 22 22 22 22 23 24 25 26 32 50 62 63 71 74 78 79 78 65 65
72 68 51 55 57 54 49 44 53 49 47 42 44 40 38 30 29 29 28 30 31 32 29 27 24 25 26 25 26 27 26 28 28 30 35 50 58 66 69 75 75 74 79 73
86 78 64 61 57 48 63 53 51 52 52 50 45 31 38 32 38 36 36 38 38 38 33 33 31 32 32 38 40 33 31 31 31 34 34 45 57 64 62 57 62 67 72 83
97 92 82 78 60 53 71 55 52 51 50 49 46 45 34 30 37 37 35 37 40 42 42 38 38 39 37 43 45 41 32 28 30 32 36 40 53 50 51 56 61 62 71 77
95 90 86 85 91 72 48 49 49 49 53 68 43 47 30 30 29 34 33 34 38 42 43 42 40 39 40 44 45 42 36 35 34 32 34 38 45 52 57 64 69 69 74 83
100 96 85 79 87 86 69 59 84 80 83 61 52 48 28 30 28 30 39 40 38 42 45 47 45 44 46 48 47 42 40 38 38 38 36 33 38 46 58 61 65 68 72 82
91 96 88 75 60 66 58 59 74 55 42 40 56 49 30 30 28 31 34 38 42 46 48 50 49 50 50 50 48 46 43 42 44 45 46 42 39 38 39 44 51 55 58 64
78 88 54 54 51 49 62 76 48 68 61 56 35 38 32 33 32 33 33 37 45 51 52 52 50 49 51 51 51 51 47 46 46 49 50 49 49 52 49 48 47 52 54 61
59 91 61 55 49 50 53 46 68 86 72 50 33 29 26 37 36 33 36 41 46 54 52 49 49 54 54 52 53 52 49 48 48 53 54 57 61 65 65 63 61 57 56 60
49 60 79 56 63 60 60 66 59 48 47 47 23 21 24 34 32 36 36 41 54 55 50 49 52 52 50 50 53 52 52 53 55 57 58 65 70 76 77 80 78 78 77 76
53 62 80 66 56 51 52 53 46 59 63 62 62 27 24 26 31 35 36 48 56 52 49 52 50 48 49 52 53 54 51 51 53 57 59 62 64 66 70 73 70 71 75 76
48 72 86 74 66 58 66 57 53 53 64 90 56 29 31 31 33 31 40 52 54 52 47 45 44 46 47 50 52 53 50 48 46 49 54 57 61 63 65 60 58 62 63 65
50 57 57 55 67 67 88 68 57 84 92 56 53 34 32 34 32 36 43 56 54 50 46 46 46 46 48 50 54 52 51 49 49 51 55 59 62 62 62 64 61 58 54 53
48 71 69 62 60 64 68 71 67 87 71 93 47 48 30 30 36 37 50 62 60 52 45 46 47 48 51 52 55 54 54 53 53 55 60 63 64 72 73 73 73 73 76 73
57 93 88 84 65 67 84 64 66 67 61 63 53 54 34 32 34 46 64 67 62 55 48 45 45 49 58 59 61 61 60 60 58 64 66 64 69 73 82 85 81 81 90 90
58 82 86 71 68 68 82 72 65 62 58 55 73 47 37 39 43 60 72 67 58 52 53 47 45 47 54 61 64 67 64 63 69 71 69 70 77 83 87 86 89 94 95 95
60 69 78 74 69 84 51 53 51 56 49 52 49 44 40 41 58 68 63 59 51 50 54 47 43 48 51 55 57 60 68 78 94 94 94 94 90 89 87 91 96 97 97 99
50 60 81 76 64 50 51 60 59 63 63 47 49 43 41 50 70 74 61 50 48 47 46 47 50 53 53 56 58 64 73 76 92 95 96 96 95 95 96 100 100 100 100 100
59 60 64 80 85 60 53 51 52 50 67 54 50 50 53 67 71 69 62 53 55 51 51 53 56 61 64 66 62 67 79 83 93 95 97 97 96 97 99 100 100 100 100 100
79 79 81 70 75 48 38 42 46 82 66 54 60 59 58 64 63 72 64 64 60 60 62 63 66 72 74 71 80 93 96 98 99 98 99 98 99 100 100 98 99 88 68 62
63 73 78 69 77 73 44 63 75 62 55 53 54 56 62 71 74 70 69 70 70 70 69 68 71 78 79 88 94 97 100 98 97 97 96 97 87 70 60 52 42 37 34 35
65 51 57 55 48 39 44 53 48 55 49 52 56 54 60 76 76 68 77 77 74 74 76 75 82 89 90 92 94 99 98 95 88 73 61 46 35 32 35 37 38 33 31 29
60 53 55 60 48 44 40 43 55 56 57 54 54 54 64 67 70 74 74 82 82 76 75 66 76 89 90 92 94 94 90 72 54 38 33 31 30 30 29 27 28 26 24 24
56 58 55 55 51 50 47 52 61 60 55 54 53 55 61 65 67 67 72 80 80 78 72 71 82 80 93 93 91 76 63 47 36 34 34 32 30 30 34 37 32 29 36 36
62 57 59 51 47 51 55 65 76 64 61 58 56 59 68 67 66 64 67 74 78 81 77 79 76 83 93 88 74 61 51 38 34 32 32 33 35 39 42 43 49 59 59 59

GFSCGP_sfc_rhum_063.txt.gz
RH
72 92 87 54 40 28 26 35 30 26 37 38 34 32 26 25 27 25 22 19 17 17 16 19 21 20 20 20 21 21 21 21 22 30 38 73 89 91 81 73 57 53 51 49
83 91 68 41 38 35 34 35 37 38 34 36 30 34 29 28 28 25 23 22 20 20 20 19 20 19 19 19 20 21 22 22 22 24 29 53 66 75 78 81 81 73 60 57
79 74 74 69 52 47 36 36 34 40 44 37 36 39 33 27 27 26 24 23 23 25 24 24 23 25 25 25 27 24 24 25 25 27 26 32 52 59 64 73 76 75 74 70
69 70 81 77 63 44 45 31 31 48 49 39 34 22 33 30 32 29 29 29 30 30 28 29 29 31 32 39 43 33 29 28 27 30 31 33 38 51 54 53 55 59 61 70
95 77 76 81 65 41 56 43 44 48 50 48 45 42 32 30 36 34 32 35 36 35 34 33 35 36 38 44 46 40 32 27 27 29 31 33 36 39 46 48 49 50 54 62
94 81 84 87 75 53 51 49 49 47 51 73 40 38 35 31 30 32 30 31 34 37 37 37 37 37 38 44 46 43 35 32 33 32 31 34 41 39 46 49 54 55 58 65
100 99 88 84 84 68 57 61 92 93 89 65 38 42 27 23 24 28 31 32 34 36 39 42 42 43 44 47 46 42 39 36 36 38 36 33 34 38 45 49 53 55 59 66
99 99 99 89 89 94 73 69 80 70 54 47 44 45 27 24 22 30 31 35 38 41 42 45 46 46 46 48 47 45 43 41 40 40 41 39 39 38 36 36 39 43 48 50
85 97 88 77 57 73 94 95 46 57 44 44 33 30 31 29 27 30 31 35 41 45 46 45 42 43 48 47 48 49 46 43 42 44 44 44 45 51 53 50 46 44 42 47
52 89 66 55 47 45 50 43 65 86 74 44 33 26 26 34 35 31 33 37 42 47 46 44 43 49 46 45 48 47 45 47 47 48 48 51 55 60 62 64 64 63 60 56
43 55 70 55 62 57 54 61 51 46 41 48 22 22 22 28 28 33 34 38 46 49 46 45 47 45 46 47 49 48 46 47 49 51 52 54 58 60 60 65 65 66 68 68
45 58 76 62 51 46 44 45 42 57 50 51 57 32 22 27 30 31 35 42 49 48 46 47 46 44 45 47 47 48 45 45 46 48 50 54 56 57 59 57 57 59 64 64
42 67 80 66 59 51 61 49 44 44 60 94 55 35 23 25 28 29 35 43 48 48 44 43 42 44 45 46 48 48 47 47 46 48 51 55 57 57 60 59 56 52 51 51
48 48 55 53 65 57 76 56 51 82 92 49 48 32 30 30 32 29 36 45 49 46 44 44 44 44 44 46 50 50 49 48 50 52 56 60 62 62 63 66 65 65 63 63
42 59 53 50 50 54 64 62 59 92 70 92 43 37 28 27 29 32 39 51 56 50 45 44 45 44 48 50 52 51 54 53 53 55 58 62 63 69 72 73 76 74 73 76
46 88 87 86 56 57 75 57 58 62 62 55 48 48 30 27 30 36 43 59 60 52 48 44 44 46 53 54 59 58 58 58 56 58 60 60 64 71 78 81 84 85 85 87
50 76 86 62 58 59 75 62 59 58 53 54 70 42 34 35 38 42 56 61 58 50 47 46 44 46 52 56 57 60 59 63 67 70 66 68 72 77 80 84 88 93 96 96
52 60 72 69 64 84 58 47 45 51 46 46 43 37 34 35 38 59 57 57 49 46 49 46 43 46 49 50 52 55 66 76 83 83 83 80 81 86 90 95 97 97 97 97
43 48 71 74 58 45 36 51 52 58 60 43 42 37 36 38 59 64 54 48 45 44 43 43 44 48 50 51 52 59 64 76 81 94 90 92 92 94 96 99 100 100 100 100
53 51 64 78 79 61 56 50 44 44 69 51 44 44 45 54 73 68 56 48 48 44 44 47 48 53 55 56 54 63 73 90 94 95 96 94 94 96 99 100 100 100 100 100
67 70 79 70 73 51 36 50 41 76 74 51 52 52 50 60 59 66 57 55 51 51 53 52 53 60 59 62 70 85 95 97 96 96 97 96 97 98 99 98 96 87 66 58
58 64 66 62 75 74 36 52 53 64 50 47 48 51 55 56 68 66 62 64 63 64 62 57 61 67 70 80 82 90 98 98 96 94 92 92 80 66 58 54 42 38 31 32
57 44 49 50 49 37 39 47 42 47 54 52 53 50 53 70 71 66 68 69 65 61 63 60 72 85 85 87 89 96 96 89 81 73 65 45 33 33 36 42 41 32 27 24
46 38 48 49 41 39 35 38 45 51 54 51 49 51 54 58 65 66 68 73 72 67 65 62 71 84 94 84 89 84 80 70 58 43 32 31 31 30 28 26 31 28 22 23
52 47 50 47 40 44 47 43 49 56 53 52 49 50 54 56 61 64 66 73 72 69 63 58 69 79 91 87 83 72 65 53 39 30 30 30 28 27 32 36 34 31 44 46
45 50 56 49 38 40 50 55 62 59 57 55 55 53 57 58 58 59 61 65 68 69 66 64 73 76 84 87 76 65 55 42 32 31 31 32 34 35 38 42 53 63 60 59

GFSCGP_sfc_rhum_066.txt.gz
RH
81 88 89 76 66 51 42 48 48 37 36 45 47 45 37 30 34 38 32 28 27 25 22 27 27 27 28 28 31 30 31 32 34 38 57 94 97 96 95 89 82 82 78 68
87 89 61 53 56 53 45 44 45 36 41 43 43 42 32 30 34 33 34 32 28 27 29 27 26 29 28 29 31 33 32 33 33 37 41 69 92 94 88 90 84 85 89 83
76 69 57 53 53 56 44 45 40 46 46 43 45 44 40 34 34 32 33 33 30 33 32 31 33 35 40 52 53 42 39 38 39 42 44 46 85 91 94 93 88 78 81 87
69 68 69 80 76 52 62 35 35 48 59 61 45 46 39 36 38 33 35 36 39 40 39 38 41 45 52 58 59 53 40 38 36 39 46 50 55 72 83 89 89 89 89 88
97 82 80 88 81 58 53 42 47 55 59 61 53 66 47 39 42 40 39 46 46 46 42 44 47 47 55 60 62 56 48 42 40 40 44 50 53 55 58 71 75 75 77 88
93 80 82 88 86 86 53 57 56 63 67 94 57 56 54 44 40 40 43 46 47 48 50 48 48 48 55 61 62 60 52 46 47 48 45 47 53 56 58 68 77 78 79 83
100 98 90 85 96 80 68 72 95 97 97 91 46 56 48 34 33 38 40 44 46 49 55 57 59 60 61 64 64 58 58 55 53 55 56 56 53 54 58 61 70 75 82 88
97 96 98 85 91 92 79 78 96 81 90 77 50 67 42 32 31 35 40 45 47 54 59 60 60 60 65 63 64 64 62 59 56 59 61 62 67 74 71 71 68 66 64 67
99 99 93 89 78 78 95 95 60 77 63 83 60 47 41 34 44 40 39 44 54 58 60 59 57 64 63 62 63 64 61 60 61 63 66 70 76 80 84 85 85 83 81 71
69 98 95 91 83 76 87 66 80 95 81 70 53 50 46 43 42 39 42 47 54 57 57 56 60 60 61 63 65 63 61 63 64 67 69 72 78 80 84 87 88 87 87 85
53 71 87 71 89 86 93 92 72 62 63 87 55 47 36 38 38 40 42 46 54 59 57 60 60 57 61 62 64 62 60 60 62 65 70 76 77 79 78 77 78 78 81 79
56 71 84 71 56 52 56 57 55 91 68 79 87 55 31 34 38 41 43 48 59 56 56 58 56 55 59 60 61 62 60 61 62 64 69 72 71 73 78 77 71 66 65 62
53 83 93 82 72 61 73 59 55 64 82 93 92 61 36 42 41 37 45 55 59 57 54 55 54 56 58 61 63 65 63 65 64 67 72 75 77 78 81 79 75 71 71 70
58 59 70 86 82 77 85 65 60 87 97 78 82 47 41 41 41 38 50 56 60 58 52 56 58 59 60 63 66 66 66 67 67 70 75 80 85 86 86 83 73 71 74 81
59 74 68 61 54 63 76 70 68 91 82 83 66 48 35 37 39 40 52 59 63 59 52 53 57 62 66 70 73 71 73 71 70 72 76 80 82 77 76 82 81 77 79 82
60 95 92 92 61 64 79 65 67 72 72 73 64 62 44 41 39 49 58 66 70 64 55 50 52 59 67 78 76 70 74 76 74 75 77 77 76 76 81 83 85 88 90 91
64 89 95 85 70 70 86 73 69 68 65 68 79 56 44 46 44 53 68 69 70 59 54 52 53 61 71 74 71 78 83 80 75 78 79 78 76 82 85 89 95 95 97 96
62 77 90 92 83 98 67 56 54 59 57 57 54 48 41 42 55 67 72 72 63 53 55 52 56 60 65 65 69 79 81 81 85 84 81 79 83 91 92 96 97 97 97 97
54 62 89 94 83 60 62 55 58 64 65 50 53 47 44 56 71 78 63 57 55 54 55 55 60 62 63 58 70 76 75 78 84 87 86 84 84 95 97 98 99 100 100 100
59 63 80 89 89 86 70 54 52 54 79 60 50 49 50 70 91 87 65 56 55 52 54 59 62 65 63 61 73 74 83 90 96 93 90 87 94 97 98 100 100 99 95 100
77 79 92 87 84 69 60 57 51 87 85 66 61 63 62 77 85 76 65 64 59 60 61 62 66 73 72 82 86 86 91 96 97 96 97 94 96 99 99 99 98 95 88 80
63 83 86 76 91 86 55 58 65 73 61 60 65 67 66 77 75 70 67 67 69 71 70 69 78 83 87 82 86 93 98 97 94 93 92 97 94 86 85 80 70 54 48 50
68 59 66 64 72 52 49 59 55 60 62 66 69 65 64 77 75 70 73 72 68 68 75 73 90 88 90 86 87 97 98 92 90 91 88 73 57 52 54 57 52 45 38 37
56 50 61 60 53 51 45 52 62 68 67 58 59 63 66 73 77 72 71 74 72 68 72 77 86 83 90 88 90 93 89 84 81 69 49 44 45 44 42 38 41 39 40 38
63 58 60 62 53 55 61 52 60 66 66 65 59 60 64 68 75 74 75 75 74 76 68 76 84 81 86 88 87 81 84 81 62 41 42 43 42 39 56 74 68 59 78 72
66 69 74 72 60 59 82 76 71 72 72 70 70 69 66 70 71 72 77 79 78 78 71 77 81 79 81 83 82 85 78 67 43 43 45 47 48 51 61 73 83 63 63 58

GFSCGP_sfc_rhum_069.txt.gz
RH
88 90 94 77 77 67 69 73 64 54 45 51 51 51 44 40 38 38 38 36 32 29 29 32 30 31 30 30 33 36 36 35 42 61 96 98 96 98 98 96 91 92 93 88
92 92 77 66 71 72 64 75 66 49 40 48 51 51 46 42 39 38 36 36 35 35 32 31 30 34 45 56 55 47 43 41 41 46 48 93 97 98 92 95 94 92 94 95
93 75 62 69 74 79 67 75 68 53 56 51 53 56 49 41 38 39 37 34 33 35 36 41 44 51 57 62 63 56 45 42 43 43 48 53 92 96 98 96 97 95 93 94
89 74 69 77 70 66 79 53 48 56 63 76 50 68 44 41 43 38 37 37 37 41 43 46 48 53 58 63 63 58 53 42 40 44 46 51 58 67 87 96 95 95 93 92
97 81 88 92 79 82 72 51 46 63 64 71 65 67 49 41 49 43 40 42 47 44 47 50 51 55 59 63 66 61 55 48 49 46 48 55 57 63 66 68 80 94 96 95
93 77 87 93 90 88 83 62 59 68 74 94 71 69 58 54 40 46 50 57 52 54 54 53 52 59 65 67 66 64 59 56 59 61 63 61 58 61 64 66 73 81 88 90
98 98 86 82 91 84 89 88 98 96 97 93 64 69 52 40 41 44 55 55 56 60 63 64 65 67 69 70 67 61 65 62 62 64 68 76 81 82 82 83 78 74 77 84
98 100 98 83 86 95 96 84 91 90 97 90 58 80 54 38 36 43 46 51 55 66 68 65 65 71 68 66 67 67 65 66 67 68 73 82 85 89 92 93 95 96 94 92
97 94 89 85 78 86 97 96 68 77 73 86 71 57 38 48 48 47 51 53 64 67 66 63 70 67 67 69 70 68 68 70 71 73 78 86 89 91 93 93 94 95 93 79
87 96 89 90 85 82 94 73 82 94 82 78 72 67 57 55 52 47 50 58 64 66 64 68 69 67 69 70 71 66 66 67 70 76 82 81 85 81 81 76 78 80 79 79
74 80 98 95 98 97 96 98 84 66 72 85 66 55 42 42 46 44 48 53 66 69 67 71 67 68 70 71 69 66 66 66 70 74 77 78 80 81 79 77 75 72 69 68
62 80 97 81 79 65 71 83 75 88 71 79 91 67 37 41 45 41 49 55 65 62 65 66 64 68 69 70 69 68 68 69 73 76 79 79 79 80 83 83 79 75 75 71
60 84 95 86 74 66 73 64 69 66 82 90 90 66 43 48 48 48 54 64 64 61 61 61 62 64 67 70 71 70 71 74 75 78 83 86 87 89 92 88 80 77 81 82
61 73 77 86 79 80 86 72 66 78 91 75 85 64 56 50 46 43 52 60 68 62 57 60 62 65 68 71 72 73 75 75 75 77 85 90 92 81 89 92 88 80 92 95
64 77 72 63 60 72 78 74 77 84 73 81 66 56 46 47 48 44 51 67 70 61 57 60 64 70 72 78 79 79 78 77 77 80 86 91 89 79 81 83 84 83 89 86
70 93 89 87 65 66 78 73 75 78 72 72 71 72 48 39 40 58 65 72 72 67 57 56 60 70 77 84 82 79 85 85 81 85 88 84 77 80 84 89 91 93 93 91
76 88 93 92 76 77 82 74 70 75 73 64 79 58 54 51 49 62 70 73 72 68 60 55 58 70 82 81 80 93 93 86 86 86 86 78 83 90 93 95 94 96 96 96
80 83 93 95 86 93 53 62 60 61 64 67 64 56 52 49 54 70 75 78 75 62 58 57 64 73 75 76 87 92 90 81 85 83 82 85 91 91 96 96 97 96 92 91
62 70 91 94 94 66 73 61 63 73 71 61 62 56 50 66 74 79 70 64 64 58 60 58 65 70 73 78 86 89 88 83 84 87 87 86 89 96 97 99 99 100 97 96
64 63 82 91 94 93 68 60 55 59 87 70 57 55 54 72 74 76 67 58 58 57 59 66 68 72 72 77 84 88 90 86 89 87 87 85 91 97 98 99 100 96 98 98
84 81 94 93 87 75 54 65 62 88 82 72 57 55 64 71 69 79 64 63 60 62 64 68 72 77 81 92 92 96 94 97 95 92 93 94 97 98 96 94 97 97 88 81
80 73 95 91 94 92 63 61 74 71 69 66 68 68 71 80 76 71 68 66 66 70 74 74 83 90 94 92 92 94 98 97 94 95 94 96 98 93 93 91 90 85 71 68
77 69 70 73 72 55 58 66 67 66 64 65 70 68 74 78 76 71 74 70 68 69 77 80 92 95 93 88 87 97 97 94 92 89 97 96 89 73 65 62 57 50 48 44
57 58 65 62 56 53 53 61 70 70 70 67 64 64 65 77 77 76 73 75 72 71 72 88 93 96 92 86 84 92 92 87 90 95 84 60 54 54 51 45 46 44 43 44
66 64 65 68 61 58 55 57 66 70 68 67 67 65 66 70 78 75 76 77 72 72 75 85 91 90 86 87 85 87 83 93 93 73 52 48 47 45 61 73 52 68 80 59
74 74 75 78 62 62 79 84 75 76 76 73 78 78 70 71 73 76 78 80 80 80 76 85 88 87 82 88 84 78 81 93 78 50 51 51 49 56 69 86 88 64 64 57

GFSCGP_sfc_rhum_072.txt.gz
RH
90 93 92 88 77 75 80 82 74 64 51 55 60 57 48 40 44 44 44 40 35 30 36 36 36 36 35 49 44 42 39 41 76 96 97 97 97 96 97 98 94 93 93 93
95 91 78 73 71 73 80 84 78 59 47 57 57 56 48 44 46 39 40 39 36 36 35 34 44 60 60 61 60 51 45 43 44 52 57 96 97 97 96 96 96 96 96 96
87 73 68 72 81 80 85 82 75 65 60 56 59 65 61 50 47 41 41 40 39 36 37 48 56 59 63 67 68 60 56 46 44 44 51 57 95 97 99 98 98 96 94 94
85 71 72 79 82 79 83 63 59 58 70 85 54 81 55 55 48 45 42 41 40 42 47 51 55 60 62 66 66 60 56 49 47 50 51 52 58 73 91 91 94 96 95 95
96 82 79 88 80 68 71 78 60 67 70 74 71 76 64 47 57 47 47 41 43 51 55 55 58 61 64 69 72 68 60 60 64 66 58 60 60 65 68 68 70 80 90 96
92 79 90 92 90 90 88 68 70 76 83 96 71 73 69 51 46 44 44 44 50 53 58 58 63 66 70 71 71 70 65 67 67 72 78 79 72 70 74 77 78 78 86 90
98 97 91 82 86 80 87 85 99 98 99 94 71 75 48 46 42 41 48 60 64 62 66 70 73 75 72 70 71 64 66 68 70 77 84 88 91 92 93 94 96 94 94 96
98 100 95 85 90 87 96 90 94 91 96 88 68 85 55 45 39 41 46 55 65 71 73 74 76 76 70 69 71 70 70 72 74 79 87 91 92 96 97 95 96 97 97 96
91 93 83 84 85 79 96 99 80 80 83 92 74 63 43 58 60 58 56 58 69 73 72 72 75 70 72 73 73 73 74 75 80 87 90 91 93 93 92 87 89 94 90 77
87 98 82 80 84 86 91 84 98 94 87 84 75 73 60 73 63 54 56 63 70 71 69 75 72 73 76 75 72 70 69 73 78 78 78 83 84 80 78 76 75 74 71 72
85 83 93 91 96 82 96 99 90 75 77 87 74 61 49 54 54 54 56 61 69 71 71 75 71 74 75 74 70 70 71 74 79 79 80 83 84 84 84 83 81 79 75 74
66 85 93 89 77 76 77 88 80 93 88 84 90 58 43 46 53 49 51 57 67 65 69 69 70 74 74 74 71 72 74 77 80 81 84 87 87 88 89 88 84 82 84 79
64 85 98 96 79 77 99 89 80 78 84 90 84 57 46 58 49 48 54 64 67 64 69 68 70 74 75 76 74 76 77 81 82 84 89 92 94 96 96 93 90 90 92 91
62 78 78 86 76 83 88 80 90 95 98 85 90 56 50 51 50 53 58 66 66 62 63 65 68 71 75 77 76 79 80 80 82 87 93 94 86 84 84 90 85 92 94 95
62 76 71 67 70 74 77 77 79 87 80 86 68 63 46 46 48 49 48 59 73 68 64 65 67 70 74 79 82 81 82 81 83 88 92 94 81 81 83 84 86 84 86 87
75 91 87 85 69 69 81 75 78 76 74 73 68 71 50 40 49 49 50 70 76 71 64 65 66 72 78 83 84 84 87 85 84 90 91 87 80 83 88 91 93 91 91 92
79 89 90 85 80 75 79 71 70 78 75 64 78 54 53 50 41 50 62 70 72 71 63 62 66 74 84 87 85 93 92 88 89 91 88 81 85 90 92 92 92 96 97 92
86 82 92 96 84 94 61 63 61 60 65 69 66 55 48 50 53 61 68 74 74 70 63 58 64 80 84 86 92 95 91 90 84 84 85 89 87 96 96 96 96 94 91 91
72 82 91 95 96 75 65 68 70 74 67 64 62 62 57 59 74 78 75 78 76 71 63 62 70 78 82 92 94 94 92 83 84 88 89 88 90 96 97 99 99 100 97 96
68 64 78 93 96 93 62 66 58 66 89 68 62 63 61 76 78 73 78 65 66 63 62 67 75 77 82 92 90 93 94 85 89 88 87 86 92 97 98 100 99 97 91 95
86 89 90 90 91 77 57 63 65 88 76 79 66 61 64 79 65 72 68 61 62 64 66 70 73 76 79 88 91 96 96 93 89 89 91 93 94 99 97 97 98 99 94 96
91 90 94 92 97 93 64 65 77 71 77 78 74 71 69 75 80 73 68 66 64 66 73 74 80 86 94 93 92 97 98 96 94 93 94 98 97 92 91 97 94 88 78 80
74 68 79 80 78 55 59 61 58 71 70 66 72 72 74 78 76 71 72 68 65 66 72 80 88 96 96 95 94 95 97 94 94 93 94 96 99 97 94 87 82 66 60 59
67 64 68 66 56 55 55 64 69 71 71 68 68 69 73 72 77 76 74 71 70 69 72 77 94 96 98 95 93 91 93 87 85 88 98 97 94 77 66 54 51 47 45 47
68 65 68 72 63 60 54 60 71 75 71 68 67 68 70 76 80 73 75 77 76 75 72 79 91 94 94 92 84 88 88 88 87 89 94 73 63 64 51 45 47 48 62 47
75 75 73 73 59 60 60 78 70 77 76 76 74 78 73 74 74 79 78 79 80 77 82 89 91 91 93 91 84 86 85 89 96 90 68 59 58 56 71 88 89 60 67 60

GFSCGP_sfc_rhum_075.txt.gz
RH
94 92 88 92 74 79 82 84 80 67 54 59 60 57 48 41 45 43 49 46 44 35 35 38 40 39 52 50 44 44 48 51 86 97 97 97 97 97 97 97 94 94 94 85
94 94 77 74 69 75 81 84 84 64 51 58 60 59 51 46 50 47 44 48 44 37 36 38 48 57 58 63 59 50 45 44 47 68 85 96 97 97 96 96 96 96 96 97
97 78 70 76 82 83 86 87 82 70 60 58 61 62 55 47 54 47 44 45 45 39 38 48 56 62 66 67 67 60 55 47 47 47 54 61 94 98 98 98 98 97 96 96
85 71 76 84 86 82 92 72 68 62 68 79 59 87 60 50 50 52 47 46 46 42 44 54 58 61 65 70 66 64 58 56 53 54 54 54 62 95 95 87 88 79 92 96
98 83 88 87 82 72 80 80 67 68 76 80 71 83 70 53 64 53 46 47 45 46 49 55 60 64 70 71 71 68 66 68 71 71 60 62 62 68 71 69 69 75 91 92
92 83 89 92 89 80 81 68 74 88 86 96 75 78 76 56 48 46 50 50 42 53 58 62 69 72 76 74 72 72 69 72 76 83 86 79 75 77 83 88 87 87 93 95
99 96 87 83 86 77 80 90 99 99 99 95 77 75 56 49 45 44 44 50 51 59 67 74 79 79 73 74 75 68 71 76 79 86 91 91 92 93 94 96 97 95 96 97
98 100 96 90 87 86 92 81 94 91 96 89 79 88 63 50 45 43 44 49 64 72 76 81 83 79 74 72 74 75 78 81 83 91 94 95 95 97 98 96 97 97 98 97
94 98 83 81 90 84 94 99 78 82 85 94 78 65 45 46 49 53 60 68 76 78 81 81 81 74 76 77 78 80 81 87 93 91 90 88 87 84 81 80 82 82 78 72
83 97 84 82 81 87 86 84 94 97 96 90 79 77 55 54 55 67 72 70 74 75 76 80 76 76 80 77 78 76 78 85 84 83 84 86 86 83 81 80 80 77 75 74
80 82 91 83 96 87 97 99 98 95 84 84 80 62 53 49 51 66 69 72 72 71 73 81 79 78 77 74 74 75 78 83 84 83 85 88 89 88 87 86 86 84 81 79
80 86 91 85 81 75 74 78 88 97 91 89 90 68 47 52 54 62 70 68 72 71 76 77 79 81 78 74 74 76 80 84 85 85 88 92 93 91 93 94 92 89 90 87
67 91 98 98 91 86 95 81 85 95 84 91 86 65 47 60 67 61 66 72 73 69 73 72 77 78 78 77 76 78 82 87 88 91 94 95 96 96 96 96 96 96 96 96
62 78 78 82 75 87 99 93 86 97 99 89 86 60 49 52 55 58 61 69 75 68 69 70 74 76 77 79 79 81 83 86 88 92 95 94 90 84 84 85 88 86 92 94
61 80 83 73 67 80 82 82 90 95 86 90 72 73 53 43 48 48 55 73 77 73 73 70 70 75 77 80 81 82 85 88 90 94 95 95 82 82 83 85 85 83 87 87
78 87 87 88 70 80 83 76 82 91 88 90 80 70 49 43 53 49 55 72 79 77 70 69 66 70 76 82 82 81 84 86 88 93 94 90 82 85 89 91 90 89 90 91
80 89 89 88 82 76 82 70 71 78 73 73 86 60 56 54 47 49 56 64 66 72 70 67 64 67 76 81 82 87 87 86 90 92 92 83 85 89 91 90 93 95 92 92
87 81 88 94 86 96 65 59 62 61 54 67 63 60 50 50 51 51 55 55 64 71 68 63 67 75 84 88 89 90 89 88 90 91 90 87 89 95 92 92 95 92 91 89
74 86 95 95 97 76 60 73 74 73 67 58 65 57 55 55 73 71 66 69 67 73 70 62 65 80 88 90 95 94 95 94 92 88 92 89 93 97 97 99 99 100 96 98
77 73 77 97 98 91 56 74 63 71 80 72 63 63 64 73 78 72 74 77 80 75 66 67 78 84 91 96 95 95 96 94 88 87 89 88 92 97 98 100 100 97 96 98
88 89 90 89 89 84 60 57 67 85 69 79 72 70 70 80 66 64 77 69 72 69 68 75 79 83 90 95 95 96 96 96 89 88 90 93 95 98 98 96 96 94 93 90
92 92 97 94 95 92 61 74 75 68 79 79 76 75 70 73 82 83 72 70 68 69 77 76 84 87 94 95 94 96 97 95 91 91 93 97 96 90 90 93 97 93 95 92
84 79 91 84 80 58 62 68 67 71 74 75 74 79 65 77 82 75 71 67 66 68 71 74 84 91 95 95 92 97 95 94 93 93 96 97 93 90 94 97 95 91 82 78
78 68 72 71 60 61 57 63 68 73 78 70 71 71 71 73 78 75 73 71 69 69 70 72 80 91 97 96 94 93 90 90 91 92 94 95 97 99 96 86 75 72 64 59
73 68 71 75 67 67 59 56 62 76 78 77 70 71 73 77 79 75 75 76 74 73 73 74 79 85 92 96 96 96 88 87 90 90 92 98 97 92 76 63 57 52 48 46
75 73 73 76 60 57 56 71 65 77 77 75 74 78 77 78 78 83 76 76 76 76 79 83 84 88 88 93 95 92 88 88 86 86 94 94 79 77 63 62 77 58 55 62

GFSCGP_sfc_rhum_078.txt.gz
RH
89 93 94 92 78 79 82 83 84 77 61 64 74 60 72 70 85 84 64 50 42 42 38 39 44 47 47 47 48 57 91 90 96 97 98 98 98 98 98 98 95 95 90 88
95 90 79 74 71 78 81 84 86 75 59 67 64 61 52 50 62 61 54 40 48 47 42 42 45 52 52 55 52 47 47 47 57 89 96 97 97 97 96 96 96 96 96 96
99 80 75 75 76 81 88 87 84 78 63 68 64 65 62 51 47 46 44 45 47 47 41 42 56 58 64 61 60 56 50 48 49 50 58 65 94 97 98 98 98 97 97 97
92 73 80 84 85 79 90 78 70 66 69 82 64 85 66 49 51 51 44 46 47 46 45 47 58 67 67 68 66 58 58 59 57 56 53 56 67 91 96 88 80 76 88 94
98 84 88 90 82 73 81 77 72 74 82 80 80 84 67 57 55 46 39 46 50 48 45 51 62 64 73 74 72 70 69 69 72 69 59 61 62 71 74 73 71 76 92 93
92 82 88 91 90 74 76 75 81 89 85 92 80 81 77 59 48 44 45 46 44 47 48 57 69 79 82 80 77 75 74 78 82 83 83 74 72 80 84 89 91 94 95 95
98 95 87 83 88 83 77 84 98 98 98 92 82 87 59 54 43 41 38 40 50 49 59 68 82 83 80 79 77 75 77 82 87 91 92 92 93 93 94 96 97 96 97 97
96 99 96 84 87 88 88 85 94 91 97 93 82 91 62 52 46 42 41 45 47 62 74 82 85 84 82 78 80 81 83 87 92 94 96 96 95 96 96 96 96 93 95 95
95 98 83 81 90 87 98 97 70 87 89 94 81 74 50 47 45 45 48 55 60 69 80 88 90 84 81 81 82 85 88 94 93 92 87 86 84 81 81 80 80 80 78 69
79 96 82 89 78 88 87 83 94 96 98 93 81 79 64 46 43 49 59 68 72 77 88 92 88 84 85 84 87 86 90 90 90 90 88 87 88 85 84 83 83 80 78 77
78 80 91 86 97 93 96 98 94 87 85 90 84 65 55 52 43 46 58 73 82 87 86 89 86 86 85 84 83 86 89 88 87 86 90 92 92 90 89 89 88 87 85 84
74 85 97 86 89 72 74 77 86 95 90 91 92 62 46 48 50 52 68 79 84 80 86 86 87 89 84 80 81 85 90 90 89 90 93 95 94 94 96 96 96 93 94 93
76 91 99 98 86 88 97 86 78 87 85 94 91 76 45 56 56 69 77 85 84 81 84 83 88 87 84 81 80 85 90 92 92 93 95 96 96 96 97 97 96 96 95 96
69 85 83 83 75 88 97 89 83 92 96 78 83 71 52 49 52 58 71 84 87 79 80 82 85 80 79 78 80 84 88 90 93 94 95 96 94 86 86 85 87 88 92 94
68 88 81 73 66 86 91 88 88 98 87 97 80 72 53 46 46 48 58 74 85 82 82 79 79 80 80 80 81 82 84 89 92 94 96 95 84 82 83 85 84 85 86 88
72 90 87 91 72 82 89 82 87 88 88 85 78 78 59 48 52 53 56 66 76 78 76 78 76 77 82 85 82 80 84 88 88 92 94 92 84 86 89 89 89 88 92 92
82 86 91 91 83 77 87 75 74 80 86 80 90 70 63 59 52 49 59 70 69 71 72 75 71 71 75 82 82 88 89 89 92 94 94 88 86 89 91 89 90 91 94 92
87 84 86 92 87 96 64 59 63 67 60 73 73 65 57 54 52 52 54 56 65 67 72 71 70 74 76 82 84 88 88 91 92 94 94 90 89 92 91 92 93 91 88 87
69 81 92 95 93 79 60 69 76 76 68 62 62 56 54 58 67 60 56 53 54 64 68 66 67 73 84 84 88 89 91 92 93 94 96 89 92 94 95 98 99 99 95 97
80 73 77 98 96 95 57 76 65 72 85 68 71 65 68 71 72 64 70 72 71 72 73 67 73 83 87 95 92 94 96 96 96 93 91 89 92 94 98 100 99 95 98 98
92 98 96 96 92 80 63 57 72 87 68 82 80 74 74 78 64 64 79 81 81 77 72 77 81 87 91 96 94 96 96 97 93 91 91 92 94 98 98 98 97 97 97 96
88 97 97 97 97 92 63 77 76 66 79 81 80 79 76 77 78 82 79 76 75 75 78 77 85 91 96 96 94 96 97 94 95 93 93 98 97 93 91 92 91 89 91 98
87 81 93 85 78 58 66 72 72 73 78 78 80 82 70 76 82 81 76 75 73 72 76 78 82 90 96 96 94 96 95 96 96 93 96 96 94 89 88 92 99 93 95 92
82 75 76 76 61 67 62 62 68 75 78 78 68 74 72 75 79 78 75 73 70 68 73 74 83 83 91 96 95 93 97 86 92 93 95 96 95 96 94 96 91 89 88 80
78 76 75 77 67 68 59 61 58 71 77 78 78 78 81 79 79 75 74 73 72 73 73 75 75 77 82 93 95 95 94 91 92 92 94 97 97 98 99 95 87 78 70 64
74 73 74 73 59 57 55 66 62 74 78 76 74 78 80 80 83 85 81 74 73 72 75 78 81 85 88 88 90 94 92 90 92 94 94 94 94 98 90 81 66 61 56 53

GFSCGP_sfc_rhum_081.txt.gz
RH
91 92 87 86 69 71 71 70 66 67 63 80 84 75 67 75 74 78 64 60 57 53 38 30 32 38 47 50 66 76 81 81 82 84 86 88 86 88 87 86 80 77 75 74
91 90 76 74 68 74 72 77 76 64 61 70 74 81 61 73 73 70 67 56 54 46 35 33 33 37 39 42 46 48 71 72 80 82 83 83 83 84 81 85 83 83 83 86
100 88 72 73 76 79 80 79 76 71 57 58 66 71 65 57 64 66 64 56 48 42 37 35 33 40 50 47 47 43 43 44 46 54 57 61 80 87 89 90 89 85 86 88
91 76 76 80 78 73 83 70 66 64 70 84 56 83 65 57 68 57 55 45 41 42 39 39 39 47 51 54 58 51 50 50 49 48 47 49 60 76 84 78 67 64 77 80
97 85 86 87 80 64 75 70 68 67 70 69 67 73 62 52 59 51 47 43 39 41 39 37 41 53 56 64 62 63 62 64 65 55 50 50 51 57 60 59 58 62 77 78
92 80 79 84 84 73 71 73 75 79 75 90 74 70 68 56 44 41 40 38 37 37 40 38 49 62 66 69 69 69 68 72 72 71 68 62 62 65 66 72 72 75 77 79
97 94 84 81 87 80 72 79 94 95 96 90 72 79 58 46 46 40 38 36 39 38 42 45 60 70 72 73 72 70 70 75 75 76 77 78 80 79 80 82 80 79 79 80
98 99 90 81 84 87 85 80 89 93 91 82 72 79 57 47 43 41 38 40 42 46 48 54 63 69 70 72 71 70 72 78 79 80 83 81 80 78 77 78 75 69 71 73
90 94 81 81 83 83 89 92 69 84 81 84 67 62 44 42 39 40 40 44 46 45 57 62 73 72 71 70 71 71 76 82 80 77 72 70 67 68 68 67 65 65 64 60
77 96 82 84 78 82 83 75 88 96 97 92 72 64 50 41 39 37 36 43 50 57 68 80 77 74 72 71 74 75 77 77 77 74 71 72 71 70 69 68 69 69 66 67
73 77 93 89 96 94 94 93 89 80 79 84 74 53 47 46 42 38 39 42 58 68 79 82 76 74 73 73 73 76 75 75 75 73 74 74 74 75 73 73 74 73 73 73
71 79 90 87 82 74 73 81 78 87 86 86 77 62 39 40 43 47 47 58 71 75 80 78 76 76 73 72 72 74 75 73 73 74 75 76 77 78 79 80 80 77 78 77
76 93 96 97 87 81 89 80 76 82 81 96 90 66 41 48 47 50 61 69 78 79 81 77 77 76 71 69 70 73 75 75 76 77 79 80 81 81 82 82 80 78 78 78
69 90 79 79 73 84 98 93 83 89 97 75 78 66 51 46 47 46 54 70 78 76 77 76 78 76 73 71 70 72 76 76 79 80 82 83 82 80 79 78 78 78 78 77
86 99 90 81 66 85 86 86 89 96 82 89 70 66 52 47 43 46 44 62 80 78 79 76 76 76 74 72 70 71 76 79 81 83 84 85 79 77 78 79 80 82 80 78
72 98 84 89 70 75 87 84 90 85 79 80 73 76 52 47 52 58 56 56 75 78 74 73 73 75 74 72 70 72 77 80 80 83 84 83 81 81 83 84 87 87 88 87
83 94 97 94 78 77 91 81 77 74 82 78 90 68 57 61 62 58 60 59 60 69 72 73 71 69 70 72 69 73 76 78 81 83 85 82 83 84 87 86 87 90 91 87
88 84 87 94 82 96 61 56 65 70 61 71 74 63 60 60 56 58 52 52 58 65 70 69 68 70 70 72 72 75 80 81 85 85 85 84 84 87 89 89 90 90 86 84
68 80 96 96 90 76 58 61 67 69 60 61 62 58 58 60 59 57 52 50 47 60 61 63 64 65 70 73 75 77 80 82 83 86 87 86 86 90 91 97 98 100 98 93
74 76 97 97 97 91 58 68 65 66 82 63 64 65 66 68 78 62 55 57 54 57 66 66 69 72 72 78 78 81 84 84 86 85 87 85 87 91 96 100 100 95 90 92
93 99 96 95 94 84 57 62 67 85 62 72 78 76 74 77 63 63 74 80 75 75 72 72 76 77 78 84 83 86 89 90 85 87 89 88 91 95 98 98 96 92 87 82
85 95 97 97 97 90 61 72 69 63 75 78 78 77 75 75 69 77 78 79 76 77 80 79 82 87 92 90 87 92 94 90 89 89 90 93 94 92 94 92 86 82 82 80
90 82 91 83 76 60 68 63 66 71 72 76 78 78 70 74 76 75 74 75 74 73 77 78 84 93 94 92 87 92 90 89 91 90 92 94 93 91 89 88 88 86 88 84
93 73 85 79 63 68 61 61 66 66 72 74 67 73 64 69 75 78 73 73 72 73 74 74 78 85 90 88 88 83 87 87 89 90 91 93 94 93 88 85 87 86 87 80
81 77 79 78 64 66 61 61 56 60 72 76 75 77 76 79 75 73 73 72 70 70 69 70 72 76 80 86 85 82 88 83 89 88 91 94 93 92 91 88 86 77 70 64
85 78 76 76 57 59 54 58 61 62 75 75 71 74 77 78 80 79 77 72 69 70 70 72 74 76 76 81 84 88 89 88 87 92 95 96 95 96 93 95 88 80 73 68

GFSCGP_sfc_rhum_084.txt.gz
RH
87 90 63 48 50 46 45 48 48 45 49 53 49 47 40 37 44 42 36 30 29 33 30 34 26 24 50 69 74 75 73 67 62 66 68 69 71 70 65 62 61 59 60 58
94 87 48 56 52 48 47 44 46 50 47 55 47 50 40 38 42 39 37 35 29 31 32 34 26 24 32 51 60 72 75 70 72 69 62 62 62 63 61 68 67 64 64 66
99 82 54 52 58 54 48 42 47 47 46 50 52 48 45 40 40 39 38 41 33 31 34 34 29 26 30 34 43 46 57 67 70 72 70 68 69 72 71 70 71 69 70 73
76 67 62 56 55 49 59 51 49 52 52 57 48 46 41 35 39 41 37 37 37 37 36 35 31 30 32 36 45 40 40 45 48 50 56 62 62 66 63 66 63 60 62 66
92 80 66 63 56 47 51 54 52 53 52 53 54 61 34 36 38 37 36 35 37 38 34 34 32 32 35 43 48 43 41 41 41 37 35 35 37 39 44 44 48 50 59 64
89 70 57 48 64 55 56 55 53 52 50 68 39 50 35 33 30 30 31 31 37 36 33 31 29 32 39 52 54 55 50 51 50 47 42 40 42 40 43 50 50 52 56 61
95 88 72 67 66 61 56 58 83 82 86 61 49 51 32 25 29 27 27 25 27 33 32 29 32 38 43 54 56 56 53 55 54 54 53 52 55 54 55 57 55 56 56 60
100 98 85 66 61 68 55 51 62 69 54 42 56 51 28 26 27 27 27 26 29 28 32 34 31 37 45 51 53 50 51 56 55 56 58 56 58 55 55 57 54 51 52 55
75 89 77 73 67 62 71 88 52 70 59 61 40 41 32 24 27 27 28 30 31 29 32 39 38 41 44 50 51 50 52 57 58 58 55 54 53 55 55 54 52 51 51 49
58 91 79 85 70 71 65 48 76 90 85 67 47 43 28 25 25 23 22 24 25 31 33 37 45 52 50 50 52 53 51 54 56 55 53 54 54 54 55 53 54 54 52 53
54 60 90 91 95 96 83 75 69 54 54 60 43 32 26 29 25 27 24 29 36 37 41 44 50 55 55 54 56 54 55 56 56 54 55 56 56 57 55 55 56 57 57 58
53 58 86 75 64 60 59 56 55 69 66 58 58 40 27 26 27 30 30 39 47 50 49 51 54 56 56 57 57 54 54 53 54 55 54 56 57 57 57 58 60 58 59 59
62 88 93 89 78 74 85 64 61 55 65 93 66 41 29 30 31 33 35 35 45 53 56 53 54 54 53 52 52 54 53 52 54 55 55 57 59 59 59 60 60 59 59 59
59 76 64 58 57 57 82 64 60 80 99 63 65 44 30 31 34 33 29 29 39 50 53 55 55 53 50 50 50 50 52 52 56 57 58 59 60 60 60 61 63 64 59 60
83 100 78 62 58 66 68 64 65 92 77 84 54 48 38 31 28 26 30 32 38 50 52 54 55 52 50 50 49 49 51 55 57 60 62 63 62 61 62 65 66 70 71 67
92 99 99 100 83 68 77 62 60 61 63 60 55 55 35 30 30 34 35 36 39 40 48 51 53 51 51 49 49 50 52 56 58 60 62 64 63 66 68 71 74 76 79 78
78 92 94 86 84 93 92 65 60 59 55 57 73 51 37 40 41 41 38 36 39 39 38 46 49 51 49 48 48 50 50 53 58 60 61 64 64 68 73 74 79 86 86 82
97 85 84 78 70 90 44 47 50 51 46 46 51 45 40 39 37 41 38 38 38 35 37 41 45 48 47 46 48 47 53 56 64 63 66 67 69 74 78 82 84 87 85 84
85 86 97 84 70 50 45 47 52 54 46 40 44 42 41 39 45 50 40 39 38 34 32 38 42 44 46 50 49 52 57 58 63 67 68 70 71 76 83 92 95 100 100 100
77 75 81 93 80 66 38 49 44 46 53 47 48 47 49 54 58 45 44 40 37 33 37 45 48 50 48 50 51 55 58 60 64 65 67 68 70 77 87 99 100 97 95 99
96 99 95 85 81 57 39 47 48 52 44 51 58 58 60 60 47 50 52 54 58 46 43 48 53 50 50 57 57 61 64 69 65 67 72 73 76 84 93 99 98 94 84 73
80 89 82 74 86 73 47 56 51 38 51 51 56 57 58 54 52 53 57 62 62 62 62 57 57 62 66 67 66 69 78 74 74 76 79 80 83 86 93 94 87 77 69 63
84 66 59 57 48 46 45 37 36 44 47 50 56 56 51 56 54 55 57 57 56 57 60 58 65 76 76 72 66 76 76 74 76 75 78 80 81 87 90 90 86 81 68 61
98 93 74 63 40 48 44 39 46 46 47 48 52 57 57 57 52 55 55 55 54 55 56 56 58 61 69 66 67 62 68 67 70 71 73 77 88 92 89 83 80 80 70 63
55 68 92 60 49 43 40 42 37 40 44 49 55 57 58 60 59 57 56 55 53 54 55 56 55 57 61 65 66 64 67 67 69 69 75 80 87 91 90 84 82 82 64 56
38 48 66 61 56 50 41 45 43 45 47 52 58 59 60 60 61 61 59 57 55 54 62 73 80 75 69 74 69 67 66 70 70 74 78 83 90 91 87 85 87 84 70 69

GFSCGP_sfc_rhum_087.txt.gz
RH
89 86 62 42 37 35 30 33 28 27 35 46 45 39 33 28 34 37 30 25 21 22 26 30 28 24 38 57 56 60 59 62 64 67 68 77 73 73 62 55 54 52 53 53
86 70 45 36 34 42 41 34 37 38 36 41 35 36 30 28 28 30 30 26 24 21 23 32 29 24 24 50 60 62 62 66 66 66 64 66 76 76 71 72 65 63 61 63
98 58 48 46 48 44 40 37 45 40 40 39 38 42 35 28 27 27 29 28 28 28 21 26 31 29 26 36 49 59 64 65 67 68 76 85 86 85 71 68 67 65 64 67
78 59 56 49 45 39 46 34 32 40 46 49 37 37 23 23 28 30 29 29 27 32 26 24 30 31 31 34 46 43 53 64 72 75 80 82 80 79 75 72 67 67 62 65
76 66 59 53 41 39 42 42 43 44 47 46 46 52 30 24 29 27 26 27 26 29 32 28 32 34 36 44 51 43 41 46 48 53 59 65 68 60 59 49 52 51 58 60
75 62 48 43 42 45 46 46 44 47 52 86 42 45 33 25 26 24 21 22 24 26 30 31 31 32 33 45 52 50 44 42 42 41 39 41 43 40 45 48 46 46 50 58
92 75 55 60 60 50 48 48 80 81 88 65 32 33 31 20 20 21 21 20 22 23 26 30 32 31 33 49 53 54 50 51 47 46 43 43 46 46 49 54 52 50 50 57
96 100 68 48 50 53 48 48 60 61 47 38 41 43 29 19 18 16 21 23 24 23 26 31 34 32 35 48 56 52 48 48 49 50 51 50 51 52 52 53 52 50 51 54
97 97 64 61 51 58 59 71 39 59 46 50 34 31 23 20 23 24 24 25 26 24 26 30 37 38 34 44 48 47 47 51 51 51 51 49 49 51 52 52 51 51 50 48
75 98 74 72 61 60 74 46 71 80 74 55 27 33 26 21 21 20 20 20 21 22 25 26 33 44 37 42 45 46 46 51 51 50 47 50 50 51 52 51 52 52 50 51
43 69 85 91 91 58 68 72 60 52 40 51 35 31 22 22 21 24 24 29 31 31 28 28 31 44 46 45 48 49 49 51 51 50 50 51 52 53 51 52 54 55 54 55
46 64 98 82 66 56 54 53 49 68 59 52 50 43 21 22 23 25 29 35 37 40 39 37 37 45 50 53 55 52 52 52 51 50 50 52 54 53 53 54 55 54 55 55
51 85 88 94 84 72 87 73 63 50 51 98 66 43 25 25 27 27 30 27 27 40 43 42 44 48 49 52 52 52 51 49 50 51 50 52 54 53 53 54 55 55 56 56
73 72 67 67 67 53 78 61 56 71 100 63 62 42 29 27 31 29 28 24 24 28 41 42 46 47 46 47 48 49 50 50 52 52 52 53 54 54 54 55 56 58 56 56
95 100 82 59 52 52 63 59 56 85 74 86 53 45 34 30 28 24 22 23 27 30 36 43 46 45 44 46 46 46 46 49 52 54 56 57 56 55 56 59 61 63 64 63
93 100 99 100 92 58 68 55 54 54 55 62 58 53 34 29 27 27 26 27 30 32 32 38 44 44 45 45 45 46 48 51 52 54 57 57 57 59 62 64 67 69 74 73
99 99 99 94 95 99 98 72 58 53 48 49 65 47 34 34 32 32 32 31 32 30 32 32 40 44 43 43 44 45 46 48 53 54 55 58 58 62 64 67 72 79 82 81
98 99 96 93 91 93 42 42 44 47 43 40 41 38 35 33 30 30 29 31 33 31 30 33 32 39 42 41 42 42 46 49 57 55 56 59 60 65 69 73 77 83 85 86
95 98 98 86 69 40 36 44 46 47 42 33 36 32 29 29 34 41 35 33 34 32 29 28 28 32 40 42 42 44 47 50 56 58 60 60 63 68 74 83 89 100 100 100
92 98 99 96 91 59 39 40 35 37 47 37 38 39 44 47 58 44 45 44 43 34 32 31 34 34 39 43 44 48 51 54 57 58 61 62 64 72 79 90 100 98 99 100
98 98 96 78 71 49 34 43 41 49 46 48 49 52 53 56 45 47 46 47 51 50 35 36 41 43 44 46 48 55 57 62 57 60 66 67 70 79 87 99 99 97 90 85
77 85 92 83 85 68 37 48 47 40 44 41 47 52 54 48 46 46 49 53 57 56 54 48 52 53 54 57 57 62 70 68 66 66 70 74 75 80 88 94 90 83 78 75
71 71 87 55 50 44 40 35 36 32 35 39 49 51 52 48 46 48 52 50 52 52 55 54 64 74 70 65 58 68 70 67 70 71 74 75 78 81 85 91 90 83 75 72
68 87 83 60 40 39 38 36 34 36 38 39 42 48 52 49 49 49 50 50 50 52 53 53 57 62 67 59 59 58 63 64 67 69 70 72 79 83 86 86 85 83 78 72
39 57 83 75 54 45 35 38 40 38 34 39 40 48 53 55 54 53 52 51 50 51 52 51 50 53 57 57 58 57 60 61 65 64 67 72 79 84 89 87 85 83 75 69
36 38 42 46 59 61 46 44 44 47 43 41 44 54 56 54 56 54 55 53 53 51 54 57 59 57 58 59 61 62 66 63 62 65 74 75 82 84 88 90 92 81 78 74

GFSCGP_sfc_rhum_090.txt.gz
RH
87 95 84 59 51 38 39 44 40 42 52 62 51 48 46 35 47 50 47 41 35 32 38 40 34 32 50 70 73 77 79 79 84 90 92 96 93 91 81 72 63 61 62 63
90 86 52 41 40 40 54 43 43 51 52 61 48 49 40 36 36 44 44 42 38 33 37 43 37 32 54 76 78 78 75 83 86 83 86 95 94 94 92 89 82 81 83 78
87 77 52 48 47 50 52 52 51 55 47 49 54 54 42 33 31 32 35 37 36 35 38 44 39 36 36 60 75 78 83 83 82 83 94 98 97 96 93 92 92 89 78 83
72 59 57 57 55 47 58 39 55 57 59 73 48 75 47 37 36 33 36 39 40 37 38 41 42 42 39 42 69 72 77 85 89 95 97 94 95 97 97 94 93 86 78 79
82 73 67 64 47 42 52 44 52 57 57 62 60 76 52 36 40 36 34 36 39 38 38 42 42 45 46 62 68 64 61 75 86 85 91 95 92 93 86 86 80 73 74 74
72 66 69 58 48 43 47 57 51 56 63 97 69 64 60 40 33 35 34 33 34 36 39 43 46 45 53 71 70 66 63 60 58 71 70 77 82 62 60 68 66 66 73 78
84 79 61 63 75 66 60 68 94 96 94 92 43 57 49 34 28 30 31 34 34 34 41 43 50 49 56 72 73 69 61 62 61 56 52 52 56 52 58 64 66 69 69 76
95 95 79 59 73 72 68 68 86 78 80 65 41 64 42 26 28 28 28 32 34 32 38 44 48 48 55 70 68 67 68 66 63 64 66 66 68 71 71 66 68 66 69 73
85 80 64 59 51 59 70 80 55 90 66 80 60 47 33 26 30 34 35 36 39 37 36 61 50 51 59 64 62 62 60 63 64 67 65 65 67 65 70 66 64 64 65 54
81 96 76 70 66 68 84 66 82 95 93 74 45 39 41 33 29 32 33 37 38 35 37 41 46 55 56 60 60 60 62 66 65 62 62 60 62 64 64 64 66 66 63 64
75 91 95 86 89 80 88 97 90 69 67 81 69 52 35 32 34 35 42 44 47 44 40 40 46 52 57 66 63 58 62 64 64 60 62 64 65 64 64 68 68 66 66 67
54 94 93 88 77 61 57 69 80 97 79 73 85 66 31 33 32 32 45 47 51 54 53 49 54 63 66 73 73 68 70 66 63 60 60 64 66 65 68 68 68 67 70 70
64 98 99 99 94 78 91 74 62 70 82 90 89 64 33 33 36 35 42 37 48 52 55 57 62 68 71 75 74 73 67 65 64 64 68 68 68 67 67 68 66 65 68 69
86 90 73 70 80 78 95 78 65 80 98 82 80 60 40 38 37 36 42 38 40 39 52 57 64 68 68 70 73 72 68 66 68 66 66 69 70 69 70 68 68 68 68 71
93 99 98 67 56 75 88 72 71 92 90 85 64 59 44 36 35 40 37 35 36 37 40 56 63 67 68 69 68 67 68 68 68 70 72 72 68 68 70 73 74 76 78 77
98 99 100 98 89 96 93 70 62 65 69 76 67 63 42 40 40 38 37 38 40 41 38 41 57 61 63 68 66 63 66 69 70 73 76 73 72 75 77 79 82 84 88 88
95 98 99 98 97 99 99 93 67 61 56 60 80 58 44 47 42 41 41 40 39 40 39 40 49 60 62 63 62 67 68 68 71 74 73 73 74 78 83 85 88 88 92 91
91 89 95 99 98 97 60 55 56 56 52 52 50 49 45 45 43 44 42 45 42 40 40 41 47 57 60 60 61 61 65 67 75 75 75 76 77 81 86 88 89 90 94 94
78 86 97 98 96 58 51 53 58 66 64 50 50 45 42 40 54 54 50 54 56 52 43 42 44 46 59 61 61 59 66 70 75 77 78 77 79 86 90 91 94 100 100 100
83 81 99 98 97 89 56 50 41 45 68 53 45 50 59 61 84 72 63 58 57 60 57 48 51 47 61 63 59 63 71 74 78 76 78 78 80 88 92 94 100 99 100 100
98 98 94 95 95 66 52 49 50 68 78 63 61 66 71 77 70 64 62 63 68 66 64 58 60 63 61 67 66 72 76 79 76 76 80 80 86 91 95 99 100 99 97 94
84 94 94 90 97 92 57 55 59 60 58 55 61 70 70 65 60 62 64 66 67 69 67 66 73 82 80 75 73 78 83 82 82 84 84 88 92 92 95 98 97 93 86 86
80 89 93 97 81 55 53 54 47 48 49 54 64 70 68 63 62 61 64 66 66 68 68 78 88 89 88 80 80 88 89 84 85 88 91 92 88 88 93 98 96 90 83 81
85 85 88 84 58 63 56 48 53 50 52 50 52 57 68 67 66 64 63 64 66 67 70 76 84 89 88 80 78 85 84 83 86 91 92 93 87 91 92 93 90 88 83 80
63 58 68 81 64 60 58 61 59 58 55 49 52 52 67 72 68 67 65 65 66 67 67 67 73 78 80 78 77 80 79 81 85 85 92 92 86 88 96 93 90 88 78 75
55 53 60 64 56 73 72 48 59 68 67 61 56 69 73 72 70 69 72 67 64 62 69 74 75 76 77 77 79 78 75 71 74 77 86 89 88 92 94 96 94 83 81 80

GFSCGP_sfc_rhum_093.txt.gz
RH
92 89 91 83 72 60 53 52 55 61 67 71 78 70 55 46 56 53 54 48 46 45 49 46 43 44 66 79 86 87 87 88 88 92 83 97 86 90 82 74 68 63 65 68
89 89 75 61 56 54 56 52 56 71 64 72 74 72 54 46 51 53 52 51 48 45 51 51 41 40 56 77 87 84 86 87 88 86 89 94 92 95 96 96 93 92 91 88
89 85 68 62 63 55 62 62 56 72 64 71 74 80 53 42 42 51 50 47 45 43 46 54 47 42 58 84 89 87 83 85 84 86 97 98 98 96 96 96 96 96 93 96
84 68 68 71 67 57 72 54 56 62 72 86 56 86 61 43 45 39 47 51 45 43 49 48 45 43 49 77 86 88 91 88 89 94 96 95 94 93 96 96 96 95 88 88
82 81 79 77 63 51 59 56 61 71 64 76 68 82 70 50 47 41 43 46 46 42 40 50 44 40 43 56 85 87 88 94 97 96 93 96 95 95 96 98 94 87 83 78
82 73 78 72 62 56 52 59 60 59 70 94 78 81 79 53 41 46 42 37 41 44 41 45 48 48 52 77 76 71 76 85 89 94 96 96 95 91 89 94 92 84 83 79
85 80 75 68 77 68 66 76 96 96 97 91 65 79 63 46 37 34 38 42 42 45 45 52 59 55 64 74 75 72 72 72 71 83 88 83 85 79 77 79 77 74 82 84
95 80 84 69 77 76 77 79 90 83 96 78 54 72 51 36 34 36 34 36 37 38 44 54 53 52 63 70 77 72 71 70 64 65 69 82 70 72 77 75 68 72 78 75
96 86 74 65 63 64 73 86 63 89 87 88 71 58 40 34 32 38 35 39 40 38 43 57 62 59 65 73 76 74 74 74 74 76 79 80 81 73 74 74 71 69 69 61
78 95 82 73 69 76 80 69 81 98 95 85 61 59 49 39 33 37 44 47 44 38 40 51 58 64 72 76 78 72 72 74 77 74 67 68 74 72 70 71 72 68 67 65
78 93 96 84 92 88 93 95 89 80 77 79 64 52 39 39 41 48 53 55 57 54 50 49 52 62 70 79 79 74 73 70 71 64 64 68 68 69 72 71 68 67 67 67
80 97 98 96 79 66 68 84 82 94 88 82 85 65 38 40 45 52 55 53 57 55 56 56 62 71 78 81 80 78 79 68 66 67 69 74 66 72 69 67 68 68 70 72
85 99 99 99 97 86 97 83 86 90 94 94 84 69 37 41 39 48 55 57 58 60 61 61 73 76 81 84 85 85 83 76 73 64 66 73 75 73 76 69 69 68 69 70
82 100 99 93 95 86 99 80 76 95 99 91 89 68 42 44 40 41 45 42 54 61 60 65 70 77 82 84 84 86 84 80 76 75 73 74 74 71 71 71 71 70 72 73
94 99 100 95 80 94 95 83 85 100 88 84 64 63 48 46 43 39 41 40 45 45 62 64 67 74 78 83 83 81 77 77 75 77 78 78 75 73 74 75 77 78 79 81
97 97 99 98 88 96 86 80 81 81 85 85 80 74 46 42 51 47 47 45 43 41 42 56 64 69 73 81 82 77 78 78 75 77 79 78 77 78 82 85 88 89 91 90
93 98 96 94 99 99 99 93 83 67 68 77 92 66 49 52 50 49 46 45 45 44 43 43 56 65 66 72 71 75 77 78 79 80 80 79 79 83 87 89 93 94 94 92
94 94 98 96 99 97 63 60 63 67 56 58 61 58 52 51 50 52 48 46 43 43 44 44 47 65 66 66 66 70 74 74 80 83 83 82 83 87 92 93 94 95 96 95
85 91 98 99 97 78 51 49 72 77 70 59 61 55 51 49 55 60 62 62 64 62 58 56 51 56 69 65 63 67 73 76 80 82 84 84 84 91 93 94 95 98 100 100
88 88 90 95 97 86 58 52 44 46 63 62 54 56 55 65 67 68 69 63 66 70 68 66 63 55 73 70 64 68 73 77 79 84 85 84 86 90 93 94 98 100 100 100
98 97 91 90 96 82 53 49 50 59 59 68 68 73 78 81 75 68 67 69 74 76 70 69 72 74 69 75 64 70 79 80 80 83 85 86 90 93 94 99 99 99 98 97
84 96 96 88 99 95 56 56 61 62 61 62 67 79 79 75 66 66 70 72 73 74 74 85 89 91 90 82 70 80 82 87 85 87 88 90 93 92 96 98 96 96 94 93
85 92 92 99 91 85 77 64 63 60 57 57 74 80 72 66 67 64 68 71 72 74 81 87 90 89 89 85 82 86 90 88 90 90 92 94 96 97 97 98 99 97 90 88
90 88 95 82 66 65 85 63 62 69 66 61 58 63 70 69 69 70 66 70 72 72 77 85 88 90 89 88 84 88 88 88 88 92 94 96 96 97 94 94 94 93 90 87
73 67 76 82 62 71 72 52 65 72 72 74 63 53 72 76 72 72 78 68 68 72 73 78 86 88 87 87 90 90 89 88 92 94 96 96 93 94 98 95 92 92 84 80
68 64 70 73 67 69 68 52 63 63 72 74 75 64 75 76 74 79 71 70 68 66 70 78 84 85 85 86 88 88 88 89 91 88 89 90 92 94 96 97 96 86 84 80

GFSCGP_sfc_rhum_096.txt.gz
RH
86 80 86 83 78 74 59 76 75 68 69 77 76 80 74 74 66 52 62 62 57 56 54 55 65 82 93 95 96 89 89 85 84 91 90 95 97 92 85 77 70 68 69 71
80 81 84 74 68 65 64 63 67 73 65 77 67 66 60 69 61 50 57 56 54 52 50 54 52 65 85 88 90 89 89 93 90 90 88 93 96 95 92 92 90 84 81 83
86 83 70 67 70 66 66 64 70 74 76 76 74 75 67 56 49 50 54 53 51 48 47 55 55 49 61 90 93 91 90 92 86 90 97 98 97 97 98 98 98 98 97 97
86 71 72 76 71 63 78 58 53 70 81 95 74 92 65 58 47 47 50 58 54 51 50 52 53 51 48 81 91 88 89 91 90 94 96 93 90 92 95 94 96 98 96 96
81 86 87 80 70 61 66 61 66 73 73 69 74 77 72 61 54 44 47 53 54 51 50 51 55 46 45 60 90 93 94 94 95 96 94 96 97 96 96 98 97 97 93 92
83 74 81 79 67 64 56 64 65 81 91 95 72 74 72 65 48 40 41 40 41 45 49 52 52 48 48 58 84 89 94 96 97 98 98 97 95 95 97 99 98 96 90 85
84 80 79 71 78 68 65 89 99 98 99 92 72 85 64 51 46 38 37 42 44 46 48 51 59 59 57 68 80 81 90 93 96 98 97 98 98 96 96 97 97 94 91 88
98 79 84 73 72 76 78 92 94 86 92 81 68 87 57 42 40 41 35 45 45 45 51 54 59 60 58 70 78 75 81 83 80 87 92 89 95 96 96 94 90 92 89 83
98 87 76 74 73 66 80 90 64 87 89 91 67 57 42 38 38 46 44 44 48 49 52 52 65 62 61 70 74 73 74 75 73 73 84 90 92 93 93 89 85 86 81 74
78 98 81 72 72 81 76 66 90 98 97 90 71 73 50 42 40 43 48 49 49 47 52 69 71 67 72 76 81 79 76 76 79 85 85 83 82 81 83 76 75 73 72 68
72 92 93 91 91 90 89 94 86 74 70 86 65 56 40 38 37 46 50 54 55 57 53 55 68 71 74 84 84 81 81 81 83 78 74 76 71 70 72 75 73 69 71 74
81 96 98 85 87 84 82 79 71 86 87 82 81 59 43 52 49 55 60 58 64 61 58 57 66 73 82 85 86 82 86 84 78 68 68 75 69 68 66 73 71 67 68 68
81 100 98 97 93 90 98 86 83 89 90 91 84 61 42 54 58 58 57 60 58 58 64 66 72 72 77 85 87 87 89 87 81 79 81 81 83 77 75 74 72 70 70 71
83 99 99 96 98 98 99 97 84 88 98 90 89 66 48 47 45 52 57 60 72 67 60 65 73 80 83 86 88 90 90 86 83 84 85 88 89 86 83 79 77 75 73 76
88 95 94 90 86 98 99 96 97 100 90 88 72 71 53 43 46 46 46 45 49 50 64 66 66 73 86 88 88 89 90 90 86 87 89 90 85 78 79 77 77 74 75 76
92 95 98 88 84 87 88 95 96 97 91 81 88 82 50 41 49 67 57 49 49 46 53 62 64 69 76 86 86 87 88 88 85 87 87 83 82 84 84 86 87 89 89 87
94 99 93 87 80 93 93 84 90 88 87 89 97 70 55 62 54 54 54 51 48 47 47 48 58 66 74 79 80 84 84 85 86 86 86 84 84 86 90 92 93 94 94 93
91 95 97 94 97 98 72 63 71 77 67 66 71 68 60 54 51 56 59 54 48 47 47 49 52 54 70 72 78 82 82 80 84 87 86 86 88 90 93 94 94 95 96 95
86 92 98 97 96 86 58 54 76 80 71 66 65 60 58 57 64 63 64 64 72 63 60 62 62 59 60 74 73 78 81 81 83 87 87 89 89 93 94 95 96 98 100 100
89 83 85 92 97 85 66 54 50 58 68 70 67 64 62 59 69 61 74 68 69 72 73 72 70 69 64 76 75 76 81 81 82 85 87 88 89 92 94 95 97 100 100 100
93 94 97 93 99 82 77 66 56 71 59 68 73 76 75 79 68 68 69 73 78 77 74 78 86 86 82 83 75 78 85 82 81 87 88 89 91 92 93 99 100 99 97 98
85 96 97 93 99 94 92 77 81 80 69 60 71 82 80 73 69 68 74 77 75 78 81 88 90 91 91 87 77 84 85 88 89 88 89 91 94 92 96 98 98 96 93 96
91 93 91 93 85 89 88 92 67 76 73 76 73 76 76 69 69 68 72 78 78 82 86 89 90 89 92 88 86 90 92 89 90 91 92 93 95 96 97 98 98 98 96 94
83 88 95 89 74 59 95 90 88 77 79 79 79 69 70 71 70 73 70 73 75 77 82 88 88 89 92 91 87 87 82 88 88 92 94 96 97 98 98 97 95 96 95 93
77 76 76 85 66 80 79 64 65 77 72 76 79 79 67 76 78 75 81 77 70 73 77 85 89 91 92 92 92 91 90 89 92 94 96 97 96 97 98 95 93 93 86 85
77 72 76 76 72 73 68 60 51 63 74 81 86 84 78 78 79 86 78 72 71 69 75 81 87 86 88 90 91 91 90 90 93 95 96 93 94 96 96 97 97 87 86 84

GFSCGP_sfc_rhum_099.txt.gz
RH
81 85 83 91 84 77 75 79 79 78 79 86 85 85 80 71 78 75 69 61 62 62 62 66 83 95 96 95 94 96 97 93 94 97 96 98 94 96 91 84 68 66 67 71
75 82 88 78 71 66 66 79 78 70 75 76 86 84 77 80 76 74 68 61 61 59 55 60 61 76 94 96 96 95 92 94 88 90 93 95 97 97 94 93 87 81 80 81
79 78 73 69 70 66 71 79 79 73 80 77 78 82 78 71 65 68 61 58 57 55 51 50 62 60 81 94 96 94 90 92 89 93 97 98 98 99 99 97 97 94 87 91
86 74 76 77 74 63 79 62 57 85 88 95 73 79 73 65 68 63 60 60 60 60 56 49 55 63 62 82 93 95 93 93 91 96 96 94 88 94 90 97 98 98 96 97
72 87 87 81 73 69 67 63 64 85 76 78 93 88 69 59 70 58 55 57 56 57 55 53 51 56 55 59 93 95 95 96 97 98 97 98 96 96 97 98 98 99 99 98
80 75 85 78 71 70 61 74 85 91 86 96 81 82 75 71 53 50 48 45 45 43 52 53 53 57 61 59 88 94 96 96 97 99 98 98 98 98 98 99 99 100 99 99
82 82 78 78 84 70 78 88 98 98 99 94 77 84 74 54 51 44 40 38 40 38 44 54 55 61 60 59 69 89 94 96 98 99 99 99 99 97 96 98 99 99 96 98
97 80 84 76 75 76 88 93 95 91 95 96 75 88 68 43 43 45 40 40 42 47 53 56 55 60 62 60 66 82 90 94 97 99 98 93 96 97 98 98 99 98 97 92
98 87 73 78 78 71 86 94 84 98 90 93 83 62 43 38 38 43 44 46 46 52 51 53 57 60 63 67 72 81 89 90 89 88 93 92 96 96 97 96 96 97 96 92
81 97 82 75 79 87 79 75 92 98 97 95 80 72 54 41 38 43 50 48 48 47 57 70 69 69 70 74 83 84 83 83 81 81 88 90 94 93 93 94 93 92 87 83
75 93 86 95 96 90 94 93 84 81 86 93 78 58 50 44 35 41 45 50 54 51 52 65 76 78 81 86 85 83 83 83 87 88 89 90 88 86 83 82 78 75 74 72
78 87 91 89 90 92 86 79 77 89 92 85 85 67 48 55 50 43 53 60 63 59 56 60 72 80 83 83 85 84 87 88 89 86 86 86 83 81 79 74 70 68 71 73
79 98 98 90 96 91 98 88 77 79 84 92 88 68 42 47 63 63 57 60 60 64 69 65 70 71 77 84 87 88 89 90 88 84 85 84 84 83 83 81 80 72 73 73
78 94 94 94 93 98 99 99 82 84 99 88 78 66 49 44 52 61 64 62 61 63 61 66 70 75 80 82 87 88 90 91 89 87 88 88 88 86 84 80 81 84 83 75
85 84 84 88 87 90 96 97 98 100 84 86 74 67 50 42 43 43 52 52 52 52 59 63 64 66 79 84 88 90 90 92 90 89 90 90 90 88 88 87 86 81 82 83
90 94 97 97 72 87 93 80 91 98 98 92 92 90 59 46 53 54 52 53 52 49 46 51 63 68 70 82 87 90 92 92 90 91 91 91 91 90 89 87 88 89 90 90
95 97 94 88 78 94 92 83 75 77 86 93 98 72 59 67 68 65 57 58 55 51 48 48 51 64 71 76 80 89 92 92 92 91 91 91 90 90 91 91 92 93 93 92
91 95 96 98 94 92 60 64 70 73 76 83 86 76 62 56 51 53 58 59 57 53 50 50 54 57 59 75 81 87 91 92 92 92 91 90 89 91 93 94 94 94 95 94
87 93 97 96 93 79 61 64 78 89 79 73 76 67 64 61 65 62 60 60 62 71 67 67 70 70 68 66 80 90 91 92 91 90 88 89 89 92 94 95 96 98 100 100
90 84 88 90 98 96 85 83 70 68 73 71 75 76 71 65 77 67 68 71 76 81 76 77 75 72 72 69 84 91 90 89 87 84 85 88 90 91 93 95 97 100 100 100
86 88 93 97 99 84 94 91 72 74 72 82 73 80 77 74 64 66 70 79 81 79 78 85 89 90 86 87 86 90 91 86 82 87 90 90 92 93 93 98 99 100 99 99
94 91 87 92 99 93 93 79 80 87 80 83 88 84 86 78 74 72 75 79 79 82 85 90 91 91 92 92 90 92 91 90 91 90 92 94 94 92 94 98 99 98 98 97
93 86 90 87 80 87 93 87 74 82 85 85 93 88 81 74 67 69 74 82 81 85 87 89 92 91 93 92 88 91 93 92 90 92 93 94 95 96 98 99 99 99 97 96
81 88 94 89 82 74 90 94 88 84 90 86 82 87 87 82 75 76 73 75 78 81 87 90 90 91 94 95 92 89 92 83 82 86 95 96 96 98 98 98 97 98 98 97
79 80 80 85 75 91 89 72 65 61 80 79 85 86 88 88 85 80 78 77 75 78 81 90 92 93 95 94 95 93 85 81 85 88 94 95 96 98 99 98 96 96 88 88
83 77 79 75 71 76 72 65 67 68 65 79 84 83 85 86 88 86 77 77 76 76 79 85 90 88 91 92 94 93 91 86 87 92 97 98 98 98 97 98 98 87 86 85

GFSCGP_sfc_rhum_102.txt.gz
RH
75 85 86 86 88 77 81 84 87 85 84 81 84 76 72 75 78 83 76 68 60 57 69 84 96 98 98 97 98 95 93 90 95 99 99 97 94 95 92 83 78 78 77 78
75 89 78 82 79 69 81 85 86 85 85 81 85 74 67 72 81 78 76 70 64 61 55 55 74 95 98 96 96 97 89 86 87 93 95 95 92 96 91 90 87 85 80 84
75 80 72 68 73 69 76 81 77 84 88 81 90 87 84 76 81 69 68 69 64 59 56 54 56 68 92 97 98 97 96 95 94 94 97 99 99 99 98 97 96 93 86 84
86 79 78 78 76 71 81 67 63 88 88 93 77 74 84 75 75 70 66 72 66 62 61 58 52 59 65 84 95 95 95 96 96 98 97 97 96 93 97 98 98 97 94 94
76 89 88 83 74 70 73 73 71 87 87 92 92 89 69 71 76 64 58 60 69 61 59 57 56 52 58 59 87 96 96 97 96 98 96 98 97 96 98 98 98 98 99 98
81 77 87 83 74 74 66 81 87 93 86 98 85 86 76 71 60 54 48 54 60 55 56 56 55 55 58 64 78 96 97 98 98 99 98 97 97 97 99 99 100 100 99 99
81 79 78 82 86 74 80 83 98 99 99 95 81 95 71 56 53 47 46 49 52 50 49 56 58 60 58 60 68 92 96 97 98 99 99 98 98 98 97 97 99 99 99 98
97 78 80 79 80 80 90 84 92 91 98 96 87 96 76 52 43 44 45 43 47 46 45 48 54 55 59 60 64 75 89 94 98 99 99 99 98 99 98 97 99 99 98 97
97 86 71 76 82 77 90 98 82 92 90 94 90 78 46 38 39 39 42 45 50 52 54 56 58 59 60 62 64 71 83 91 97 99 99 96 97 98 98 98 98 98 97 93
80 96 82 81 84 89 81 78 96 99 97 96 84 78 59 41 39 42 45 52 50 50 62 69 68 62 73 75 77 83 86 90 92 92 95 95 96 96 97 98 99 98 96 95
80 89 80 90 95 91 95 99 93 89 87 94 84 61 52 49 41 37 43 52 52 54 56 68 74 79 83 86 87 87 88 88 88 88 91 92 95 95 96 96 96 95 91 88
80 88 91 75 83 91 81 96 94 92 98 87 87 71 50 56 61 52 47 53 57 60 59 67 77 84 84 86 88 88 88 88 89 90 90 91 92 92 91 88 83 79 79 77
86 97 97 78 84 91 99 96 92 99 90 94 90 76 45 64 68 64 62 70 63 62 65 67 68 73 82 84 86 87 89 89 91 91 91 91 90 89 88 86 84 82 82 80
78 93 86 91 84 92 98 88 92 99 99 95 81 74 58 47 57 63 62 64 71 66 59 60 63 71 77 80 84 88 90 91 91 91 91 91 90 89 88 87 85 84 83 82
90 91 89 74 81 89 92 88 86 100 97 97 80 68 51 47 48 51 66 52 54 56 56 62 60 61 70 79 82 87 88 92 91 91 91 90 91 90 89 90 91 90 86 84
87 95 94 91 81 85 86 83 83 88 93 98 99 94 68 53 61 56 54 59 60 58 51 48 51 65 68 74 81 87 90 92 92 92 91 91 92 92 92 92 91 89 90 91
96 93 97 94 74 87 94 86 82 80 88 83 94 79 70 77 74 74 62 59 60 55 52 50 50 51 62 70 77 84 90 92 93 92 92 93 93 93 93 92 92 93 93 92
94 95 91 97 93 91 67 66 72 76 73 72 88 82 73 79 69 60 62 64 60 58 56 53 55 60 61 66 77 84 90 93 94 93 93 93 93 93 94 93 93 94 95 94
86 94 96 93 91 77 69 82 73 92 99 78 83 76 74 67 74 71 64 65 66 67 66 69 76 78 77 74 72 87 92 94 94 94 93 93 92 94 94 94 95 97 100 100
91 92 94 95 97 97 90 88 86 81 97 84 88 89 89 74 89 72 64 70 68 74 78 80 80 82 83 80 80 88 92 94 94 93 93 92 92 91 93 94 98 100 100 100
86 92 93 98 99 80 78 87 82 81 77 86 88 92 95 95 72 67 68 70 73 80 80 87 90 92 89 90 91 92 93 93 89 92 92 93 93 92 93 98 99 99 99 98
90 90 82 92 94 91 91 83 80 86 88 90 93 91 94 91 82 69 75 80 76 78 83 87 92 92 93 92 94 93 94 92 92 92 92 93 94 93 94 98 98 99 98 99
95 86 91 87 83 76 87 87 86 89 91 89 92 90 91 91 84 79 75 82 81 85 88 90 92 92 93 94 92 92 91 93 93 93 94 95 95 96 98 98 99 99 98 98
82 90 98 88 84 83 83 96 80 73 87 89 88 92 87 95 91 93 75 78 80 80 88 92 91 93 95 96 95 92 93 92 92 91 91 96 96 99 99 98 97 98 99 99
80 86 87 86 76 86 92 76 78 74 72 74 84 86 84 92 91 93 82 79 80 79 84 90 92 95 96 95 95 94 92 90 90 87 91 93 95 97 97 96 96 97 94 88
86 80 81 76 72 76 77 74 81 87 81 75 83 90 80 88 93 92 89 82 79 81 84 83 89 90 92 94 95 94 90 83 85 91 92 93 95 94 95 98 99 87 85 84

GFSCGP_sfc_rhum_105.txt.gz
RH
70 82 88 82 80 73 76 80 88 85 80 90 90 75 60 60 60 61 65 63 66 77 84 96 92 81 85 80 77 76 81 94 96 98 98 96 87 88 78 76 74 76 74 74
74 88 76 77 80 68 77 83 87 83 82 79 84 76 56 64 61 60 61 61 62 56 64 79 97 95 85 83 83 89 81 92 94 95 98 96 96 96 91 84 78 80 77 77
76 72 72 67 68 66 73 76 84 76 83 82 82 79 68 63 66 59 58 61 60 54 48 53 72 94 94 88 87 91 86 90 89 88 93 95 98 98 98 95 96 93 82 82
79 73 76 75 72 64 70 61 60 86 89 92 79 74 67 62 59 55 44 55 56 57 52 52 61 58 74 94 93 92 87 86 91 88 90 90 94 93 94 93 96 96 95 90
76 85 85 82 71 68 68 69 77 83 79 85 86 87 74 66 69 56 52 52 54 56 53 49 50 51 55 71 91 94 95 86 88 89 93 93 91 84 86 89 94 98 93 90
77 73 84 78 75 71 72 78 82 85 82 94 77 81 66 72 67 55 48 49 53 53 53 51 49 51 52 63 69 85 94 96 94 96 95 95 93 94 98 97 99 98 99 98
75 75 72 80 84 71 76 80 97 97 98 90 74 90 66 54 49 44 44 43 48 49 47 50 49 51 53 59 65 82 88 92 96 97 96 95 95 96 94 97 98 98 98 98
95 73 72 82 78 76 87 84 89 91 92 86 82 91 65 53 45 46 41 42 40 47 46 46 48 51 51 55 57 72 87 88 93 96 97 95 93 94 94 94 96 97 96 95
93 82 69 74 80 78 86 99 75 88 82 82 76 68 44 38 44 40 38 40 43 44 49 46 46 48 49 51 53 57 71 83 92 96 97 96 96 95 93 92 94 95 91 90
77 97 82 83 81 91 86 83 98 99 96 94 74 69 52 41 36 35 38 42 45 46 58 64 56 54 56 57 56 62 67 78 87 95 91 90 90 90 90 92 94 93 90 85
78 90 78 76 90 91 94 98 94 93 82 84 71 54 44 44 43 45 38 46 46 48 56 70 71 69 66 69 70 69 73 78 83 85 87 85 87 88 89 91 91 89 86 83
81 83 91 76 90 91 83 99 100 95 97 77 74 58 43 47 57 61 47 51 52 51 54 63 73 74 75 74 75 73 76 76 77 76 77 82 85 85 87 87 84 80 80 75
86 95 95 75 77 70 86 87 92 99 95 94 84 64 40 54 62 62 54 57 58 56 57 56 59 65 73 75 76 77 78 77 78 77 78 80 81 80 80 78 74 71 69 66
74 92 85 85 74 92 93 83 81 96 99 95 80 62 49 46 56 59 59 57 56 56 56 54 54 59 66 71 75 75 77 78 80 79 78 78 79 77 76 73 71 69 67 68
83 94 95 84 79 81 77 86 90 96 90 99 84 70 56 51 43 48 51 50 50 49 47 47 52 55 58 65 73 78 79 81 80 80 79 79 77 75 74 73 72 71 69 70
90 89 97 92 69 81 89 78 77 86 78 84 89 86 70 63 54 49 51 54 54 54 52 49 48 48 55 57 64 74 80 83 81 82 81 80 78 77 77 78 80 77 78 78
93 96 97 92 78 87 90 73 81 81 83 84 94 75 68 74 72 77 70 58 56 55 54 52 49 49 51 56 62 64 74 82 84 83 82 81 80 79 80 80 79 81 81 81
94 96 84 94 90 89 86 74 75 88 93 90 84 77 77 76 69 70 69 63 60 59 57 55 51 56 56 56 61 68 77 84 88 86 86 85 84 85 85 83 83 84 83 84
88 93 96 92 87 76 81 88 85 88 98 96 96 87 88 79 74 72 58 63 62 58 62 66 69 69 68 67 65 68 76 84 88 88 87 86 85 86 86 89 90 98 100 100
91 92 92 94 98 91 77 84 86 85 95 95 94 96 95 82 90 75 70 66 65 68 71 72 75 76 77 77 79 74 76 84 87 86 87 86 85 85 88 90 95 98 99 100
86 85 95 97 98 75 63 82 83 89 81 86 88 92 94 96 88 80 75 67 69 70 74 80 82 83 83 84 85 86 84 84 82 88 89 88 87 89 88 96 97 98 97 96
88 94 95 86 92 84 87 81 82 78 86 82 86 87 92 91 85 84 82 72 74 77 80 82 85 87 87 88 89 91 91 86 88 88 89 90 89 86 90 96 96 96 95 95
94 81 88 82 76 64 91 86 86 90 94 92 93 88 87 88 88 87 91 75 75 78 82 86 89 90 90 91 91 92 87 88 91 90 90 89 88 88 91 96 96 96 95 92
85 90 98 91 82 85 78 94 75 70 75 74 82 88 91 89 86 89 87 84 78 78 84 88 88 91 91 90 92 92 88 88 88 88 89 90 90 94 95 94 94 94 91 89
80 90 91 90 79 78 93 78 74 79 84 81 76 76 88 88 80 90 90 88 77 77 83 86 89 92 94 91 91 90 88 86 89 89 89 89 89 95 95 90 90 87 83 83
87 83 84 72 69 66 74 77 86 92 86 81 82 82 80 84 88 90 86 80 75 75 78 83 86 89 92 92 94 89 84 82 84 89 90 92 93 92 92 92 96 88 87 87

GFSCGP_sfc_rhum_108.txt.gz
RH
56 73 73 65 56 56 53 51 34 63 63 78 83 83 65 45 52 54 64 71 83 73 86 90 90 92 91 90 82 85 81 76 84 91 93 89 74 65 62 56 54 54 59 58
60 63 56 63 58 58 57 55 62 63 65 80 72 76 59 46 46 47 56 60 68 72 85 90 92 91 92 86 80 73 70 79 86 84 89 84 82 80 74 67 61 60 60 63
63 55 58 58 52 54 59 54 61 58 68 75 68 62 56 50 44 44 45 50 51 66 70 75 72 86 92 90 76 73 74 80 82 84 88 90 91 87 88 84 80 77 70 74
54 55 60 56 53 49 52 48 54 65 69 80 58 47 62 49 47 42 40 45 50 52 51 57 72 81 85 92 81 80 84 83 88 92 91 82 91 93 85 85 81 79 81 84
59 63 60 60 53 53 53 57 52 60 62 62 70 60 41 42 49 42 39 38 41 46 49 49 47 58 81 72 87 79 80 87 94 83 86 93 91 90 94 93 86 77 81 92
59 55 65 58 60 58 60 59 62 60 64 74 44 58 28 42 38 36 37 37 38 38 43 43 49 52 56 80 82 83 79 79 92 88 84 86 92 92 95 94 95 90 88 91
58 54 54 65 65 56 61 60 84 82 91 62 57 69 34 34 36 34 34 32 31 37 38 39 40 43 43 55 62 73 76 79 74 83 84 83 89 92 93 86 92 87 91 98
74 68 55 56 65 67 58 67 66 62 56 52 66 66 33 38 35 31 33 30 31 31 34 35 36 38 40 44 47 49 55 65 76 84 86 83 81 88 87 84 88 89 93 95
60 56 51 56 59 63 96 93 62 72 57 61 47 46 33 25 30 30 30 29 31 30 34 35 35 35 37 37 40 42 48 52 64 82 87 90 90 85 88 88 87 92 90 91
56 81 61 62 62 63 71 76 98 95 92 63 46 47 35 32 31 28 28 30 33 38 42 42 43 34 32 33 37 41 42 52 58 72 80 83 82 81 84 78 84 90 89 86
57 72 56 58 61 57 63 77 85 98 88 58 42 35 29 35 39 40 32 34 34 40 46 49 49 47 43 40 43 42 44 52 61 76 81 81 80 80 79 79 86 86 84 82
64 65 77 52 56 59 62 86 100 94 84 88 58 37 31 39 44 42 35 38 37 41 47 49 53 52 51 49 48 49 50 52 58 67 73 75 73 73 73 77 82 80 80 75
61 81 74 48 70 58 65 63 73 90 98 90 62 45 33 34 41 42 42 40 40 39 40 39 44 49 51 53 54 54 55 57 62 63 63 67 70 71 72 75 76 74 72 68
59 96 80 60 71 70 75 60 61 79 93 90 65 47 36 41 39 40 42 40 38 38 39 38 39 42 47 51 52 54 57 56 60 59 60 62 65 66 68 69 70 69 65 63
60 75 71 55 51 56 64 62 56 86 70 94 78 91 52 46 47 35 37 39 39 39 37 35 37 37 40 43 49 55 56 58 57 58 59 61 61 61 63 64 63 60 57 54
68 84 90 80 57 66 65 51 58 60 61 67 62 70 47 40 45 45 41 43 42 42 39 38 36 35 41 41 45 54 57 60 59 59 60 62 61 62 63 61 60 58 59 59
69 83 85 71 64 88 85 68 65 68 67 73 84 60 58 60 56 53 50 49 48 46 44 42 38 36 36 39 45 46 51 58 61 60 61 63 61 61 62 62 62 66 67 66
69 82 78 77 75 73 69 58 67 75 86 89 87 88 79 68 61 56 50 52 47 45 44 42 40 45 46 44 42 48 55 57 65 62 63 63 63 63 63 64 66 67 67 68
69 69 79 74 58 56 63 68 67 68 90 96 96 88 80 69 60 60 56 51 47 47 47 49 49 50 50 50 49 49 49 55 62 66 66 64 63 64 65 70 74 81 92 96
72 66 74 77 65 51 61 63 67 68 68 84 94 86 83 71 72 69 69 61 56 52 51 54 54 53 52 55 57 57 50 51 56 59 67 67 65 66 69 75 82 80 91 99
78 74 72 62 63 40 39 58 65 77 64 71 76 86 88 88 86 76 74 68 67 67 63 59 57 58 60 61 63 62 60 60 55 63 71 72 72 75 75 92 86 92 92 90
56 65 67 66 78 54 46 63 62 61 68 67 72 73 76 77 77 71 70 74 64 68 71 69 67 69 70 72 72 70 72 69 66 66 71 75 75 76 78 81 86 82 80 80
62 47 51 53 41 47 64 62 62 68 71 63 62 60 64 68 63 72 74 70 66 63 65 66 72 77 76 74 75 76 72 70 71 69 72 73 71 69 73 85 90 87 82 81
64 59 61 69 53 53 57 66 64 56 55 59 56 57 55 61 62 59 78 70 68 62 66 68 68 69 71 72 74 73 71 69 70 69 70 70 71 70 72 79 88 84 85 72
48 64 62 64 58 58 55 60 58 57 62 61 56 58 58 56 60 59 66 75 70 63 67 68 70 74 76 71 72 71 72 69 70 70 72 73 73 79 85 80 82 82 76 68
53 54 53 37 44 40 55 53 62 66 63 60 65 63 61 61 58 56 64 76 72 68 71 72 75 79 73 70 72 76 78 72 69 76 80 83 85 87 88 87 92 86 87 86

GFSCGP_sfc_rhum_111.txt.gz
RH
60 80 74 52 48 49 48 41 37 30 52 58 53 61 64 53 48 45 47 63 59 64 72 76 82 87 84 91 98 92 87 77 81 84 80 70 60 62 56 60 62 62 56 54
53 68 48 54 48 50 45 40 38 46 49 58 50 54 55 48 42 44 48 61 62 80 77 83 88 91 90 92 97 93 94 80 85 85 84 81 78 74 64 64 57 57 57 60
60 56 47 49 50 47 43 44 42 46 52 52 62 58 60 47 40 40 44 54 63 77 85 90 96 94 98 95 89 87 96 86 86 86 87 87 87 87 86 80 74 70 62 69
44 39 49 50 48 41 49 41 45 49 52 51 44 71 59 53 48 44 44 54 60 66 76 87 87 93 95 95 92 93 88 86 83 86 90 89 85 84 81 83 85 84 75 73
54 52 54 51 43 47 51 47 45 44 46 44 42 49 49 47 50 45 42 45 52 67 76 75 78 82 84 84 86 92 90 89 82 79 82 83 85 83 83 85 82 84 88 81
45 42 52 53 51 48 47 50 44 44 54 67 38 43 44 46 47 41 36 38 46 54 61 62 70 79 78 83 86 89 90 90 90 87 85 86 87 88 90 94 94 91 90 92
50 42 41 53 56 43 49 58 82 80 85 58 46 48 33 29 31 39 38 35 36 44 50 53 57 63 77 89 83 76 82 85 84 88 82 84 87 91 89 94 96 94 92 90
62 66 45 42 53 63 58 58 76 81 57 41 49 50 43 29 29 28 29 30 30 34 39 45 46 52 59 74 78 71 71 76 77 85 82 84 87 90 91 92 90 88 86 88
50 46 38 44 49 53 76 79 55 71 43 47 36 36 25 24 27 29 29 28 33 28 29 38 37 40 41 48 58 66 68 69 65 77 76 82 87 89 91 92 87 84 81 89
45 66 46 42 45 52 56 65 82 80 82 55 36 36 38 35 34 27 27 28 29 33 33 34 35 34 37 37 43 44 45 49 60 70 80 80 79 74 78 84 84 84 89 94
44 52 51 39 52 53 55 74 72 96 86 89 56 48 34 41 39 37 28 32 34 40 42 42 44 40 36 38 40 40 40 46 51 62 77 82 83 85 86 89 89 91 95 93
49 52 68 39 43 47 49 60 77 78 95 68 69 68 32 36 34 32 35 36 36 40 42 46 47 44 41 42 41 42 42 45 52 62 71 77 81 83 86 85 87 84 88 86
48 71 74 53 61 54 56 51 49 82 95 87 76 74 33 32 36 38 38 35 34 34 34 38 44 46 46 46 43 44 49 52 58 66 68 72 74 73 74 79 82 81 79 76
52 93 78 59 67 60 67 50 42 69 91 73 62 71 44 45 42 37 36 34 33 33 33 34 35 43 48 48 50 50 51 56 60 62 66 68 69 68 70 74 76 74 70 67
46 78 58 48 46 49 53 54 46 80 67 87 56 62 53 45 41 41 34 36 37 37 36 34 34 34 36 45 50 52 55 56 58 60 60 64 63 65 69 73 72 69 66 63
56 86 84 78 52 55 53 41 42 49 53 56 55 55 40 45 43 45 41 40 42 41 39 37 34 32 35 38 45 52 55 56 53 56 59 61 61 64 67 69 70 66 66 64
60 81 84 65 55 82 85 56 58 59 58 70 75 54 57 56 52 52 52 48 46 43 41 40 37 36 37 39 42 42 49 55 55 57 58 59 61 63 65 64 64 68 67 65
54 77 76 71 75 74 60 53 59 59 69 75 73 80 81 64 56 52 49 49 45 45 43 42 42 43 44 41 39 40 49 52 62 60 62 62 62 64 65 66 68 69 69 72
57 60 71 71 44 46 51 54 58 60 70 92 93 74 64 60 53 64 61 57 52 49 47 46 46 46 46 46 46 45 42 46 53 61 63 63 64 65 67 73 76 82 94 95
57 53 71 69 60 42 46 55 55 57 66 73 90 78 75 62 68 79 68 64 58 57 54 53 51 46 45 49 50 52 49 45 46 50 59 63 65 66 71 77 83 83 95 100
74 71 69 50 57 32 42 48 54 71 71 65 66 73 74 77 79 75 66 66 63 63 66 64 56 53 55 58 60 59 55 56 52 52 58 66 67 74 74 92 84 87 90 82
48 58 57 48 62 53 42 57 60 55 55 55 61 66 70 62 59 65 65 66 68 65 68 68 68 64 66 67 67 68 69 66 64 63 63 69 71 74 79 83 84 81 74 77
49 35 42 42 39 42 40 48 50 52 53 56 55 53 50 53 52 50 52 64 63 58 58 60 63 71 74 68 69 74 70 65 65 64 63 67 71 73 77 83 85 80 74 71
48 41 48 55 38 41 49 53 51 55 50 50 49 49 48 50 47 48 47 52 66 62 59 61 62 63 65 65 66 67 69 65 65 65 64 66 70 72 72 77 84 79 74 71
35 49 47 45 39 49 47 45 51 53 53 53 49 49 52 53 52 47 48 49 66 64 60 61 64 68 69 65 66 67 69 67 68 67 68 69 68 72 74 76 82 76 71 68
36 37 44 28 32 36 45 45 50 53 53 52 54 53 50 54 58 53 48 48 68 70 66 68 70 71 68 66 66 69 70 71 69 72 72 73 79 84 86 85 90 84 84 84

GFSCGP_sfc_rhum_114.txt.gz
RH
72 84 92 88 61 50 57 56 54 40 59 64 65 58 59 57 53 57 50 51 84 91 80 86 90 92 94 91 94 94 95 88 77 86 88 85 83 84 82 86 76 67 65 65
64 76 52 56 49 51 50 56 53 52 56 67 61 61 58 54 56 54 56 67 76 88 94 90 94 95 94 92 90 96 94 82 78 77 80 82 86 86 83 83 80 78 72 72
60 51 41 47 49 50 52 67 52 52 53 60 65 71 65 57 54 48 55 62 70 83 91 96 97 97 97 98 97 97 98 86 82 84 88 93 92 94 92 86 86 82 75 81
56 42 45 52 53 49 67 57 50 44 52 85 60 83 62 59 60 60 62 78 88 87 92 93 91 99 99 99 96 97 97 99 96 88 86 89 88 92 95 95 94 91 83 84
67 62 65 64 54 52 60 52 54 52 51 58 52 72 90 58 61 60 61 75 91 87 89 92 87 91 96 97 94 96 96 98 99 97 94 95 95 95 95 96 96 93 91 90
50 38 54 59 53 51 47 56 56 54 60 90 52 58 96 63 59 58 56 61 74 86 92 85 84 94 94 94 90 97 95 92 98 98 97 92 92 95 97 96 96 97 96 97
58 52 46 50 64 52 58 72 95 96 97 90 53 57 59 41 39 59 64 66 62 84 85 87 85 95 96 92 89 92 90 93 96 97 95 95 91 95 95 95 96 97 97 98
80 81 51 42 54 64 69 86 98 96 95 91 54 81 50 37 37 50 61 50 51 67 70 77 77 89 92 88 88 91 91 82 83 91 94 95 95 97 96 94 96 95 95 95
77 60 44 44 42 58 73 88 68 96 64 76 53 48 40 37 38 35 43 40 38 37 56 62 64 68 77 88 91 84 83 81 86 90 92 92 90 96 94 94 95 96 94 91
54 80 52 40 45 58 68 66 87 91 95 78 59 62 64 56 49 40 41 46 45 46 46 50 52 54 56 61 75 92 80 80 80 82 89 87 89 89 93 94 91 95 94 92
54 63 66 49 65 67 76 83 75 95 93 97 96 96 53 54 48 45 49 51 56 56 58 58 56 49 47 48 60 65 77 82 81 82 84 89 90 85 95 95 85 93 92 95
56 66 90 64 54 46 55 60 92 96 92 92 99 98 43 51 51 47 49 47 49 52 58 62 61 55 53 49 52 53 53 60 69 94 95 95 95 96 97 97 96 97 97 97
64 84 94 84 74 57 58 52 52 92 95 93 94 98 55 52 48 46 47 48 46 44 47 56 62 63 66 64 57 57 58 67 84 91 95 94 95 97 96 98 96 94 94 91
58 94 88 93 78 65 79 60 50 83 94 93 84 78 93 56 56 51 50 50 51 49 45 47 53 66 67 68 67 68 75 76 80 83 91 89 91 93 95 96 93 90 80 78
64 88 78 62 52 56 63 59 54 87 74 91 74 69 58 59 60 59 50 48 48 50 49 48 48 51 57 67 70 71 74 76 77 83 85 86 82 85 90 91 83 78 74 70
72 94 93 92 58 65 65 48 49 52 58 71 67 69 66 55 51 62 60 56 57 54 48 47 46 48 51 56 62 69 72 71 71 74 81 82 81 83 89 90 82 76 75 72
76 93 95 82 72 90 90 66 64 62 54 69 75 80 82 76 61 60 67 61 57 56 54 55 55 58 59 56 55 63 70 69 70 73 74 75 78 82 85 85 83 78 75 74
71 90 92 94 90 90 72 62 64 65 68 78 82 81 72 62 66 71 75 71 67 61 58 59 63 62 60 58 59 57 62 71 74 75 75 75 77 81 82 82 85 85 83 81
68 87 91 93 88 59 58 58 70 72 75 84 88 85 76 68 69 78 77 76 75 73 70 68 63 59 60 65 65 63 60 57 69 75 79 77 77 80 82 86 89 90 97 95
64 65 92 92 84 68 71 66 61 66 91 84 89 85 86 82 86 87 78 75 78 71 75 77 72 65 69 68 69 70 68 65 62 64 74 79 79 81 87 90 92 95 99 99
92 92 90 88 83 57 61 62 64 90 80 80 81 80 81 85 75 84 73 77 78 73 70 75 78 77 80 79 80 82 83 84 81 78 72 80 83 86 89 93 95 98 99 95
71 87 89 72 80 78 59 69 81 72 71 68 73 74 75 75 68 67 67 70 71 78 73 73 82 85 83 83 84 87 90 85 81 81 80 81 87 89 93 95 96 97 96 95
70 51 70 59 66 52 60 65 66 64 66 71 71 67 64 62 59 58 63 66 71 68 72 74 80 82 84 81 83 88 88 84 83 84 85 84 89 93 94 96 96 96 94 94
62 52 65 62 52 58 56 65 63 67 68 60 59 63 61 63 62 61 58 60 73 73 75 71 74 82 86 84 80 83 78 78 82 87 86 84 82 86 90 90 95 92 90 88
54 62 65 62 54 70 58 59 64 63 62 64 62 62 63 64 65 65 64 61 66 82 69 69 77 86 85 82 82 83 82 84 85 82 78 77 78 84 87 87 88 95 88 80
57 63 66 63 47 56 65 58 59 64 65 63 65 67 61 66 68 59 68 62 71 87 78 75 76 81 79 78 86 86 85 87 92 90 86 84 87 89 89 91 94 87 85 83

GFSCGP_sfc_rhum_117.txt.gz
RH
81 96 94 84 74 84 83 69 78 67 66 75 79 78 66 52 63 65 74 74 85 88 97 95 94 96 96 97 97 95 97 97 96 86 84 77 70 71 68 64 65 63 61 65
80 95 72 61 68 77 57 63 84 80 62 68 70 70 59 58 64 63 60 64 82 98 97 95 96 98 96 97 94 96 94 96 97 88 80 69 74 77 72 70 72 68 69 70
82 62 45 52 62 62 60 72 74 66 50 66 74 71 72 62 57 52 50 74 78 86 97 96 98 98 99 98 96 96 91 94 94 96 95 95 88 90 90 88 83 80 72 77
69 58 59 66 67 63 80 60 57 62 70 84 69 85 65 72 60 53 61 91 87 86 89 95 98 98 98 99 97 96 96 92 90 93 94 89 85 87 87 85 89 86 81 87
69 64 68 69 67 59 73 60 61 67 73 75 63 83 94 74 74 70 78 92 94 87 91 91 98 96 97 97 97 97 98 92 93 92 92 92 87 90 90 90 92 93 94 92
61 49 57 65 56 61 58 66 67 71 76 92 71 78 74 56 74 80 71 71 92 94 90 90 92 94 98 97 98 98 96 99 96 94 89 74 78 93 91 98 97 97 97 97
66 56 50 50 66 61 60 84 96 94 96 92 65 68 61 47 72 81 77 72 83 94 92 94 98 96 94 97 99 97 93 98 99 96 89 95 92 93 94 94 94 94 96 98
87 78 55 49 61 75 78 85 98 97 92 95 71 73 65 45 45 84 83 75 63 80 95 95 94 92 92 92 96 95 94 98 96 99 98 96 97 98 96 97 97 97 96 95
86 72 50 46 51 68 77 93 72 97 93 91 80 70 56 47 46 53 78 82 67 56 64 80 88 97 98 95 92 96 92 88 95 95 98 98 97 98 98 96 95 95 95 94
67 83 57 52 53 56 72 70 82 92 96 95 88 98 81 68 62 56 58 66 61 64 62 59 58 63 78 91 95 94 94 87 85 88 90 93 95 96 95 95 95 95 95 94
63 73 69 61 74 80 78 86 87 89 96 98 97 98 59 65 63 64 60 56 59 64 66 65 62 52 50 57 82 96 96 92 87 87 92 93 96 93 97 95 92 95 97 96
69 78 93 78 61 54 63 71 88 95 93 97 99 99 70 77 60 57 58 52 51 58 68 65 67 68 66 57 60 70 82 95 90 90 87 90 91 96 96 96 92 94 94 95
69 90 92 76 63 57 68 60 68 91 94 93 96 98 69 73 61 56 62 61 55 50 52 62 69 73 77 77 65 68 76 84 93 97 96 99 99 98 96 95 96 97 99 99
66 93 84 92 81 73 79 65 60 82 96 92 83 76 79 72 69 68 68 64 65 59 51 53 58 68 72 75 76 80 83 86 93 96 95 96 96 98 99 98 96 96 94 95
72 89 87 71 62 62 69 63 61 81 77 92 81 91 89 79 75 67 73 62 59 59 56 57 59 61 59 71 76 75 79 82 88 92 92 91 91 96 97 94 91 84 81 80
76 98 95 96 71 79 67 52 54 54 63 75 75 86 86 72 73 86 80 68 68 66 64 63 63 65 63 64 68 77 77 77 80 86 88 89 92 93 93 90 87 81 80 75
83 95 96 88 76 88 82 64 66 73 66 73 87 91 90 76 75 90 90 80 75 70 69 70 72 70 69 69 64 68 74 79 79 81 81 82 84 90 93 88 85 86 84 82
78 94 95 98 88 74 59 68 70 71 71 79 85 90 74 72 75 86 90 91 87 81 78 76 77 73 74 74 72 71 66 78 82 81 80 81 82 86 88 89 90 87 87 87
77 89 93 91 95 61 75 70 78 80 75 81 88 88 83 79 79 90 85 86 89 85 86 86 84 76 78 82 82 78 74 70 71 81 83 81 83 87 88 90 91 91 96 96
76 75 93 94 87 71 58 73 66 69 82 90 88 89 89 88 98 89 89 84 84 84 80 85 85 82 88 90 88 87 88 87 88 84 78 84 84 87 90 91 92 94 100 100
94 95 91 94 90 64 64 71 69 78 48 88 90 86 86 90 80 83 80 79 83 86 79 82 86 90 91 89 89 92 92 93 88 85 84 82 88 89 90 92 95 98 99 96
74 89 91 85 86 64 69 77 70 63 84 81 86 81 81 82 76 71 69 69 75 79 80 81 87 89 90 88 89 92 93 90 89 88 88 88 88 92 93 94 96 98 97 97
64 60 68 65 61 48 70 65 70 68 71 75 80 78 72 65 66 64 65 66 78 78 74 79 86 87 89 89 90 92 93 90 89 91 90 90 89 94 96 96 98 98 98 97
70 60 62 58 47 60 65 69 71 71 70 66 64 63 64 71 71 71 67 66 67 81 81 75 75 88 89 89 89 90 90 89 91 93 91 90 92 91 92 90 94 97 98 98
57 62 65 72 61 61 58 70 72 69 67 66 63 63 66 71 71 72 72 71 69 82 86 74 74 87 88 88 89 90 90 91 95 94 92 83 82 91 94 92 92 90 88 89
63 65 62 54 54 53 59 62 71 72 71 69 67 67 66 70 73 70 62 73 72 86 87 86 78 80 79 82 86 88 89 91 94 95 96 88 89 90 93 95 97 89 88 86